<?xml version="1.0" encoding="UTF-8" standalone="no" ?>
<gpx xmlns="http://www.topografix.com/GPX/1/1" xmlns:xsi="http://www.w3.org/2001/XMLSchema-instance" xsi:schemaLocation="http://www.topografix.com/GPX/1/1 http://www.topografix.com/GPX/1/1/gpx.xsd" version="1.1" creator="VisuGPX - https://www.visugpx.com">
  <metadata>
    <name>Blanquefort sur Briolance 2013</name>
    <desc><![CDATA[Randonnée vtt à Blanquefort sur Briolance août 2013]]></desc>
  </metadata>
  <trk>
    <name><![CDATA[Tracé actuel: 11 AOU 2013 08:37]]></name>
    <trkseg>
      <trkpt lat="44.59754" lon="0.97048">
        <ele>187.59</ele>
        <time>2013-08-11T06:37:00Z</time>
      </trkpt>
      <trkpt lat="44.59767" lon="0.97051">
        <ele>200.57</ele>
        <time>2013-08-11T06:37:17Z</time>
      </trkpt>
      <trkpt lat="44.59768" lon="0.97058">
        <ele>195.77</ele>
        <time>2013-08-11T06:37:29Z</time>
      </trkpt>
      <trkpt lat="44.59774" lon="0.97063">
        <ele>194.8</ele>
        <time>2013-08-11T06:37:41Z</time>
      </trkpt>
      <trkpt lat="44.5978" lon="0.97067">
        <ele>192.88</ele>
        <time>2013-08-11T06:37:53Z</time>
      </trkpt>
      <trkpt lat="44.59783" lon="0.97066">
        <ele>192.88</ele>
        <time>2013-08-11T06:37:54Z</time>
      </trkpt>
      <trkpt lat="44.59787" lon="0.97064">
        <ele>192.88</ele>
        <time>2013-08-11T06:37:55Z</time>
      </trkpt>
      <trkpt lat="44.5979" lon="0.97062">
        <ele>192.4</ele>
        <time>2013-08-11T06:37:56Z</time>
      </trkpt>
      <trkpt lat="44.59792" lon="0.97059">
        <ele>192.88</ele>
        <time>2013-08-11T06:37:57Z</time>
      </trkpt>
      <trkpt lat="44.59795" lon="0.97056">
        <ele>192.88</ele>
        <time>2013-08-11T06:37:58Z</time>
      </trkpt>
      <trkpt lat="44.59799" lon="0.97053">
        <ele>192.4</ele>
        <time>2013-08-11T06:37:59Z</time>
      </trkpt>
      <trkpt lat="44.59854" lon="0.97014">
        <ele>192.4</ele>
        <time>2013-08-11T06:38:07Z</time>
      </trkpt>
      <trkpt lat="44.59861" lon="0.97012">
        <ele>192.4</ele>
        <time>2013-08-11T06:38:08Z</time>
      </trkpt>
      <trkpt lat="44.59869" lon="0.97012">
        <ele>192.4</ele>
        <time>2013-08-11T06:38:09Z</time>
      </trkpt>
      <trkpt lat="44.59889" lon="0.97015">
        <ele>190.96</ele>
        <time>2013-08-11T06:38:12Z</time>
      </trkpt>
      <trkpt lat="44.59893" lon="0.97014">
        <ele>190</ele>
        <time>2013-08-11T06:38:13Z</time>
      </trkpt>
      <trkpt lat="44.59896" lon="0.97013">
        <ele>189.04</ele>
        <time>2013-08-11T06:38:14Z</time>
      </trkpt>
      <trkpt lat="44.59898" lon="0.97011">
        <ele>188.08</ele>
        <time>2013-08-11T06:38:15Z</time>
      </trkpt>
      <trkpt lat="44.599" lon="0.97009">
        <ele>187.11</ele>
        <time>2013-08-11T06:38:16Z</time>
      </trkpt>
      <trkpt lat="44.59901" lon="0.97007">
        <ele>186.15</ele>
        <time>2013-08-11T06:38:17Z</time>
      </trkpt>
      <trkpt lat="44.59904" lon="0.96998">
        <ele>182.31</ele>
        <time>2013-08-11T06:38:27Z</time>
      </trkpt>
      <trkpt lat="44.59903" lon="0.96998">
        <ele>182.31</ele>
        <time>2013-08-11T06:38:28Z</time>
      </trkpt>
      <trkpt lat="44.59901" lon="0.96999">
        <ele>181.83</ele>
        <time>2013-08-11T06:38:29Z</time>
      </trkpt>
      <trkpt lat="44.599" lon="0.97">
        <ele>181.83</ele>
        <time>2013-08-11T06:38:30Z</time>
      </trkpt>
      <trkpt lat="44.59899" lon="0.97002">
        <ele>181.35</ele>
        <time>2013-08-11T06:38:31Z</time>
      </trkpt>
      <trkpt lat="44.59898" lon="0.97004">
        <ele>181.35</ele>
        <time>2013-08-11T06:38:32Z</time>
      </trkpt>
      <trkpt lat="44.59898" lon="0.97006">
        <ele>181.35</ele>
        <time>2013-08-11T06:38:33Z</time>
      </trkpt>
      <trkpt lat="44.59897" lon="0.97008">
        <ele>181.35</ele>
        <time>2013-08-11T06:38:34Z</time>
      </trkpt>
      <trkpt lat="44.59896" lon="0.97008">
        <ele>180.87</ele>
        <time>2013-08-11T06:38:35Z</time>
      </trkpt>
      <trkpt lat="44.59895" lon="0.97007">
        <ele>180.38</ele>
        <time>2013-08-11T06:38:36Z</time>
      </trkpt>
      <trkpt lat="44.59895" lon="0.97006">
        <ele>180.38</ele>
        <time>2013-08-11T06:38:37Z</time>
      </trkpt>
      <trkpt lat="44.59896" lon="0.97005">
        <ele>179.9</ele>
        <time>2013-08-11T06:38:38Z</time>
      </trkpt>
      <trkpt lat="44.59898" lon="0.97003">
        <ele>179.42</ele>
        <time>2013-08-11T06:38:39Z</time>
      </trkpt>
      <trkpt lat="44.599" lon="0.97002">
        <ele>179.42</ele>
        <time>2013-08-11T06:38:40Z</time>
      </trkpt>
      <trkpt lat="44.59903" lon="0.96999">
        <ele>179.42</ele>
        <time>2013-08-11T06:38:41Z</time>
      </trkpt>
      <trkpt lat="44.59906" lon="0.96995">
        <ele>178.94</ele>
        <time>2013-08-11T06:38:42Z</time>
      </trkpt>
      <trkpt lat="44.59933" lon="0.96964">
        <ele>177.98</ele>
        <time>2013-08-11T06:38:48Z</time>
      </trkpt>
      <trkpt lat="44.59947" lon="0.96951">
        <ele>177.5</ele>
        <time>2013-08-11T06:38:51Z</time>
      </trkpt>
      <trkpt lat="44.59953" lon="0.96946">
        <ele>177.5</ele>
        <time>2013-08-11T06:38:52Z</time>
      </trkpt>
      <trkpt lat="44.59973" lon="0.96938">
        <ele>177.02</ele>
        <time>2013-08-11T06:38:55Z</time>
      </trkpt>
      <trkpt lat="44.5998" lon="0.9694">
        <ele>177.02</ele>
        <time>2013-08-11T06:38:56Z</time>
      </trkpt>
      <trkpt lat="44.59987" lon="0.96945">
        <ele>177.02</ele>
        <time>2013-08-11T06:38:57Z</time>
      </trkpt>
      <trkpt lat="44.6" lon="0.96955">
        <ele>176.54</ele>
        <time>2013-08-11T06:38:59Z</time>
      </trkpt>
      <trkpt lat="44.60006" lon="0.96958">
        <ele>176.54</ele>
        <time>2013-08-11T06:39:00Z</time>
      </trkpt>
      <trkpt lat="44.60031" lon="0.96972">
        <ele>175.58</ele>
        <time>2013-08-11T06:39:07Z</time>
      </trkpt>
      <trkpt lat="44.60032" lon="0.96976">
        <ele>171.25</ele>
        <time>2013-08-11T06:39:18Z</time>
      </trkpt>
      <trkpt lat="44.60023" lon="0.96966">
        <ele>170.77</ele>
        <time>2013-08-11T06:39:29Z</time>
      </trkpt>
      <trkpt lat="44.60028" lon="0.96969">
        <ele>168.37</ele>
        <time>2013-08-11T06:39:33Z</time>
      </trkpt>
      <trkpt lat="44.60028" lon="0.96969">
        <ele>167.89</ele>
        <time>2013-08-11T06:39:34Z</time>
      </trkpt>
      <trkpt lat="44.60028" lon="0.96968">
        <ele>166.93</ele>
        <time>2013-08-11T06:39:35Z</time>
      </trkpt>
      <trkpt lat="44.60028" lon="0.96965">
        <ele>165.96</ele>
        <time>2013-08-11T06:39:36Z</time>
      </trkpt>
      <trkpt lat="44.60026" lon="0.96962">
        <ele>165.48</ele>
        <time>2013-08-11T06:39:37Z</time>
      </trkpt>
      <trkpt lat="44.60024" lon="0.96957">
        <ele>164.52</ele>
        <time>2013-08-11T06:39:38Z</time>
      </trkpt>
      <trkpt lat="44.60021" lon="0.96952">
        <ele>163.08</ele>
        <time>2013-08-11T06:39:39Z</time>
      </trkpt>
      <trkpt lat="44.60019" lon="0.96948">
        <ele>162.6</ele>
        <time>2013-08-11T06:39:40Z</time>
      </trkpt>
      <trkpt lat="44.60016" lon="0.96944">
        <ele>162.12</ele>
        <time>2013-08-11T06:39:41Z</time>
      </trkpt>
      <trkpt lat="44.60013" lon="0.9694">
        <ele>161.64</ele>
        <time>2013-08-11T06:39:42Z</time>
      </trkpt>
      <trkpt lat="44.60009" lon="0.96937">
        <ele>161.64</ele>
        <time>2013-08-11T06:39:43Z</time>
      </trkpt>
      <trkpt lat="44.60004" lon="0.96933">
        <ele>161.16</ele>
        <time>2013-08-11T06:39:44Z</time>
      </trkpt>
      <trkpt lat="44.6" lon="0.9693">
        <ele>160.68</ele>
        <time>2013-08-11T06:39:45Z</time>
      </trkpt>
      <trkpt lat="44.59929" lon="0.96907">
        <ele>156.83</ele>
        <time>2013-08-11T06:39:59Z</time>
      </trkpt>
      <trkpt lat="44.5988" lon="0.96894">
        <ele>155.39</ele>
        <time>2013-08-11T06:40:11Z</time>
      </trkpt>
      <trkpt lat="44.59863" lon="0.96878">
        <ele>154.91</ele>
        <time>2013-08-11T06:40:17Z</time>
      </trkpt>
      <trkpt lat="44.59859" lon="0.96873">
        <ele>154.43</ele>
        <time>2013-08-11T06:40:18Z</time>
      </trkpt>
      <trkpt lat="44.59807" lon="0.96786">
        <ele>150.58</ele>
        <time>2013-08-11T06:40:31Z</time>
      </trkpt>
      <trkpt lat="44.59755" lon="0.96674">
        <ele>148.66</ele>
        <time>2013-08-11T06:40:45Z</time>
      </trkpt>
      <trkpt lat="44.59711" lon="0.96614">
        <ele>145.78</ele>
        <time>2013-08-11T06:40:55Z</time>
      </trkpt>
      <trkpt lat="44.59703" lon="0.96605">
        <ele>145.3</ele>
        <time>2013-08-11T06:40:57Z</time>
      </trkpt>
      <trkpt lat="44.597" lon="0.966">
        <ele>145.3</ele>
        <time>2013-08-11T06:40:58Z</time>
      </trkpt>
      <trkpt lat="44.59696" lon="0.96594">
        <ele>145.3</ele>
        <time>2013-08-11T06:40:59Z</time>
      </trkpt>
      <trkpt lat="44.59695" lon="0.96587">
        <ele>144.82</ele>
        <time>2013-08-11T06:41:00Z</time>
      </trkpt>
      <trkpt lat="44.59694" lon="0.96579">
        <ele>144.82</ele>
        <time>2013-08-11T06:41:01Z</time>
      </trkpt>
      <trkpt lat="44.59695" lon="0.96571">
        <ele>144.34</ele>
        <time>2013-08-11T06:41:02Z</time>
      </trkpt>
      <trkpt lat="44.59695" lon="0.96553">
        <ele>143.85</ele>
        <time>2013-08-11T06:41:04Z</time>
      </trkpt>
      <trkpt lat="44.59693" lon="0.96537">
        <ele>143.37</ele>
        <time>2013-08-11T06:41:06Z</time>
      </trkpt>
      <trkpt lat="44.59684" lon="0.96526">
        <ele>143.37</ele>
        <time>2013-08-11T06:41:08Z</time>
      </trkpt>
      <trkpt lat="44.59673" lon="0.96517">
        <ele>142.89</ele>
        <time>2013-08-11T06:41:10Z</time>
      </trkpt>
      <trkpt lat="44.59667" lon="0.96513">
        <ele>142.89</ele>
        <time>2013-08-11T06:41:11Z</time>
      </trkpt>
      <trkpt lat="44.59652" lon="0.965">
        <ele>142.41</ele>
        <time>2013-08-11T06:41:14Z</time>
      </trkpt>
      <trkpt lat="44.59604" lon="0.96469">
        <ele>143.37</ele>
        <time>2013-08-11T06:41:26Z</time>
      </trkpt>
      <trkpt lat="44.59578" lon="0.96442">
        <ele>144.82</ele>
        <time>2013-08-11T06:41:38Z</time>
      </trkpt>
      <trkpt lat="44.59538" lon="0.96421">
        <ele>145.78</ele>
        <time>2013-08-11T06:41:52Z</time>
      </trkpt>
      <trkpt lat="44.59504" lon="0.96407">
        <ele>149.62</ele>
        <time>2013-08-11T06:42:05Z</time>
      </trkpt>
      <trkpt lat="44.59468" lon="0.96404">
        <ele>156.83</ele>
        <time>2013-08-11T06:42:20Z</time>
      </trkpt>
      <trkpt lat="44.59425" lon="0.96403">
        <ele>158.75</ele>
        <time>2013-08-11T06:42:35Z</time>
      </trkpt>
      <trkpt lat="44.5942" lon="0.96402">
        <ele>158.75</ele>
        <time>2013-08-11T06:42:37Z</time>
      </trkpt>
      <trkpt lat="44.59412" lon="0.96385">
        <ele>158.75</ele>
        <time>2013-08-11T06:42:45Z</time>
      </trkpt>
      <trkpt lat="44.59393" lon="0.96399">
        <ele>158.75</ele>
        <time>2013-08-11T06:42:51Z</time>
      </trkpt>
      <trkpt lat="44.59363" lon="0.96396">
        <ele>157.79</ele>
        <time>2013-08-11T06:42:57Z</time>
      </trkpt>
      <trkpt lat="44.59372" lon="0.96359">
        <ele>156.35</ele>
        <time>2013-08-11T06:43:03Z</time>
      </trkpt>
      <trkpt lat="44.59394" lon="0.96317">
        <ele>155.39</ele>
        <time>2013-08-11T06:43:09Z</time>
      </trkpt>
      <trkpt lat="44.59393" lon="0.96315">
        <ele>154.91</ele>
        <time>2013-08-11T06:43:10Z</time>
      </trkpt>
      <trkpt lat="44.59381" lon="0.96316">
        <ele>153.47</ele>
        <time>2013-08-11T06:43:13Z</time>
      </trkpt>
      <trkpt lat="44.59377" lon="0.9632">
        <ele>152.51</ele>
        <time>2013-08-11T06:43:14Z</time>
      </trkpt>
      <trkpt lat="44.59373" lon="0.96325">
        <ele>152.51</ele>
        <time>2013-08-11T06:43:15Z</time>
      </trkpt>
      <trkpt lat="44.59369" lon="0.9633">
        <ele>152.03</ele>
        <time>2013-08-11T06:43:16Z</time>
      </trkpt>
      <trkpt lat="44.59356" lon="0.96346">
        <ele>151.54</ele>
        <time>2013-08-11T06:43:19Z</time>
      </trkpt>
      <trkpt lat="44.59351" lon="0.96351">
        <ele>151.06</ele>
        <time>2013-08-11T06:43:20Z</time>
      </trkpt>
      <trkpt lat="44.59346" lon="0.96355">
        <ele>151.06</ele>
        <time>2013-08-11T06:43:21Z</time>
      </trkpt>
      <trkpt lat="44.5934" lon="0.9636">
        <ele>151.06</ele>
        <time>2013-08-11T06:43:22Z</time>
      </trkpt>
      <trkpt lat="44.59335" lon="0.96366">
        <ele>150.58</ele>
        <time>2013-08-11T06:43:23Z</time>
      </trkpt>
      <trkpt lat="44.5933" lon="0.96372">
        <ele>150.58</ele>
        <time>2013-08-11T06:43:24Z</time>
      </trkpt>
      <trkpt lat="44.59273" lon="0.96449">
        <ele>147.7</ele>
        <time>2013-08-11T06:43:35Z</time>
      </trkpt>
      <trkpt lat="44.59268" lon="0.96453">
        <ele>147.7</ele>
        <time>2013-08-11T06:43:36Z</time>
      </trkpt>
      <trkpt lat="44.59263" lon="0.96452">
        <ele>147.7</ele>
        <time>2013-08-11T06:43:37Z</time>
      </trkpt>
      <trkpt lat="44.59257" lon="0.9645">
        <ele>147.22</ele>
        <time>2013-08-11T06:43:38Z</time>
      </trkpt>
      <trkpt lat="44.59251" lon="0.96447">
        <ele>146.74</ele>
        <time>2013-08-11T06:43:39Z</time>
      </trkpt>
      <trkpt lat="44.59233" lon="0.96441">
        <ele>146.74</ele>
        <time>2013-08-11T06:43:42Z</time>
      </trkpt>
      <trkpt lat="44.59228" lon="0.96441">
        <ele>146.74</ele>
        <time>2013-08-11T06:43:43Z</time>
      </trkpt>
      <trkpt lat="44.59223" lon="0.96442">
        <ele>146.26</ele>
        <time>2013-08-11T06:43:44Z</time>
      </trkpt>
      <trkpt lat="44.59218" lon="0.96444">
        <ele>146.26</ele>
        <time>2013-08-11T06:43:45Z</time>
      </trkpt>
      <trkpt lat="44.59214" lon="0.96446">
        <ele>146.26</ele>
        <time>2013-08-11T06:43:46Z</time>
      </trkpt>
      <trkpt lat="44.5921" lon="0.96449">
        <ele>146.26</ele>
        <time>2013-08-11T06:43:47Z</time>
      </trkpt>
      <trkpt lat="44.59206" lon="0.96453">
        <ele>145.78</ele>
        <time>2013-08-11T06:43:48Z</time>
      </trkpt>
      <trkpt lat="44.59203" lon="0.96457">
        <ele>145.78</ele>
        <time>2013-08-11T06:43:49Z</time>
      </trkpt>
      <trkpt lat="44.592" lon="0.96461">
        <ele>145.78</ele>
        <time>2013-08-11T06:43:50Z</time>
      </trkpt>
      <trkpt lat="44.59198" lon="0.96466">
        <ele>145.78</ele>
        <time>2013-08-11T06:43:51Z</time>
      </trkpt>
      <trkpt lat="44.59197" lon="0.96471">
        <ele>145.78</ele>
        <time>2013-08-11T06:43:52Z</time>
      </trkpt>
      <trkpt lat="44.59196" lon="0.96476">
        <ele>145.3</ele>
        <time>2013-08-11T06:43:53Z</time>
      </trkpt>
      <trkpt lat="44.59194" lon="0.96481">
        <ele>145.3</ele>
        <time>2013-08-11T06:43:54Z</time>
      </trkpt>
      <trkpt lat="44.59192" lon="0.96487">
        <ele>145.3</ele>
        <time>2013-08-11T06:43:55Z</time>
      </trkpt>
      <trkpt lat="44.5919" lon="0.96494">
        <ele>144.82</ele>
        <time>2013-08-11T06:43:56Z</time>
      </trkpt>
      <trkpt lat="44.59169" lon="0.96581">
        <ele>144.34</ele>
        <time>2013-08-11T06:44:06Z</time>
      </trkpt>
      <trkpt lat="44.59164" lon="0.96591">
        <ele>143.85</ele>
        <time>2013-08-11T06:44:07Z</time>
      </trkpt>
      <trkpt lat="44.59145" lon="0.96623">
        <ele>142.89</ele>
        <time>2013-08-11T06:44:10Z</time>
      </trkpt>
      <trkpt lat="44.59078" lon="0.9668">
        <ele>140.97</ele>
        <time>2013-08-11T06:44:19Z</time>
      </trkpt>
      <trkpt lat="44.59056" lon="0.96688">
        <ele>140.49</ele>
        <time>2013-08-11T06:44:22Z</time>
      </trkpt>
      <trkpt lat="44.59049" lon="0.96688">
        <ele>140.49</ele>
        <time>2013-08-11T06:44:23Z</time>
      </trkpt>
      <trkpt lat="44.59042" lon="0.96688">
        <ele>140.49</ele>
        <time>2013-08-11T06:44:24Z</time>
      </trkpt>
      <trkpt lat="44.59022" lon="0.96685">
        <ele>140.01</ele>
        <time>2013-08-11T06:44:27Z</time>
      </trkpt>
      <trkpt lat="44.59016" lon="0.96682">
        <ele>140.01</ele>
        <time>2013-08-11T06:44:28Z</time>
      </trkpt>
      <trkpt lat="44.58952" lon="0.96655">
        <ele>139.05</ele>
        <time>2013-08-11T06:44:39Z</time>
      </trkpt>
      <trkpt lat="44.58917" lon="0.96651">
        <ele>138.57</ele>
        <time>2013-08-11T06:44:45Z</time>
      </trkpt>
      <trkpt lat="44.58912" lon="0.96649">
        <ele>138.57</ele>
        <time>2013-08-11T06:44:46Z</time>
      </trkpt>
      <trkpt lat="44.58906" lon="0.96646">
        <ele>138.57</ele>
        <time>2013-08-11T06:44:47Z</time>
      </trkpt>
      <trkpt lat="44.58883" lon="0.9663">
        <ele>138.57</ele>
        <time>2013-08-11T06:44:52Z</time>
      </trkpt>
      <trkpt lat="44.58849" lon="0.96624">
        <ele>139.05</ele>
        <time>2013-08-11T06:45:00Z</time>
      </trkpt>
      <trkpt lat="44.58835" lon="0.96624">
        <ele>139.05</ele>
        <time>2013-08-11T06:45:03Z</time>
      </trkpt>
      <trkpt lat="44.58793" lon="0.96621">
        <ele>139.53</ele>
        <time>2013-08-11T06:45:12Z</time>
      </trkpt>
      <trkpt lat="44.58775" lon="0.96621">
        <ele>139.53</ele>
        <time>2013-08-11T06:45:16Z</time>
      </trkpt>
      <trkpt lat="44.58752" lon="0.96637">
        <ele>139.53</ele>
        <time>2013-08-11T06:45:21Z</time>
      </trkpt>
      <trkpt lat="44.58734" lon="0.96668">
        <ele>139.05</ele>
        <time>2013-08-11T06:45:26Z</time>
      </trkpt>
      <trkpt lat="44.58713" lon="0.96689">
        <ele>139.05</ele>
        <time>2013-08-11T06:45:32Z</time>
      </trkpt>
      <trkpt lat="44.58697" lon="0.96704">
        <ele>138.57</ele>
        <time>2013-08-11T06:45:36Z</time>
      </trkpt>
      <trkpt lat="44.58654" lon="0.96752">
        <ele>136.64</ele>
        <time>2013-08-11T06:45:47Z</time>
      </trkpt>
      <trkpt lat="44.58651" lon="0.96757">
        <ele>136.64</ele>
        <time>2013-08-11T06:45:48Z</time>
      </trkpt>
      <trkpt lat="44.58643" lon="0.9677">
        <ele>136.16</ele>
        <time>2013-08-11T06:45:50Z</time>
      </trkpt>
      <trkpt lat="44.58635" lon="0.96783">
        <ele>136.16</ele>
        <time>2013-08-11T06:45:52Z</time>
      </trkpt>
      <trkpt lat="44.58611" lon="0.96804">
        <ele>135.68</ele>
        <time>2013-08-11T06:45:57Z</time>
      </trkpt>
      <trkpt lat="44.58568" lon="0.96825">
        <ele>135.2</ele>
        <time>2013-08-11T06:46:06Z</time>
      </trkpt>
      <trkpt lat="44.58542" lon="0.96835">
        <ele>134.24</ele>
        <time>2013-08-11T06:46:12Z</time>
      </trkpt>
      <trkpt lat="44.58477" lon="0.96873">
        <ele>133.28</ele>
        <time>2013-08-11T06:46:24Z</time>
      </trkpt>
      <trkpt lat="44.58451" lon="0.96886">
        <ele>133.28</ele>
        <time>2013-08-11T06:46:29Z</time>
      </trkpt>
      <trkpt lat="44.58419" lon="0.96903">
        <ele>132.8</ele>
        <time>2013-08-11T06:46:35Z</time>
      </trkpt>
      <trkpt lat="44.58381" lon="0.96921">
        <ele>132.8</ele>
        <time>2013-08-11T06:46:42Z</time>
      </trkpt>
      <trkpt lat="44.58344" lon="0.96936">
        <ele>132.8</ele>
        <time>2013-08-11T06:46:49Z</time>
      </trkpt>
      <trkpt lat="44.58266" lon="0.96964">
        <ele>130.88</ele>
        <time>2013-08-11T06:47:01Z</time>
      </trkpt>
      <trkpt lat="44.58234" lon="0.96974">
        <ele>130.4</ele>
        <time>2013-08-11T06:47:07Z</time>
      </trkpt>
      <trkpt lat="44.58211" lon="0.96983">
        <ele>130.4</ele>
        <time>2013-08-11T06:47:11Z</time>
      </trkpt>
      <trkpt lat="44.58197" lon="0.96989">
        <ele>129.92</ele>
        <time>2013-08-11T06:47:14Z</time>
      </trkpt>
      <trkpt lat="44.58179" lon="0.97">
        <ele>129.92</ele>
        <time>2013-08-11T06:47:18Z</time>
      </trkpt>
      <trkpt lat="44.58127" lon="0.97012">
        <ele>130.4</ele>
        <time>2013-08-11T06:47:29Z</time>
      </trkpt>
      <trkpt lat="44.58055" lon="0.96986">
        <ele>129.92</ele>
        <time>2013-08-11T06:47:40Z</time>
      </trkpt>
      <trkpt lat="44.57985" lon="0.96957">
        <ele>128.95</ele>
        <time>2013-08-11T06:47:51Z</time>
      </trkpt>
      <trkpt lat="44.57943" lon="0.96968">
        <ele>127.99</ele>
        <time>2013-08-11T06:47:58Z</time>
      </trkpt>
      <trkpt lat="44.57931" lon="0.96965">
        <ele>127.51</ele>
        <time>2013-08-11T06:48:00Z</time>
      </trkpt>
      <trkpt lat="44.57919" lon="0.96962">
        <ele>127.03</ele>
        <time>2013-08-11T06:48:02Z</time>
      </trkpt>
      <trkpt lat="44.579" lon="0.96958">
        <ele>127.03</ele>
        <time>2013-08-11T06:48:05Z</time>
      </trkpt>
      <trkpt lat="44.57833" lon="0.96947">
        <ele>126.07</ele>
        <time>2013-08-11T06:48:15Z</time>
      </trkpt>
      <trkpt lat="44.57819" lon="0.96942">
        <ele>125.59</ele>
        <time>2013-08-11T06:48:17Z</time>
      </trkpt>
      <trkpt lat="44.5774" lon="0.96912">
        <ele>124.15</ele>
        <time>2013-08-11T06:48:29Z</time>
      </trkpt>
      <trkpt lat="44.57735" lon="0.96912">
        <ele>124.15</ele>
        <time>2013-08-11T06:48:30Z</time>
      </trkpt>
      <trkpt lat="44.57732" lon="0.96914">
        <ele>123.67</ele>
        <time>2013-08-11T06:48:31Z</time>
      </trkpt>
      <trkpt lat="44.57729" lon="0.96917">
        <ele>123.67</ele>
        <time>2013-08-11T06:48:32Z</time>
      </trkpt>
      <trkpt lat="44.57727" lon="0.96922">
        <ele>123.19</ele>
        <time>2013-08-11T06:48:33Z</time>
      </trkpt>
      <trkpt lat="44.57724" lon="0.96928">
        <ele>122.71</ele>
        <time>2013-08-11T06:48:34Z</time>
      </trkpt>
      <trkpt lat="44.57723" lon="0.96935">
        <ele>122.71</ele>
        <time>2013-08-11T06:48:35Z</time>
      </trkpt>
      <trkpt lat="44.57722" lon="0.96943">
        <ele>122.71</ele>
        <time>2013-08-11T06:48:36Z</time>
      </trkpt>
      <trkpt lat="44.57722" lon="0.96951">
        <ele>122.22</ele>
        <time>2013-08-11T06:48:37Z</time>
      </trkpt>
      <trkpt lat="44.57722" lon="0.96959">
        <ele>122.22</ele>
        <time>2013-08-11T06:48:38Z</time>
      </trkpt>
      <trkpt lat="44.57722" lon="0.96967">
        <ele>122.22</ele>
        <time>2013-08-11T06:48:39Z</time>
      </trkpt>
      <trkpt lat="44.57722" lon="0.96976">
        <ele>122.22</ele>
        <time>2013-08-11T06:48:40Z</time>
      </trkpt>
      <trkpt lat="44.57723" lon="0.97028">
        <ele>122.22</ele>
        <time>2013-08-11T06:48:46Z</time>
      </trkpt>
      <trkpt lat="44.57722" lon="0.97036">
        <ele>122.22</ele>
        <time>2013-08-11T06:48:47Z</time>
      </trkpt>
      <trkpt lat="44.57721" lon="0.97044">
        <ele>122.22</ele>
        <time>2013-08-11T06:48:48Z</time>
      </trkpt>
      <trkpt lat="44.57718" lon="0.97052">
        <ele>122.22</ele>
        <time>2013-08-11T06:48:49Z</time>
      </trkpt>
      <trkpt lat="44.57716" lon="0.97059">
        <ele>121.74</ele>
        <time>2013-08-11T06:48:50Z</time>
      </trkpt>
      <trkpt lat="44.57698" lon="0.97131">
        <ele>120.78</ele>
        <time>2013-08-11T06:49:02Z</time>
      </trkpt>
      <trkpt lat="44.57694" lon="0.97132">
        <ele>121.26</ele>
        <time>2013-08-11T06:49:03Z</time>
      </trkpt>
      <trkpt lat="44.57691" lon="0.9713">
        <ele>121.26</ele>
        <time>2013-08-11T06:49:04Z</time>
      </trkpt>
      <trkpt lat="44.57687" lon="0.97129">
        <ele>121.26</ele>
        <time>2013-08-11T06:49:05Z</time>
      </trkpt>
      <trkpt lat="44.57683" lon="0.97127">
        <ele>121.26</ele>
        <time>2013-08-11T06:49:06Z</time>
      </trkpt>
      <trkpt lat="44.5767" lon="0.97122">
        <ele>121.74</ele>
        <time>2013-08-11T06:49:09Z</time>
      </trkpt>
      <trkpt lat="44.57656" lon="0.97121">
        <ele>121.26</ele>
        <time>2013-08-11T06:49:12Z</time>
      </trkpt>
      <trkpt lat="44.5765" lon="0.97123">
        <ele>121.26</ele>
        <time>2013-08-11T06:49:13Z</time>
      </trkpt>
      <trkpt lat="44.57643" lon="0.97125">
        <ele>121.26</ele>
        <time>2013-08-11T06:49:14Z</time>
      </trkpt>
      <trkpt lat="44.57624" lon="0.97139">
        <ele>120.78</ele>
        <time>2013-08-11T06:49:18Z</time>
      </trkpt>
      <trkpt lat="44.57625" lon="0.97173">
        <ele>119.82</ele>
        <time>2013-08-11T06:49:23Z</time>
      </trkpt>
      <trkpt lat="44.57628" lon="0.97178">
        <ele>119.82</ele>
        <time>2013-08-11T06:49:24Z</time>
      </trkpt>
      <trkpt lat="44.57631" lon="0.9718">
        <ele>119.34</ele>
        <time>2013-08-11T06:49:25Z</time>
      </trkpt>
      <trkpt lat="44.57635" lon="0.97182">
        <ele>119.82</ele>
        <time>2013-08-11T06:49:26Z</time>
      </trkpt>
      <trkpt lat="44.57637" lon="0.97184">
        <ele>118.86</ele>
        <time>2013-08-11T06:49:27Z</time>
      </trkpt>
      <trkpt lat="44.57639" lon="0.97188">
        <ele>118.86</ele>
        <time>2013-08-11T06:49:28Z</time>
      </trkpt>
      <trkpt lat="44.57638" lon="0.97192">
        <ele>118.38</ele>
        <time>2013-08-11T06:49:29Z</time>
      </trkpt>
      <trkpt lat="44.57634" lon="0.97207">
        <ele>116.94</ele>
        <time>2013-08-11T06:49:32Z</time>
      </trkpt>
      <trkpt lat="44.57631" lon="0.97213">
        <ele>116.46</ele>
        <time>2013-08-11T06:49:33Z</time>
      </trkpt>
      <trkpt lat="44.5763" lon="0.9722">
        <ele>115.98</ele>
        <time>2013-08-11T06:49:34Z</time>
      </trkpt>
      <trkpt lat="44.5763" lon="0.97227">
        <ele>115.5</ele>
        <time>2013-08-11T06:49:35Z</time>
      </trkpt>
      <trkpt lat="44.57629" lon="0.97234">
        <ele>115.01</ele>
        <time>2013-08-11T06:49:36Z</time>
      </trkpt>
      <trkpt lat="44.57629" lon="0.97244">
        <ele>114.53</ele>
        <time>2013-08-11T06:49:38Z</time>
      </trkpt>
      <trkpt lat="44.57627" lon="0.97246">
        <ele>114.53</ele>
        <time>2013-08-11T06:49:39Z</time>
      </trkpt>
      <trkpt lat="44.57625" lon="0.97247">
        <ele>114.05</ele>
        <time>2013-08-11T06:49:40Z</time>
      </trkpt>
      <trkpt lat="44.57622" lon="0.97246">
        <ele>114.05</ele>
        <time>2013-08-11T06:49:41Z</time>
      </trkpt>
      <trkpt lat="44.57619" lon="0.97245">
        <ele>114.05</ele>
        <time>2013-08-11T06:49:42Z</time>
      </trkpt>
      <trkpt lat="44.57606" lon="0.97241">
        <ele>113.57</ele>
        <time>2013-08-11T06:49:45Z</time>
      </trkpt>
      <trkpt lat="44.57602" lon="0.9724">
        <ele>113.57</ele>
        <time>2013-08-11T06:49:46Z</time>
      </trkpt>
      <trkpt lat="44.57579" lon="0.9725">
        <ele>112.61</ele>
        <time>2013-08-11T06:49:51Z</time>
      </trkpt>
      <trkpt lat="44.57546" lon="0.97272">
        <ele>112.61</ele>
        <time>2013-08-11T06:49:58Z</time>
      </trkpt>
      <trkpt lat="44.57541" lon="0.97275">
        <ele>112.61</ele>
        <time>2013-08-11T06:49:59Z</time>
      </trkpt>
      <trkpt lat="44.57535" lon="0.97277">
        <ele>112.61</ele>
        <time>2013-08-11T06:50:00Z</time>
      </trkpt>
      <trkpt lat="44.57529" lon="0.97278">
        <ele>112.61</ele>
        <time>2013-08-11T06:50:01Z</time>
      </trkpt>
      <trkpt lat="44.57523" lon="0.97277">
        <ele>112.61</ele>
        <time>2013-08-11T06:50:02Z</time>
      </trkpt>
      <trkpt lat="44.57517" lon="0.97275">
        <ele>112.61</ele>
        <time>2013-08-11T06:50:03Z</time>
      </trkpt>
      <trkpt lat="44.57482" lon="0.97271">
        <ele>112.61</ele>
        <time>2013-08-11T06:50:09Z</time>
      </trkpt>
      <trkpt lat="44.57478" lon="0.97275">
        <ele>112.61</ele>
        <time>2013-08-11T06:50:10Z</time>
      </trkpt>
      <trkpt lat="44.57476" lon="0.97281">
        <ele>112.13</ele>
        <time>2013-08-11T06:50:11Z</time>
      </trkpt>
      <trkpt lat="44.57476" lon="0.97287">
        <ele>112.61</ele>
        <time>2013-08-11T06:50:12Z</time>
      </trkpt>
      <trkpt lat="44.57476" lon="0.97294">
        <ele>112.13</ele>
        <time>2013-08-11T06:50:13Z</time>
      </trkpt>
      <trkpt lat="44.57477" lon="0.973">
        <ele>112.13</ele>
        <time>2013-08-11T06:50:14Z</time>
      </trkpt>
      <trkpt lat="44.57478" lon="0.97307">
        <ele>112.13</ele>
        <time>2013-08-11T06:50:15Z</time>
      </trkpt>
      <trkpt lat="44.5748" lon="0.97316">
        <ele>111.65</ele>
        <time>2013-08-11T06:50:16Z</time>
      </trkpt>
      <trkpt lat="44.57483" lon="0.9734">
        <ele>111.17</ele>
        <time>2013-08-11T06:50:19Z</time>
      </trkpt>
      <trkpt lat="44.5749" lon="0.97426">
        <ele>109.73</ele>
        <time>2013-08-11T06:50:29Z</time>
      </trkpt>
      <trkpt lat="44.575" lon="0.97543">
        <ele>109.25</ele>
        <time>2013-08-11T06:50:43Z</time>
      </trkpt>
      <trkpt lat="44.57504" lon="0.97622">
        <ele>111.65</ele>
        <time>2013-08-11T06:50:57Z</time>
      </trkpt>
      <trkpt lat="44.57524" lon="0.97701">
        <ele>114.05</ele>
        <time>2013-08-11T06:51:12Z</time>
      </trkpt>
      <trkpt lat="44.57532" lon="0.97723">
        <ele>114.05</ele>
        <time>2013-08-11T06:51:16Z</time>
      </trkpt>
      <trkpt lat="44.5755" lon="0.97767">
        <ele>114.05</ele>
        <time>2013-08-11T06:51:24Z</time>
      </trkpt>
      <trkpt lat="44.57554" lon="0.97778">
        <ele>113.57</ele>
        <time>2013-08-11T06:51:26Z</time>
      </trkpt>
      <trkpt lat="44.57585" lon="0.97845">
        <ele>115.01</ele>
        <time>2013-08-11T06:51:40Z</time>
      </trkpt>
      <trkpt lat="44.57587" lon="0.97848">
        <ele>115.01</ele>
        <time>2013-08-11T06:51:41Z</time>
      </trkpt>
      <trkpt lat="44.57583" lon="0.9786">
        <ele>115.5</ele>
        <time>2013-08-11T06:51:45Z</time>
      </trkpt>
      <trkpt lat="44.57537" lon="0.97875">
        <ele>116.46</ele>
        <time>2013-08-11T06:51:59Z</time>
      </trkpt>
      <trkpt lat="44.57509" lon="0.97881">
        <ele>117.9</ele>
        <time>2013-08-11T06:52:06Z</time>
      </trkpt>
      <trkpt lat="44.57506" lon="0.9788">
        <ele>117.9</ele>
        <time>2013-08-11T06:52:07Z</time>
      </trkpt>
      <trkpt lat="44.57504" lon="0.97876">
        <ele>117.9</ele>
        <time>2013-08-11T06:52:08Z</time>
      </trkpt>
      <trkpt lat="44.57502" lon="0.97871">
        <ele>117.9</ele>
        <time>2013-08-11T06:52:09Z</time>
      </trkpt>
      <trkpt lat="44.575" lon="0.97865">
        <ele>118.38</ele>
        <time>2013-08-11T06:52:10Z</time>
      </trkpt>
      <trkpt lat="44.57474" lon="0.97798">
        <ele>121.26</ele>
        <time>2013-08-11T06:52:21Z</time>
      </trkpt>
      <trkpt lat="44.57472" lon="0.97792">
        <ele>121.74</ele>
        <time>2013-08-11T06:52:22Z</time>
      </trkpt>
      <trkpt lat="44.57465" lon="0.97774">
        <ele>122.22</ele>
        <time>2013-08-11T06:52:25Z</time>
      </trkpt>
      <trkpt lat="44.57436" lon="0.97692">
        <ele>122.71</ele>
        <time>2013-08-11T06:52:39Z</time>
      </trkpt>
      <trkpt lat="44.57433" lon="0.97688">
        <ele>122.71</ele>
        <time>2013-08-11T06:52:40Z</time>
      </trkpt>
      <trkpt lat="44.5743" lon="0.97688">
        <ele>123.19</ele>
        <time>2013-08-11T06:52:41Z</time>
      </trkpt>
      <trkpt lat="44.57427" lon="0.97689">
        <ele>123.19</ele>
        <time>2013-08-11T06:52:42Z</time>
      </trkpt>
      <trkpt lat="44.57424" lon="0.97691">
        <ele>123.19</ele>
        <time>2013-08-11T06:52:43Z</time>
      </trkpt>
      <trkpt lat="44.57422" lon="0.97695">
        <ele>123.67</ele>
        <time>2013-08-11T06:52:44Z</time>
      </trkpt>
      <trkpt lat="44.5742" lon="0.977">
        <ele>123.67</ele>
        <time>2013-08-11T06:52:45Z</time>
      </trkpt>
      <trkpt lat="44.574" lon="0.97741">
        <ele>125.59</ele>
        <time>2013-08-11T06:52:55Z</time>
      </trkpt>
      <trkpt lat="44.57386" lon="0.97779">
        <ele>127.03</ele>
        <time>2013-08-11T06:53:04Z</time>
      </trkpt>
      <trkpt lat="44.57379" lon="0.97832">
        <ele>129.43</ele>
        <time>2013-08-11T06:53:16Z</time>
      </trkpt>
      <trkpt lat="44.57381" lon="0.97879">
        <ele>132.32</ele>
        <time>2013-08-11T06:53:26Z</time>
      </trkpt>
      <trkpt lat="44.57379" lon="0.97882">
        <ele>132.8</ele>
        <time>2013-08-11T06:53:27Z</time>
      </trkpt>
      <trkpt lat="44.57377" lon="0.97884">
        <ele>133.28</ele>
        <time>2013-08-11T06:53:28Z</time>
      </trkpt>
      <trkpt lat="44.57375" lon="0.97885">
        <ele>134.24</ele>
        <time>2013-08-11T06:53:29Z</time>
      </trkpt>
      <trkpt lat="44.57374" lon="0.97885">
        <ele>134.72</ele>
        <time>2013-08-11T06:53:30Z</time>
      </trkpt>
      <trkpt lat="44.57371" lon="0.97886">
        <ele>135.68</ele>
        <time>2013-08-11T06:53:31Z</time>
      </trkpt>
      <trkpt lat="44.57354" lon="0.97905">
        <ele>137.61</ele>
        <time>2013-08-11T06:53:41Z</time>
      </trkpt>
      <trkpt lat="44.57346" lon="0.97941">
        <ele>140.01</ele>
        <time>2013-08-11T06:53:53Z</time>
      </trkpt>
      <trkpt lat="44.57344" lon="0.97954">
        <ele>140.49</ele>
        <time>2013-08-11T06:53:59Z</time>
      </trkpt>
      <trkpt lat="44.5734" lon="0.97976">
        <ele>141.93</ele>
        <time>2013-08-11T06:54:11Z</time>
      </trkpt>
      <trkpt lat="44.57338" lon="0.9798">
        <ele>142.89</ele>
        <time>2013-08-11T06:54:14Z</time>
      </trkpt>
      <trkpt lat="44.57337" lon="0.98009">
        <ele>146.74</ele>
        <time>2013-08-11T06:54:27Z</time>
      </trkpt>
      <trkpt lat="44.57335" lon="0.98022">
        <ele>149.14</ele>
        <time>2013-08-11T06:54:34Z</time>
      </trkpt>
      <trkpt lat="44.57333" lon="0.98031">
        <ele>150.1</ele>
        <time>2013-08-11T06:54:38Z</time>
      </trkpt>
      <trkpt lat="44.57327" lon="0.98066">
        <ele>153.47</ele>
        <time>2013-08-11T06:54:53Z</time>
      </trkpt>
      <trkpt lat="44.57322" lon="0.98101">
        <ele>157.31</ele>
        <time>2013-08-11T06:55:06Z</time>
      </trkpt>
      <trkpt lat="44.57317" lon="0.98141">
        <ele>155.39</ele>
        <time>2013-08-11T06:55:17Z</time>
      </trkpt>
      <trkpt lat="44.57303" lon="0.98184">
        <ele>155.39</ele>
        <time>2013-08-11T06:55:29Z</time>
      </trkpt>
      <trkpt lat="44.57289" lon="0.98225">
        <ele>156.35</ele>
        <time>2013-08-11T06:55:42Z</time>
      </trkpt>
      <trkpt lat="44.57273" lon="0.98231">
        <ele>163.08</ele>
        <time>2013-08-11T06:55:52Z</time>
      </trkpt>
      <trkpt lat="44.57263" lon="0.98237">
        <ele>167.89</ele>
        <time>2013-08-11T06:55:59Z</time>
      </trkpt>
      <trkpt lat="44.57255" lon="0.98235">
        <ele>171.73</ele>
        <time>2013-08-11T06:56:05Z</time>
      </trkpt>
      <trkpt lat="44.57228" lon="0.98227">
        <ele>175.58</ele>
        <time>2013-08-11T06:56:21Z</time>
      </trkpt>
      <trkpt lat="44.57197" lon="0.98223">
        <ele>177.98</ele>
        <time>2013-08-11T06:56:38Z</time>
      </trkpt>
      <trkpt lat="44.57172" lon="0.98217">
        <ele>180.87</ele>
        <time>2013-08-11T06:56:52Z</time>
      </trkpt>
      <trkpt lat="44.57142" lon="0.98213">
        <ele>181.35</ele>
        <time>2013-08-11T06:57:08Z</time>
      </trkpt>
      <trkpt lat="44.57112" lon="0.98211">
        <ele>183.75</ele>
        <time>2013-08-11T06:57:24Z</time>
      </trkpt>
      <trkpt lat="44.57076" lon="0.98207">
        <ele>186.15</ele>
        <time>2013-08-11T06:57:42Z</time>
      </trkpt>
      <trkpt lat="44.5705" lon="0.98205">
        <ele>190</ele>
        <time>2013-08-11T06:57:56Z</time>
      </trkpt>
      <trkpt lat="44.57048" lon="0.98207">
        <ele>190.48</ele>
        <time>2013-08-11T06:57:57Z</time>
      </trkpt>
      <trkpt lat="44.57047" lon="0.98209">
        <ele>190.48</ele>
        <time>2013-08-11T06:57:58Z</time>
      </trkpt>
      <trkpt lat="44.57045" lon="0.98211">
        <ele>190.96</ele>
        <time>2013-08-11T06:57:59Z</time>
      </trkpt>
      <trkpt lat="44.57043" lon="0.98212">
        <ele>190.96</ele>
        <time>2013-08-11T06:58:00Z</time>
      </trkpt>
      <trkpt lat="44.5703" lon="0.98201">
        <ele>192.88</ele>
        <time>2013-08-11T06:58:06Z</time>
      </trkpt>
      <trkpt lat="44.57022" lon="0.98195">
        <ele>192.88</ele>
        <time>2013-08-11T06:58:09Z</time>
      </trkpt>
      <trkpt lat="44.5701" lon="0.98173">
        <ele>190.48</ele>
        <time>2013-08-11T06:58:13Z</time>
      </trkpt>
      <trkpt lat="44.57002" lon="0.98125">
        <ele>185.67</ele>
        <time>2013-08-11T06:58:18Z</time>
      </trkpt>
      <trkpt lat="44.56998" lon="0.98073">
        <ele>182.31</ele>
        <time>2013-08-11T06:58:23Z</time>
      </trkpt>
      <trkpt lat="44.56983" lon="0.98016">
        <ele>177.98</ele>
        <time>2013-08-11T06:58:29Z</time>
      </trkpt>
      <trkpt lat="44.56961" lon="0.97988">
        <ele>175.58</ele>
        <time>2013-08-11T06:58:33Z</time>
      </trkpt>
      <trkpt lat="44.56939" lon="0.97966">
        <ele>174.14</ele>
        <time>2013-08-11T06:58:37Z</time>
      </trkpt>
      <trkpt lat="44.56918" lon="0.97934">
        <ele>171.25</ele>
        <time>2013-08-11T06:58:41Z</time>
      </trkpt>
      <trkpt lat="44.56908" lon="0.97913">
        <ele>168.85</ele>
        <time>2013-08-11T06:58:44Z</time>
      </trkpt>
      <trkpt lat="44.56892" lon="0.97911">
        <ele>166.45</ele>
        <time>2013-08-11T06:58:47Z</time>
      </trkpt>
      <trkpt lat="44.56869" lon="0.97904">
        <ele>165.48</ele>
        <time>2013-08-11T06:58:51Z</time>
      </trkpt>
      <trkpt lat="44.56832" lon="0.97892">
        <ele>170.77</ele>
        <time>2013-08-11T06:59:03Z</time>
      </trkpt>
      <trkpt lat="44.56814" lon="0.9785">
        <ele>167.41</ele>
        <time>2013-08-11T06:59:13Z</time>
      </trkpt>
      <trkpt lat="44.56813" lon="0.97826">
        <ele>166.93</ele>
        <time>2013-08-11T06:59:20Z</time>
      </trkpt>
      <trkpt lat="44.56789" lon="0.97826">
        <ele>169.81</ele>
        <time>2013-08-11T06:59:30Z</time>
      </trkpt>
      <trkpt lat="44.56769" lon="0.97817">
        <ele>176.54</ele>
        <time>2013-08-11T06:59:42Z</time>
      </trkpt>
      <trkpt lat="44.5675" lon="0.97813">
        <ele>187.11</ele>
        <time>2013-08-11T06:59:56Z</time>
      </trkpt>
      <trkpt lat="44.56743" lon="0.97809">
        <ele>190.48</ele>
        <time>2013-08-11T07:00:03Z</time>
      </trkpt>
      <trkpt lat="44.56738" lon="0.97802">
        <ele>191.44</ele>
        <time>2013-08-11T07:00:08Z</time>
      </trkpt>
      <trkpt lat="44.56735" lon="0.97795">
        <ele>193.84</ele>
        <time>2013-08-11T07:00:12Z</time>
      </trkpt>
      <trkpt lat="44.56736" lon="0.97769">
        <ele>194.32</ele>
        <time>2013-08-11T07:00:25Z</time>
      </trkpt>
      <trkpt lat="44.56731" lon="0.9776">
        <ele>194.8</ele>
        <time>2013-08-11T07:00:29Z</time>
      </trkpt>
      <trkpt lat="44.56719" lon="0.97743">
        <ele>197.21</ele>
        <time>2013-08-11T07:00:41Z</time>
      </trkpt>
      <trkpt lat="44.56713" lon="0.97734">
        <ele>198.17</ele>
        <time>2013-08-11T07:00:47Z</time>
      </trkpt>
      <trkpt lat="44.56694" lon="0.97734">
        <ele>196.73</ele>
        <time>2013-08-11T07:01:01Z</time>
      </trkpt>
      <trkpt lat="44.56676" lon="0.97733">
        <ele>200.57</ele>
        <time>2013-08-11T07:01:15Z</time>
      </trkpt>
      <trkpt lat="44.5666" lon="0.97728">
        <ele>204.42</ele>
        <time>2013-08-11T07:01:29Z</time>
      </trkpt>
      <trkpt lat="44.56656" lon="0.97724">
        <ele>205.86</ele>
        <time>2013-08-11T07:01:33Z</time>
      </trkpt>
      <trkpt lat="44.56646" lon="0.97709">
        <ele>210.67</ele>
        <time>2013-08-11T07:01:45Z</time>
      </trkpt>
      <trkpt lat="44.56636" lon="0.97699">
        <ele>213.55</ele>
        <time>2013-08-11T07:01:56Z</time>
      </trkpt>
      <trkpt lat="44.56626" lon="0.97687">
        <ele>215.47</ele>
        <time>2013-08-11T07:02:08Z</time>
      </trkpt>
      <trkpt lat="44.56617" lon="0.97679">
        <ele>216.43</ele>
        <time>2013-08-11T07:02:21Z</time>
      </trkpt>
      <trkpt lat="44.5661" lon="0.97672">
        <ele>214.99</ele>
        <time>2013-08-11T07:02:35Z</time>
      </trkpt>
      <trkpt lat="44.566" lon="0.97662">
        <ele>216.91</ele>
        <time>2013-08-11T07:02:49Z</time>
      </trkpt>
      <trkpt lat="44.56596" lon="0.97657">
        <ele>218.36</ele>
        <time>2013-08-11T07:02:55Z</time>
      </trkpt>
      <trkpt lat="44.56584" lon="0.97647">
        <ele>223.16</ele>
        <time>2013-08-11T07:03:06Z</time>
      </trkpt>
      <trkpt lat="44.56577" lon="0.97639">
        <ele>223.16</ele>
        <time>2013-08-11T07:03:18Z</time>
      </trkpt>
      <trkpt lat="44.56571" lon="0.97635">
        <ele>223.64</ele>
        <time>2013-08-11T07:03:21Z</time>
      </trkpt>
      <trkpt lat="44.56554" lon="0.97626">
        <ele>225.09</ele>
        <time>2013-08-11T07:03:34Z</time>
      </trkpt>
      <trkpt lat="44.56549" lon="0.97629">
        <ele>227.01</ele>
        <time>2013-08-11T07:03:39Z</time>
      </trkpt>
      <trkpt lat="44.56548" lon="0.97632">
        <ele>227.49</ele>
        <time>2013-08-11T07:03:41Z</time>
      </trkpt>
      <trkpt lat="44.56543" lon="0.97638">
        <ele>228.45</ele>
        <time>2013-08-11T07:03:45Z</time>
      </trkpt>
      <trkpt lat="44.56536" lon="0.97643">
        <ele>230.37</ele>
        <time>2013-08-11T07:03:50Z</time>
      </trkpt>
      <trkpt lat="44.56505" lon="0.97641">
        <ele>233.26</ele>
        <time>2013-08-11T07:04:04Z</time>
      </trkpt>
      <trkpt lat="44.56474" lon="0.97643">
        <ele>234.22</ele>
        <time>2013-08-11T07:04:17Z</time>
      </trkpt>
      <trkpt lat="44.56434" lon="0.97644">
        <ele>231.81</ele>
        <time>2013-08-11T07:04:32Z</time>
      </trkpt>
      <trkpt lat="44.56399" lon="0.97656">
        <ele>232.78</ele>
        <time>2013-08-11T07:04:46Z</time>
      </trkpt>
      <trkpt lat="44.56366" lon="0.97676">
        <ele>227.01</ele>
        <time>2013-08-11T07:04:58Z</time>
      </trkpt>
      <trkpt lat="44.56334" lon="0.977">
        <ele>225.57</ele>
        <time>2013-08-11T07:05:12Z</time>
      </trkpt>
      <trkpt lat="44.56332" lon="0.97701">
        <ele>225.57</ele>
        <time>2013-08-11T07:05:13Z</time>
      </trkpt>
      <trkpt lat="44.5633" lon="0.97701">
        <ele>225.57</ele>
        <time>2013-08-11T07:05:14Z</time>
      </trkpt>
      <trkpt lat="44.56328" lon="0.97703">
        <ele>225.57</ele>
        <time>2013-08-11T07:05:15Z</time>
      </trkpt>
      <trkpt lat="44.56325" lon="0.97704">
        <ele>225.57</ele>
        <time>2013-08-11T07:05:16Z</time>
      </trkpt>
      <trkpt lat="44.56321" lon="0.97707">
        <ele>225.57</ele>
        <time>2013-08-11T07:05:17Z</time>
      </trkpt>
      <trkpt lat="44.56304" lon="0.97719">
        <ele>224.12</ele>
        <time>2013-08-11T07:05:21Z</time>
      </trkpt>
      <trkpt lat="44.56299" lon="0.97723">
        <ele>224.12</ele>
        <time>2013-08-11T07:05:22Z</time>
      </trkpt>
      <trkpt lat="44.56239" lon="0.97808">
        <ele>221.24</ele>
        <time>2013-08-11T07:05:36Z</time>
      </trkpt>
      <trkpt lat="44.56226" lon="0.9783">
        <ele>221.72</ele>
        <time>2013-08-11T07:05:40Z</time>
      </trkpt>
      <trkpt lat="44.56224" lon="0.97835">
        <ele>221.72</ele>
        <time>2013-08-11T07:05:41Z</time>
      </trkpt>
      <trkpt lat="44.56222" lon="0.97841">
        <ele>222.2</ele>
        <time>2013-08-11T07:05:42Z</time>
      </trkpt>
      <trkpt lat="44.56221" lon="0.97847">
        <ele>222.2</ele>
        <time>2013-08-11T07:05:43Z</time>
      </trkpt>
      <trkpt lat="44.56221" lon="0.97853">
        <ele>222.2</ele>
        <time>2013-08-11T07:05:44Z</time>
      </trkpt>
      <trkpt lat="44.56221" lon="0.97859">
        <ele>222.2</ele>
        <time>2013-08-11T07:05:45Z</time>
      </trkpt>
      <trkpt lat="44.5622" lon="0.97892">
        <ele>221.72</ele>
        <time>2013-08-11T07:05:50Z</time>
      </trkpt>
      <trkpt lat="44.5622" lon="0.97899">
        <ele>221.72</ele>
        <time>2013-08-11T07:05:51Z</time>
      </trkpt>
      <trkpt lat="44.56218" lon="0.9791">
        <ele>221.72</ele>
        <time>2013-08-11T07:05:53Z</time>
      </trkpt>
      <trkpt lat="44.56214" lon="0.97919">
        <ele>221.24</ele>
        <time>2013-08-11T07:05:55Z</time>
      </trkpt>
      <trkpt lat="44.56211" lon="0.97921">
        <ele>221.72</ele>
        <time>2013-08-11T07:05:56Z</time>
      </trkpt>
      <trkpt lat="44.56208" lon="0.97922">
        <ele>221.72</ele>
        <time>2013-08-11T07:05:57Z</time>
      </trkpt>
      <trkpt lat="44.56205" lon="0.97921">
        <ele>221.72</ele>
        <time>2013-08-11T07:05:58Z</time>
      </trkpt>
      <trkpt lat="44.56202" lon="0.97919">
        <ele>221.72</ele>
        <time>2013-08-11T07:05:59Z</time>
      </trkpt>
      <trkpt lat="44.56199" lon="0.97916">
        <ele>221.72</ele>
        <time>2013-08-11T07:06:00Z</time>
      </trkpt>
      <trkpt lat="44.56195" lon="0.97912">
        <ele>221.72</ele>
        <time>2013-08-11T07:06:01Z</time>
      </trkpt>
      <trkpt lat="44.56192" lon="0.97907">
        <ele>221.72</ele>
        <time>2013-08-11T07:06:02Z</time>
      </trkpt>
      <trkpt lat="44.56178" lon="0.9789">
        <ele>221.24</ele>
        <time>2013-08-11T07:06:05Z</time>
      </trkpt>
      <trkpt lat="44.56174" lon="0.97884">
        <ele>221.24</ele>
        <time>2013-08-11T07:06:06Z</time>
      </trkpt>
      <trkpt lat="44.5613" lon="0.97784">
        <ele>214.99</ele>
        <time>2013-08-11T07:06:15Z</time>
      </trkpt>
      <trkpt lat="44.56045" lon="0.97618">
        <ele>205.38</ele>
        <time>2013-08-11T07:06:29Z</time>
      </trkpt>
      <trkpt lat="44.55973" lon="0.975">
        <ele>202.49</ele>
        <time>2013-08-11T07:06:41Z</time>
      </trkpt>
      <trkpt lat="44.55961" lon="0.97474">
        <ele>202.98</ele>
        <time>2013-08-11T07:06:44Z</time>
      </trkpt>
      <trkpt lat="44.55958" lon="0.97465">
        <ele>202.98</ele>
        <time>2013-08-11T07:06:45Z</time>
      </trkpt>
      <trkpt lat="44.55956" lon="0.97456">
        <ele>202.98</ele>
        <time>2013-08-11T07:06:46Z</time>
      </trkpt>
      <trkpt lat="44.55955" lon="0.97447">
        <ele>203.46</ele>
        <time>2013-08-11T07:06:47Z</time>
      </trkpt>
      <trkpt lat="44.55954" lon="0.97438">
        <ele>203.46</ele>
        <time>2013-08-11T07:06:48Z</time>
      </trkpt>
      <trkpt lat="44.55954" lon="0.9743">
        <ele>203.46</ele>
        <time>2013-08-11T07:06:49Z</time>
      </trkpt>
      <trkpt lat="44.55953" lon="0.97413">
        <ele>203.46</ele>
        <time>2013-08-11T07:06:51Z</time>
      </trkpt>
      <trkpt lat="44.55951" lon="0.97406">
        <ele>203.46</ele>
        <time>2013-08-11T07:06:52Z</time>
      </trkpt>
      <trkpt lat="44.55948" lon="0.974">
        <ele>202.98</ele>
        <time>2013-08-11T07:06:53Z</time>
      </trkpt>
      <trkpt lat="44.55943" lon="0.97389">
        <ele>201.53</ele>
        <time>2013-08-11T07:06:55Z</time>
      </trkpt>
      <trkpt lat="44.55944" lon="0.97382">
        <ele>201.05</ele>
        <time>2013-08-11T07:06:56Z</time>
      </trkpt>
      <trkpt lat="44.55946" lon="0.97376">
        <ele>201.05</ele>
        <time>2013-08-11T07:06:57Z</time>
      </trkpt>
      <trkpt lat="44.5595" lon="0.9737">
        <ele>201.05</ele>
        <time>2013-08-11T07:06:58Z</time>
      </trkpt>
      <trkpt lat="44.55954" lon="0.97365">
        <ele>201.05</ele>
        <time>2013-08-11T07:06:59Z</time>
      </trkpt>
      <trkpt lat="44.55962" lon="0.97356">
        <ele>201.53</ele>
        <time>2013-08-11T07:07:01Z</time>
      </trkpt>
      <trkpt lat="44.55995" lon="0.97313">
        <ele>201.53</ele>
        <time>2013-08-11T07:07:09Z</time>
      </trkpt>
      <trkpt lat="44.56" lon="0.97307">
        <ele>201.53</ele>
        <time>2013-08-11T07:07:10Z</time>
      </trkpt>
      <trkpt lat="44.56004" lon="0.97301">
        <ele>201.53</ele>
        <time>2013-08-11T07:07:11Z</time>
      </trkpt>
      <trkpt lat="44.56073" lon="0.97211">
        <ele>204.9</ele>
        <time>2013-08-11T07:07:28Z</time>
      </trkpt>
      <trkpt lat="44.56083" lon="0.97193">
        <ele>205.38</ele>
        <time>2013-08-11T07:07:31Z</time>
      </trkpt>
      <trkpt lat="44.56085" lon="0.97186">
        <ele>205.38</ele>
        <time>2013-08-11T07:07:32Z</time>
      </trkpt>
      <trkpt lat="44.56087" lon="0.97179">
        <ele>205.38</ele>
        <time>2013-08-11T07:07:33Z</time>
      </trkpt>
      <trkpt lat="44.56089" lon="0.97171">
        <ele>205.38</ele>
        <time>2013-08-11T07:07:34Z</time>
      </trkpt>
      <trkpt lat="44.5609" lon="0.97164">
        <ele>205.86</ele>
        <time>2013-08-11T07:07:35Z</time>
      </trkpt>
      <trkpt lat="44.56091" lon="0.97156">
        <ele>206.34</ele>
        <time>2013-08-11T07:07:36Z</time>
      </trkpt>
      <trkpt lat="44.56093" lon="0.97149">
        <ele>206.34</ele>
        <time>2013-08-11T07:07:37Z</time>
      </trkpt>
      <trkpt lat="44.56118" lon="0.97049">
        <ele>208.74</ele>
        <time>2013-08-11T07:07:52Z</time>
      </trkpt>
      <trkpt lat="44.56147" lon="0.96947">
        <ele>209.7</ele>
        <time>2013-08-11T07:08:07Z</time>
      </trkpt>
      <trkpt lat="44.56154" lon="0.96922">
        <ele>210.67</ele>
        <time>2013-08-11T07:08:12Z</time>
      </trkpt>
      <trkpt lat="44.56154" lon="0.96918">
        <ele>210.67</ele>
        <time>2013-08-11T07:08:13Z</time>
      </trkpt>
      <trkpt lat="44.56153" lon="0.96913">
        <ele>210.67</ele>
        <time>2013-08-11T07:08:14Z</time>
      </trkpt>
      <trkpt lat="44.56141" lon="0.96901">
        <ele>210.19</ele>
        <time>2013-08-11T07:08:17Z</time>
      </trkpt>
      <trkpt lat="44.5611" lon="0.96866">
        <ele>212.11</ele>
        <time>2013-08-11T07:08:28Z</time>
      </trkpt>
      <trkpt lat="44.56087" lon="0.96845">
        <ele>220.28</ele>
        <time>2013-08-11T07:08:39Z</time>
      </trkpt>
      <trkpt lat="44.56084" lon="0.96841">
        <ele>221.72</ele>
        <time>2013-08-11T07:08:41Z</time>
      </trkpt>
      <trkpt lat="44.56079" lon="0.96833">
        <ele>224.61</ele>
        <time>2013-08-11T07:08:45Z</time>
      </trkpt>
      <trkpt lat="44.56061" lon="0.96787">
        <ele>225.57</ele>
        <time>2013-08-11T07:09:00Z</time>
      </trkpt>
      <trkpt lat="44.56062" lon="0.9676">
        <ele>227.97</ele>
        <time>2013-08-11T07:09:08Z</time>
      </trkpt>
      <trkpt lat="44.5605" lon="0.96735">
        <ele>229.89</ele>
        <time>2013-08-11T07:09:15Z</time>
      </trkpt>
      <trkpt lat="44.56016" lon="0.9669">
        <ele>234.7</ele>
        <time>2013-08-11T07:09:29Z</time>
      </trkpt>
      <trkpt lat="44.56003" lon="0.96656">
        <ele>240.95</ele>
        <time>2013-08-11T07:09:39Z</time>
      </trkpt>
      <trkpt lat="44.56002" lon="0.96652">
        <ele>241.43</ele>
        <time>2013-08-11T07:09:40Z</time>
      </trkpt>
      <trkpt lat="44.55993" lon="0.96644">
        <ele>241.91</ele>
        <time>2013-08-11T07:09:45Z</time>
      </trkpt>
      <trkpt lat="44.5597" lon="0.96648">
        <ele>241.43</ele>
        <time>2013-08-11T07:09:51Z</time>
      </trkpt>
      <trkpt lat="44.55932" lon="0.96634">
        <ele>241.91</ele>
        <time>2013-08-11T07:10:01Z</time>
      </trkpt>
      <trkpt lat="44.55912" lon="0.96619">
        <ele>241.43</ele>
        <time>2013-08-11T07:10:04Z</time>
      </trkpt>
      <trkpt lat="44.55871" lon="0.96597">
        <ele>239.02</ele>
        <time>2013-08-11T07:10:10Z</time>
      </trkpt>
      <trkpt lat="44.55828" lon="0.96551">
        <ele>227.97</ele>
        <time>2013-08-11T07:10:21Z</time>
      </trkpt>
      <trkpt lat="44.55806" lon="0.9651">
        <ele>216.91</ele>
        <time>2013-08-11T07:10:30Z</time>
      </trkpt>
      <trkpt lat="44.55804" lon="0.96505">
        <ele>215.95</ele>
        <time>2013-08-11T07:10:31Z</time>
      </trkpt>
      <trkpt lat="44.55766" lon="0.96421">
        <ele>201.53</ele>
        <time>2013-08-11T07:10:44Z</time>
      </trkpt>
      <trkpt lat="44.55736" lon="0.96365">
        <ele>191.44</ele>
        <time>2013-08-11T07:10:54Z</time>
      </trkpt>
      <trkpt lat="44.55718" lon="0.96324">
        <ele>187.11</ele>
        <time>2013-08-11T07:11:00Z</time>
      </trkpt>
      <trkpt lat="44.55714" lon="0.96318">
        <ele>186.63</ele>
        <time>2013-08-11T07:11:01Z</time>
      </trkpt>
      <trkpt lat="44.55709" lon="0.96315">
        <ele>186.15</ele>
        <time>2013-08-11T07:11:02Z</time>
      </trkpt>
      <trkpt lat="44.55703" lon="0.96313">
        <ele>186.15</ele>
        <time>2013-08-11T07:11:03Z</time>
      </trkpt>
      <trkpt lat="44.55697" lon="0.96312">
        <ele>186.15</ele>
        <time>2013-08-11T07:11:04Z</time>
      </trkpt>
      <trkpt lat="44.5569" lon="0.9631">
        <ele>186.15</ele>
        <time>2013-08-11T07:11:05Z</time>
      </trkpt>
      <trkpt lat="44.55673" lon="0.96303">
        <ele>185.19</ele>
        <time>2013-08-11T07:11:08Z</time>
      </trkpt>
      <trkpt lat="44.55661" lon="0.963">
        <ele>184.71</ele>
        <time>2013-08-11T07:11:10Z</time>
      </trkpt>
      <trkpt lat="44.55655" lon="0.96298">
        <ele>184.71</ele>
        <time>2013-08-11T07:11:11Z</time>
      </trkpt>
      <trkpt lat="44.55649" lon="0.96297">
        <ele>184.23</ele>
        <time>2013-08-11T07:11:12Z</time>
      </trkpt>
      <trkpt lat="44.55587" lon="0.96289">
        <ele>182.31</ele>
        <time>2013-08-11T07:11:20Z</time>
      </trkpt>
      <trkpt lat="44.5558" lon="0.96286">
        <ele>182.31</ele>
        <time>2013-08-11T07:11:21Z</time>
      </trkpt>
      <trkpt lat="44.55574" lon="0.9628">
        <ele>181.83</ele>
        <time>2013-08-11T07:11:22Z</time>
      </trkpt>
      <trkpt lat="44.55568" lon="0.96274">
        <ele>181.83</ele>
        <time>2013-08-11T07:11:23Z</time>
      </trkpt>
      <trkpt lat="44.55564" lon="0.96266">
        <ele>181.83</ele>
        <time>2013-08-11T07:11:24Z</time>
      </trkpt>
      <trkpt lat="44.55537" lon="0.96228">
        <ele>179.9</ele>
        <time>2013-08-11T07:11:30Z</time>
      </trkpt>
      <trkpt lat="44.55532" lon="0.96226">
        <ele>179.42</ele>
        <time>2013-08-11T07:11:31Z</time>
      </trkpt>
      <trkpt lat="44.55527" lon="0.96227">
        <ele>178.94</ele>
        <time>2013-08-11T07:11:32Z</time>
      </trkpt>
      <trkpt lat="44.55523" lon="0.9623">
        <ele>178.46</ele>
        <time>2013-08-11T07:11:33Z</time>
      </trkpt>
      <trkpt lat="44.55518" lon="0.96235">
        <ele>177.98</ele>
        <time>2013-08-11T07:11:34Z</time>
      </trkpt>
      <trkpt lat="44.55514" lon="0.96241">
        <ele>177.98</ele>
        <time>2013-08-11T07:11:35Z</time>
      </trkpt>
      <trkpt lat="44.55474" lon="0.96293">
        <ele>174.62</ele>
        <time>2013-08-11T07:11:44Z</time>
      </trkpt>
      <trkpt lat="44.55468" lon="0.96304">
        <ele>173.66</ele>
        <time>2013-08-11T07:11:46Z</time>
      </trkpt>
      <trkpt lat="44.55467" lon="0.96312">
        <ele>173.17</ele>
        <time>2013-08-11T07:11:47Z</time>
      </trkpt>
      <trkpt lat="44.55466" lon="0.96319">
        <ele>172.69</ele>
        <time>2013-08-11T07:11:48Z</time>
      </trkpt>
      <trkpt lat="44.55466" lon="0.96327">
        <ele>171.73</ele>
        <time>2013-08-11T07:11:49Z</time>
      </trkpt>
      <trkpt lat="44.55467" lon="0.96361">
        <ele>167.41</ele>
        <time>2013-08-11T07:11:54Z</time>
      </trkpt>
      <trkpt lat="44.55469" lon="0.96369">
        <ele>166.45</ele>
        <time>2013-08-11T07:11:55Z</time>
      </trkpt>
      <trkpt lat="44.55472" lon="0.96384">
        <ele>164.52</ele>
        <time>2013-08-11T07:11:57Z</time>
      </trkpt>
      <trkpt lat="44.55476" lon="0.96397">
        <ele>163.08</ele>
        <time>2013-08-11T07:11:59Z</time>
      </trkpt>
      <trkpt lat="44.55477" lon="0.96403">
        <ele>162.6</ele>
        <time>2013-08-11T07:12:00Z</time>
      </trkpt>
      <trkpt lat="44.55477" lon="0.9641">
        <ele>161.64</ele>
        <time>2013-08-11T07:12:01Z</time>
      </trkpt>
      <trkpt lat="44.55475" lon="0.96417">
        <ele>160.68</ele>
        <time>2013-08-11T07:12:02Z</time>
      </trkpt>
      <trkpt lat="44.55472" lon="0.96422">
        <ele>160.2</ele>
        <time>2013-08-11T07:12:03Z</time>
      </trkpt>
      <trkpt lat="44.55468" lon="0.96426">
        <ele>159.72</ele>
        <time>2013-08-11T07:12:04Z</time>
      </trkpt>
      <trkpt lat="44.55464" lon="0.9643">
        <ele>158.75</ele>
        <time>2013-08-11T07:12:05Z</time>
      </trkpt>
      <trkpt lat="44.55461" lon="0.96435">
        <ele>158.75</ele>
        <time>2013-08-11T07:12:06Z</time>
      </trkpt>
      <trkpt lat="44.55459" lon="0.96439">
        <ele>158.27</ele>
        <time>2013-08-11T07:12:07Z</time>
      </trkpt>
      <trkpt lat="44.55457" lon="0.96443">
        <ele>158.27</ele>
        <time>2013-08-11T07:12:08Z</time>
      </trkpt>
      <trkpt lat="44.55455" lon="0.96448">
        <ele>157.79</ele>
        <time>2013-08-11T07:12:09Z</time>
      </trkpt>
      <trkpt lat="44.55454" lon="0.96452">
        <ele>157.79</ele>
        <time>2013-08-11T07:12:10Z</time>
      </trkpt>
      <trkpt lat="44.55452" lon="0.96456">
        <ele>157.79</ele>
        <time>2013-08-11T07:12:11Z</time>
      </trkpt>
      <trkpt lat="44.55451" lon="0.9646">
        <ele>157.79</ele>
        <time>2013-08-11T07:12:12Z</time>
      </trkpt>
      <trkpt lat="44.55448" lon="0.96463">
        <ele>157.79</ele>
        <time>2013-08-11T07:12:13Z</time>
      </trkpt>
      <trkpt lat="44.55442" lon="0.96468">
        <ele>157.31</ele>
        <time>2013-08-11T07:12:14Z</time>
      </trkpt>
      <trkpt lat="44.55437" lon="0.96473">
        <ele>157.31</ele>
        <time>2013-08-11T07:12:15Z</time>
      </trkpt>
      <trkpt lat="44.55433" lon="0.96477">
        <ele>157.31</ele>
        <time>2013-08-11T07:12:16Z</time>
      </trkpt>
      <trkpt lat="44.55428" lon="0.96487">
        <ele>157.79</ele>
        <time>2013-08-11T07:12:18Z</time>
      </trkpt>
      <trkpt lat="44.55424" lon="0.96508">
        <ele>158.27</ele>
        <time>2013-08-11T07:12:22Z</time>
      </trkpt>
      <trkpt lat="44.55422" lon="0.96534">
        <ele>157.79</ele>
        <time>2013-08-11T07:12:26Z</time>
      </trkpt>
      <trkpt lat="44.55423" lon="0.96567">
        <ele>156.35</ele>
        <time>2013-08-11T07:12:32Z</time>
      </trkpt>
      <trkpt lat="44.55425" lon="0.9658">
        <ele>155.39</ele>
        <time>2013-08-11T07:12:34Z</time>
      </trkpt>
      <trkpt lat="44.55435" lon="0.96605">
        <ele>152.99</ele>
        <time>2013-08-11T07:12:39Z</time>
      </trkpt>
      <trkpt lat="44.55456" lon="0.96641">
        <ele>148.66</ele>
        <time>2013-08-11T07:12:48Z</time>
      </trkpt>
      <trkpt lat="44.55473" lon="0.96654">
        <ele>146.26</ele>
        <time>2013-08-11T07:12:53Z</time>
      </trkpt>
      <trkpt lat="44.5549" lon="0.9666">
        <ele>142.89</ele>
        <time>2013-08-11T07:13:01Z</time>
      </trkpt>
      <trkpt lat="44.55463" lon="0.9667">
        <ele>145.78</ele>
        <time>2013-08-11T07:13:12Z</time>
      </trkpt>
      <trkpt lat="44.55455" lon="0.9667">
        <ele>145.78</ele>
        <time>2013-08-11T07:13:14Z</time>
      </trkpt>
      <trkpt lat="44.55427" lon="0.96669">
        <ele>146.74</ele>
        <time>2013-08-11T07:13:21Z</time>
      </trkpt>
      <trkpt lat="44.55415" lon="0.96671">
        <ele>146.26</ele>
        <time>2013-08-11T07:13:24Z</time>
      </trkpt>
      <trkpt lat="44.554" lon="0.96674">
        <ele>146.26</ele>
        <time>2013-08-11T07:13:28Z</time>
      </trkpt>
      <trkpt lat="44.55379" lon="0.96679">
        <ele>146.74</ele>
        <time>2013-08-11T07:13:35Z</time>
      </trkpt>
      <trkpt lat="44.55346" lon="0.96695">
        <ele>145.78</ele>
        <time>2013-08-11T07:13:43Z</time>
      </trkpt>
      <trkpt lat="44.55344" lon="0.96697">
        <ele>145.3</ele>
        <time>2013-08-11T07:13:44Z</time>
      </trkpt>
      <trkpt lat="44.55344" lon="0.96705">
        <ele>145.3</ele>
        <time>2013-08-11T07:13:48Z</time>
      </trkpt>
      <trkpt lat="44.5534" lon="0.96712">
        <ele>146.26</ele>
        <time>2013-08-11T07:13:50Z</time>
      </trkpt>
      <trkpt lat="44.55336" lon="0.96715">
        <ele>146.74</ele>
        <time>2013-08-11T07:13:51Z</time>
      </trkpt>
      <trkpt lat="44.55332" lon="0.96718">
        <ele>147.22</ele>
        <time>2013-08-11T07:13:52Z</time>
      </trkpt>
      <trkpt lat="44.55295" lon="0.96776">
        <ele>151.06</ele>
        <time>2013-08-11T07:14:05Z</time>
      </trkpt>
      <trkpt lat="44.5529" lon="0.96793">
        <ele>151.54</ele>
        <time>2013-08-11T07:14:08Z</time>
      </trkpt>
      <trkpt lat="44.55275" lon="0.96824">
        <ele>151.54</ele>
        <time>2013-08-11T07:14:13Z</time>
      </trkpt>
      <trkpt lat="44.55251" lon="0.96858">
        <ele>152.51</ele>
        <time>2013-08-11T07:14:20Z</time>
      </trkpt>
      <trkpt lat="44.55236" lon="0.96876">
        <ele>153.47</ele>
        <time>2013-08-11T07:14:24Z</time>
      </trkpt>
      <trkpt lat="44.55223" lon="0.96891">
        <ele>153.95</ele>
        <time>2013-08-11T07:14:27Z</time>
      </trkpt>
      <trkpt lat="44.55203" lon="0.96925">
        <ele>152.51</ele>
        <time>2013-08-11T07:14:34Z</time>
      </trkpt>
      <trkpt lat="44.55196" lon="0.96965">
        <ele>151.54</ele>
        <time>2013-08-11T07:14:42Z</time>
      </trkpt>
      <trkpt lat="44.55216" lon="0.97043">
        <ele>147.7</ele>
        <time>2013-08-11T07:14:54Z</time>
      </trkpt>
      <trkpt lat="44.55218" lon="0.97048">
        <ele>147.22</ele>
        <time>2013-08-11T07:14:55Z</time>
      </trkpt>
      <trkpt lat="44.55207" lon="0.97077">
        <ele>147.7</ele>
        <time>2013-08-11T07:15:04Z</time>
      </trkpt>
      <trkpt lat="44.55178" lon="0.97099">
        <ele>151.06</ele>
        <time>2013-08-11T07:15:15Z</time>
      </trkpt>
      <trkpt lat="44.55163" lon="0.97143">
        <ele>152.99</ele>
        <time>2013-08-11T07:15:24Z</time>
      </trkpt>
      <trkpt lat="44.55151" lon="0.97179">
        <ele>158.27</ele>
        <time>2013-08-11T07:15:35Z</time>
      </trkpt>
      <trkpt lat="44.55149" lon="0.97197">
        <ele>159.24</ele>
        <time>2013-08-11T07:15:41Z</time>
      </trkpt>
      <trkpt lat="44.55147" lon="0.97221">
        <ele>159.24</ele>
        <time>2013-08-11T07:15:48Z</time>
      </trkpt>
      <trkpt lat="44.55144" lon="0.9725">
        <ele>161.16</ele>
        <time>2013-08-11T07:15:57Z</time>
      </trkpt>
      <trkpt lat="44.55148" lon="0.97273">
        <ele>160.68</ele>
        <time>2013-08-11T07:16:04Z</time>
      </trkpt>
      <trkpt lat="44.55147" lon="0.97292">
        <ele>162.12</ele>
        <time>2013-08-11T07:16:10Z</time>
      </trkpt>
      <trkpt lat="44.55148" lon="0.97298">
        <ele>162.6</ele>
        <time>2013-08-11T07:16:12Z</time>
      </trkpt>
      <trkpt lat="44.55147" lon="0.97346">
        <ele>166.93</ele>
        <time>2013-08-11T07:16:25Z</time>
      </trkpt>
      <trkpt lat="44.55141" lon="0.97381">
        <ele>166.93</ele>
        <time>2013-08-11T07:16:36Z</time>
      </trkpt>
      <trkpt lat="44.55134" lon="0.97415">
        <ele>172.21</ele>
        <time>2013-08-11T07:16:49Z</time>
      </trkpt>
      <trkpt lat="44.55132" lon="0.97418">
        <ele>172.69</ele>
        <time>2013-08-11T07:16:51Z</time>
      </trkpt>
      <trkpt lat="44.55131" lon="0.9743">
        <ele>174.14</ele>
        <time>2013-08-11T07:16:55Z</time>
      </trkpt>
      <trkpt lat="44.55122" lon="0.97444">
        <ele>174.62</ele>
        <time>2013-08-11T07:17:04Z</time>
      </trkpt>
      <trkpt lat="44.55122" lon="0.97461">
        <ele>174.14</ele>
        <time>2013-08-11T07:17:08Z</time>
      </trkpt>
      <trkpt lat="44.55122" lon="0.97475">
        <ele>172.69</ele>
        <time>2013-08-11T07:17:12Z</time>
      </trkpt>
      <trkpt lat="44.55131" lon="0.97493">
        <ele>172.69</ele>
        <time>2013-08-11T07:17:16Z</time>
      </trkpt>
      <trkpt lat="44.55138" lon="0.97505">
        <ele>173.17</ele>
        <time>2013-08-11T07:17:19Z</time>
      </trkpt>
      <trkpt lat="44.55144" lon="0.9752">
        <ele>173.17</ele>
        <time>2013-08-11T07:17:24Z</time>
      </trkpt>
      <trkpt lat="44.55141" lon="0.97556">
        <ele>172.21</ele>
        <time>2013-08-11T07:17:36Z</time>
      </trkpt>
      <trkpt lat="44.55141" lon="0.97568">
        <ele>170.77</ele>
        <time>2013-08-11T07:17:39Z</time>
      </trkpt>
      <trkpt lat="44.55149" lon="0.97603">
        <ele>170.29</ele>
        <time>2013-08-11T07:17:44Z</time>
      </trkpt>
      <trkpt lat="44.55155" lon="0.97627">
        <ele>170.29</ele>
        <time>2013-08-11T07:17:48Z</time>
      </trkpt>
      <trkpt lat="44.55161" lon="0.97662">
        <ele>172.21</ele>
        <time>2013-08-11T07:17:56Z</time>
      </trkpt>
      <trkpt lat="44.55164" lon="0.97677">
        <ele>172.69</ele>
        <time>2013-08-11T07:18:00Z</time>
      </trkpt>
      <trkpt lat="44.55178" lon="0.97709">
        <ele>171.73</ele>
        <time>2013-08-11T07:18:07Z</time>
      </trkpt>
      <trkpt lat="44.55205" lon="0.97734">
        <ele>171.25</ele>
        <time>2013-08-11T07:18:15Z</time>
      </trkpt>
      <trkpt lat="44.55234" lon="0.97757">
        <ele>173.17</ele>
        <time>2013-08-11T07:18:24Z</time>
      </trkpt>
      <trkpt lat="44.55262" lon="0.97794">
        <ele>176.06</ele>
        <time>2013-08-11T07:18:36Z</time>
      </trkpt>
      <trkpt lat="44.55286" lon="0.97829">
        <ele>178.46</ele>
        <time>2013-08-11T07:18:47Z</time>
      </trkpt>
      <trkpt lat="44.55292" lon="0.97867">
        <ele>180.38</ele>
        <time>2013-08-11T07:18:57Z</time>
      </trkpt>
      <trkpt lat="44.55292" lon="0.97871">
        <ele>180.87</ele>
        <time>2013-08-11T07:18:58Z</time>
      </trkpt>
      <trkpt lat="44.5529" lon="0.9789">
        <ele>181.35</ele>
        <time>2013-08-11T07:19:03Z</time>
      </trkpt>
      <trkpt lat="44.55289" lon="0.97921">
        <ele>182.79</ele>
        <time>2013-08-11T07:19:08Z</time>
      </trkpt>
      <trkpt lat="44.55284" lon="0.97973">
        <ele>182.31</ele>
        <time>2013-08-11T07:19:15Z</time>
      </trkpt>
      <trkpt lat="44.55294" lon="0.98005">
        <ele>183.27</ele>
        <time>2013-08-11T07:19:21Z</time>
      </trkpt>
      <trkpt lat="44.55324" lon="0.98046">
        <ele>182.31</ele>
        <time>2013-08-11T07:19:32Z</time>
      </trkpt>
      <trkpt lat="44.55356" lon="0.98101">
        <ele>180.38</ele>
        <time>2013-08-11T07:19:45Z</time>
      </trkpt>
      <trkpt lat="44.55377" lon="0.98164">
        <ele>184.23</ele>
        <time>2013-08-11T07:19:59Z</time>
      </trkpt>
      <trkpt lat="44.55388" lon="0.98215">
        <ele>181.83</ele>
        <time>2013-08-11T07:20:09Z</time>
      </trkpt>
      <trkpt lat="44.55386" lon="0.98228">
        <ele>177.5</ele>
        <time>2013-08-11T07:20:18Z</time>
      </trkpt>
      <trkpt lat="44.55384" lon="0.98235">
        <ele>176.06</ele>
        <time>2013-08-11T07:20:24Z</time>
      </trkpt>
      <trkpt lat="44.55383" lon="0.98241">
        <ele>175.58</ele>
        <time>2013-08-11T07:20:28Z</time>
      </trkpt>
      <trkpt lat="44.55397" lon="0.98254">
        <ele>175.1</ele>
        <time>2013-08-11T07:20:35Z</time>
      </trkpt>
      <trkpt lat="44.55425" lon="0.98287">
        <ele>177.5</ele>
        <time>2013-08-11T07:20:49Z</time>
      </trkpt>
      <trkpt lat="44.55434" lon="0.9832">
        <ele>178.46</ele>
        <time>2013-08-11T07:21:01Z</time>
      </trkpt>
      <trkpt lat="44.55451" lon="0.98354">
        <ele>180.38</ele>
        <time>2013-08-11T07:21:14Z</time>
      </trkpt>
      <trkpt lat="44.55471" lon="0.98393">
        <ele>183.75</ele>
        <time>2013-08-11T07:21:32Z</time>
      </trkpt>
      <trkpt lat="44.55483" lon="0.9843">
        <ele>185.19</ele>
        <time>2013-08-11T07:21:45Z</time>
      </trkpt>
      <trkpt lat="44.55508" lon="0.98472">
        <ele>185.19</ele>
        <time>2013-08-11T07:21:57Z</time>
      </trkpt>
      <trkpt lat="44.55545" lon="0.9851">
        <ele>184.71</ele>
        <time>2013-08-11T07:22:12Z</time>
      </trkpt>
      <trkpt lat="44.55574" lon="0.98549">
        <ele>185.19</ele>
        <time>2013-08-11T07:22:26Z</time>
      </trkpt>
      <trkpt lat="44.55603" lon="0.98579">
        <ele>188.56</ele>
        <time>2013-08-11T07:22:40Z</time>
      </trkpt>
      <trkpt lat="44.55605" lon="0.98582">
        <ele>188.56</ele>
        <time>2013-08-11T07:22:41Z</time>
      </trkpt>
      <trkpt lat="44.55631" lon="0.98607">
        <ele>188.56</ele>
        <time>2013-08-11T07:22:52Z</time>
      </trkpt>
      <trkpt lat="44.55633" lon="0.9861">
        <ele>188.56</ele>
        <time>2013-08-11T07:22:53Z</time>
      </trkpt>
      <trkpt lat="44.55652" lon="0.98638">
        <ele>188.56</ele>
        <time>2013-08-11T07:23:02Z</time>
      </trkpt>
      <trkpt lat="44.55668" lon="0.98685">
        <ele>191.92</ele>
        <time>2013-08-11T07:23:14Z</time>
      </trkpt>
      <trkpt lat="44.55685" lon="0.98719">
        <ele>193.36</ele>
        <time>2013-08-11T07:23:23Z</time>
      </trkpt>
      <trkpt lat="44.55691" lon="0.98728">
        <ele>195.28</ele>
        <time>2013-08-11T07:23:27Z</time>
      </trkpt>
      <trkpt lat="44.55692" lon="0.98731">
        <ele>195.77</ele>
        <time>2013-08-11T07:23:28Z</time>
      </trkpt>
      <trkpt lat="44.55693" lon="0.98734">
        <ele>196.25</ele>
        <time>2013-08-11T07:23:29Z</time>
      </trkpt>
      <trkpt lat="44.55694" lon="0.98736">
        <ele>196.73</ele>
        <time>2013-08-11T07:23:30Z</time>
      </trkpt>
      <trkpt lat="44.55694" lon="0.98739">
        <ele>197.21</ele>
        <time>2013-08-11T07:23:31Z</time>
      </trkpt>
      <trkpt lat="44.55695" lon="0.98741">
        <ele>197.69</ele>
        <time>2013-08-11T07:23:32Z</time>
      </trkpt>
      <trkpt lat="44.55695" lon="0.98743">
        <ele>198.17</ele>
        <time>2013-08-11T07:23:33Z</time>
      </trkpt>
      <trkpt lat="44.55709" lon="0.98767">
        <ele>202.98</ele>
        <time>2013-08-11T07:23:42Z</time>
      </trkpt>
      <trkpt lat="44.55738" lon="0.98812">
        <ele>209.7</ele>
        <time>2013-08-11T07:23:53Z</time>
      </trkpt>
      <trkpt lat="44.55769" lon="0.98838">
        <ele>210.19</ele>
        <time>2013-08-11T07:24:02Z</time>
      </trkpt>
      <trkpt lat="44.558" lon="0.98844">
        <ele>208.74</ele>
        <time>2013-08-11T07:24:11Z</time>
      </trkpt>
      <trkpt lat="44.55806" lon="0.98847">
        <ele>207.3</ele>
        <time>2013-08-11T07:24:13Z</time>
      </trkpt>
      <trkpt lat="44.55808" lon="0.98849">
        <ele>207.3</ele>
        <time>2013-08-11T07:24:14Z</time>
      </trkpt>
      <trkpt lat="44.5581" lon="0.98851">
        <ele>206.82</ele>
        <time>2013-08-11T07:24:15Z</time>
      </trkpt>
      <trkpt lat="44.55813" lon="0.98853">
        <ele>206.82</ele>
        <time>2013-08-11T07:24:16Z</time>
      </trkpt>
      <trkpt lat="44.55815" lon="0.98856">
        <ele>206.82</ele>
        <time>2013-08-11T07:24:17Z</time>
      </trkpt>
      <trkpt lat="44.55817" lon="0.98859">
        <ele>206.82</ele>
        <time>2013-08-11T07:24:18Z</time>
      </trkpt>
      <trkpt lat="44.55839" lon="0.98892">
        <ele>211.15</ele>
        <time>2013-08-11T07:24:30Z</time>
      </trkpt>
      <trkpt lat="44.55849" lon="0.98911">
        <ele>215.47</ele>
        <time>2013-08-11T07:24:37Z</time>
      </trkpt>
      <trkpt lat="44.55865" lon="0.98938">
        <ele>220.76</ele>
        <time>2013-08-11T07:24:46Z</time>
      </trkpt>
      <trkpt lat="44.55869" lon="0.9895">
        <ele>221.24</ele>
        <time>2013-08-11T07:24:51Z</time>
      </trkpt>
      <trkpt lat="44.5588" lon="0.98955">
        <ele>223.16</ele>
        <time>2013-08-11T07:24:56Z</time>
      </trkpt>
      <trkpt lat="44.55883" lon="0.98959">
        <ele>224.61</ele>
        <time>2013-08-11T07:24:58Z</time>
      </trkpt>
      <trkpt lat="44.55882" lon="0.98963">
        <ele>224.61</ele>
        <time>2013-08-11T07:24:59Z</time>
      </trkpt>
      <trkpt lat="44.5588" lon="0.98967">
        <ele>225.09</ele>
        <time>2013-08-11T07:25:00Z</time>
      </trkpt>
      <trkpt lat="44.55878" lon="0.98971">
        <ele>225.09</ele>
        <time>2013-08-11T07:25:01Z</time>
      </trkpt>
      <trkpt lat="44.55877" lon="0.98976">
        <ele>225.09</ele>
        <time>2013-08-11T07:25:02Z</time>
      </trkpt>
      <trkpt lat="44.55876" lon="0.98982">
        <ele>225.09</ele>
        <time>2013-08-11T07:25:03Z</time>
      </trkpt>
      <trkpt lat="44.55875" lon="0.98987">
        <ele>225.09</ele>
        <time>2013-08-11T07:25:04Z</time>
      </trkpt>
      <trkpt lat="44.55875" lon="0.98992">
        <ele>225.09</ele>
        <time>2013-08-11T07:25:05Z</time>
      </trkpt>
      <trkpt lat="44.55874" lon="0.98999">
        <ele>224.61</ele>
        <time>2013-08-11T07:25:06Z</time>
      </trkpt>
      <trkpt lat="44.55875" lon="0.99006">
        <ele>224.12</ele>
        <time>2013-08-11T07:25:07Z</time>
      </trkpt>
      <trkpt lat="44.55883" lon="0.9909">
        <ele>222.2</ele>
        <time>2013-08-11T07:25:19Z</time>
      </trkpt>
      <trkpt lat="44.55886" lon="0.99117">
        <ele>221.72</ele>
        <time>2013-08-11T07:25:23Z</time>
      </trkpt>
      <trkpt lat="44.55889" lon="0.99151">
        <ele>221.72</ele>
        <time>2013-08-11T07:25:28Z</time>
      </trkpt>
      <trkpt lat="44.5589" lon="0.99158">
        <ele>221.24</ele>
        <time>2013-08-11T07:25:29Z</time>
      </trkpt>
      <trkpt lat="44.55894" lon="0.99186">
        <ele>220.76</ele>
        <time>2013-08-11T07:25:33Z</time>
      </trkpt>
      <trkpt lat="44.55896" lon="0.9921">
        <ele>219.32</ele>
        <time>2013-08-11T07:25:36Z</time>
      </trkpt>
      <trkpt lat="44.55893" lon="0.99216">
        <ele>217.4</ele>
        <time>2013-08-11T07:25:39Z</time>
      </trkpt>
      <trkpt lat="44.55876" lon="0.9921">
        <ele>221.24</ele>
        <time>2013-08-11T07:25:50Z</time>
      </trkpt>
      <trkpt lat="44.55846" lon="0.99199">
        <ele>230.85</ele>
        <time>2013-08-11T07:26:04Z</time>
      </trkpt>
      <trkpt lat="44.55819" lon="0.9918">
        <ele>237.1</ele>
        <time>2013-08-11T07:26:16Z</time>
      </trkpt>
      <trkpt lat="44.5579" lon="0.99159">
        <ele>239.51</ele>
        <time>2013-08-11T07:26:25Z</time>
      </trkpt>
      <trkpt lat="44.55767" lon="0.99132">
        <ele>239.99</ele>
        <time>2013-08-11T07:26:31Z</time>
      </trkpt>
      <trkpt lat="44.55751" lon="0.99111">
        <ele>239.51</ele>
        <time>2013-08-11T07:26:35Z</time>
      </trkpt>
      <trkpt lat="44.55704" lon="0.99044">
        <ele>238.54</ele>
        <time>2013-08-11T07:26:45Z</time>
      </trkpt>
      <trkpt lat="44.55685" lon="0.99028">
        <ele>237.1</ele>
        <time>2013-08-11T07:26:49Z</time>
      </trkpt>
      <trkpt lat="44.55656" lon="0.99046">
        <ele>237.1</ele>
        <time>2013-08-11T07:26:57Z</time>
      </trkpt>
      <trkpt lat="44.55638" lon="0.99059">
        <ele>235.66</ele>
        <time>2013-08-11T07:27:00Z</time>
      </trkpt>
      <trkpt lat="44.55599" lon="0.99079">
        <ele>228.45</ele>
        <time>2013-08-11T07:27:06Z</time>
      </trkpt>
      <trkpt lat="44.55579" lon="0.99088">
        <ele>226.53</ele>
        <time>2013-08-11T07:27:09Z</time>
      </trkpt>
      <trkpt lat="44.55556" lon="0.99106">
        <ele>223.64</ele>
        <time>2013-08-11T07:27:13Z</time>
      </trkpt>
      <trkpt lat="44.55534" lon="0.99131">
        <ele>219.8</ele>
        <time>2013-08-11T07:27:17Z</time>
      </trkpt>
      <trkpt lat="44.55526" lon="0.99145">
        <ele>218.84</ele>
        <time>2013-08-11T07:27:19Z</time>
      </trkpt>
      <trkpt lat="44.55508" lon="0.99169">
        <ele>217.4</ele>
        <time>2013-08-11T07:27:23Z</time>
      </trkpt>
      <trkpt lat="44.5547" lon="0.99197">
        <ele>212.59</ele>
        <time>2013-08-11T07:27:29Z</time>
      </trkpt>
      <trkpt lat="44.55436" lon="0.99206">
        <ele>206.82</ele>
        <time>2013-08-11T07:27:34Z</time>
      </trkpt>
      <trkpt lat="44.55409" lon="0.99214">
        <ele>203.94</ele>
        <time>2013-08-11T07:27:38Z</time>
      </trkpt>
      <trkpt lat="44.55402" lon="0.99218">
        <ele>202.98</ele>
        <time>2013-08-11T07:27:39Z</time>
      </trkpt>
      <trkpt lat="44.55336" lon="0.9927">
        <ele>195.28</ele>
        <time>2013-08-11T07:27:48Z</time>
      </trkpt>
      <trkpt lat="44.5533" lon="0.99275">
        <ele>195.28</ele>
        <time>2013-08-11T07:27:49Z</time>
      </trkpt>
      <trkpt lat="44.55325" lon="0.99278">
        <ele>195.28</ele>
        <time>2013-08-11T07:27:50Z</time>
      </trkpt>
      <trkpt lat="44.5532" lon="0.99276">
        <ele>194.8</ele>
        <time>2013-08-11T07:27:51Z</time>
      </trkpt>
      <trkpt lat="44.55315" lon="0.99272">
        <ele>194.32</ele>
        <time>2013-08-11T07:27:52Z</time>
      </trkpt>
      <trkpt lat="44.55309" lon="0.99268">
        <ele>194.32</ele>
        <time>2013-08-11T07:27:53Z</time>
      </trkpt>
      <trkpt lat="44.55303" lon="0.99264">
        <ele>193.84</ele>
        <time>2013-08-11T07:27:54Z</time>
      </trkpt>
      <trkpt lat="44.55297" lon="0.99261">
        <ele>193.36</ele>
        <time>2013-08-11T07:27:55Z</time>
      </trkpt>
      <trkpt lat="44.5529" lon="0.99262">
        <ele>193.36</ele>
        <time>2013-08-11T07:27:56Z</time>
      </trkpt>
      <trkpt lat="44.55284" lon="0.99264">
        <ele>192.88</ele>
        <time>2013-08-11T07:27:57Z</time>
      </trkpt>
      <trkpt lat="44.55277" lon="0.99269">
        <ele>192.88</ele>
        <time>2013-08-11T07:27:58Z</time>
      </trkpt>
      <trkpt lat="44.5527" lon="0.99273">
        <ele>192.4</ele>
        <time>2013-08-11T07:27:59Z</time>
      </trkpt>
      <trkpt lat="44.55192" lon="0.99335">
        <ele>192.88</ele>
        <time>2013-08-11T07:28:13Z</time>
      </trkpt>
      <trkpt lat="44.55126" lon="0.99385">
        <ele>195.28</ele>
        <time>2013-08-11T07:28:27Z</time>
      </trkpt>
      <trkpt lat="44.55118" lon="0.99391">
        <ele>195.77</ele>
        <time>2013-08-11T07:28:29Z</time>
      </trkpt>
      <trkpt lat="44.55113" lon="0.99395">
        <ele>196.25</ele>
        <time>2013-08-11T07:28:30Z</time>
      </trkpt>
      <trkpt lat="44.55105" lon="0.99403">
        <ele>196.73</ele>
        <time>2013-08-11T07:28:32Z</time>
      </trkpt>
      <trkpt lat="44.551" lon="0.99406">
        <ele>197.21</ele>
        <time>2013-08-11T07:28:33Z</time>
      </trkpt>
      <trkpt lat="44.55091" lon="0.99412">
        <ele>198.17</ele>
        <time>2013-08-11T07:28:35Z</time>
      </trkpt>
      <trkpt lat="44.55083" lon="0.99419">
        <ele>198.65</ele>
        <time>2013-08-11T07:28:37Z</time>
      </trkpt>
      <trkpt lat="44.55038" lon="0.99445">
        <ele>202.01</ele>
        <time>2013-08-11T07:28:49Z</time>
      </trkpt>
      <trkpt lat="44.55001" lon="0.99481">
        <ele>202.49</ele>
        <time>2013-08-11T07:28:57Z</time>
      </trkpt>
      <trkpt lat="44.54996" lon="0.99484">
        <ele>202.01</ele>
        <time>2013-08-11T07:28:58Z</time>
      </trkpt>
      <trkpt lat="44.5499" lon="0.99487">
        <ele>201.53</ele>
        <time>2013-08-11T07:28:59Z</time>
      </trkpt>
      <trkpt lat="44.54984" lon="0.9949">
        <ele>201.53</ele>
        <time>2013-08-11T07:29:00Z</time>
      </trkpt>
      <trkpt lat="44.5498" lon="0.99495">
        <ele>201.05</ele>
        <time>2013-08-11T07:29:01Z</time>
      </trkpt>
      <trkpt lat="44.5493" lon="0.99588">
        <ele>196.25</ele>
        <time>2013-08-11T07:29:15Z</time>
      </trkpt>
      <trkpt lat="44.54904" lon="0.99657">
        <ele>192.88</ele>
        <time>2013-08-11T07:29:23Z</time>
      </trkpt>
      <trkpt lat="44.54883" lon="0.99717">
        <ele>191.44</ele>
        <time>2013-08-11T07:29:32Z</time>
      </trkpt>
      <trkpt lat="44.54884" lon="0.99716">
        <ele>191.44</ele>
        <time>2013-08-11T07:29:34Z</time>
      </trkpt>
      <trkpt lat="44.54898" lon="0.99718">
        <ele>192.4</ele>
        <time>2013-08-11T07:29:42Z</time>
      </trkpt>
      <trkpt lat="44.54896" lon="0.99743">
        <ele>192.4</ele>
        <time>2013-08-11T07:29:47Z</time>
      </trkpt>
      <trkpt lat="44.54895" lon="0.99756">
        <ele>192.4</ele>
        <time>2013-08-11T07:29:49Z</time>
      </trkpt>
      <trkpt lat="44.54897" lon="0.99797">
        <ele>192.88</ele>
        <time>2013-08-11T07:29:54Z</time>
      </trkpt>
      <trkpt lat="44.54892" lon="0.99832">
        <ele>193.84</ele>
        <time>2013-08-11T07:29:59Z</time>
      </trkpt>
      <trkpt lat="44.54889" lon="0.99854">
        <ele>193.84</ele>
        <time>2013-08-11T07:30:02Z</time>
      </trkpt>
      <trkpt lat="44.54888" lon="0.99887">
        <ele>193.84</ele>
        <time>2013-08-11T07:30:06Z</time>
      </trkpt>
      <trkpt lat="44.54886" lon="0.99903">
        <ele>193.36</ele>
        <time>2013-08-11T07:30:08Z</time>
      </trkpt>
      <trkpt lat="44.54885" lon="0.99964">
        <ele>192.4</ele>
        <time>2013-08-11T07:30:15Z</time>
      </trkpt>
      <trkpt lat="44.54889" lon="0.99973">
        <ele>191.92</ele>
        <time>2013-08-11T07:30:16Z</time>
      </trkpt>
      <trkpt lat="44.549" lon="1.00003">
        <ele>190.96</ele>
        <time>2013-08-11T07:30:19Z</time>
      </trkpt>
      <trkpt lat="44.54905" lon="1.00039">
        <ele>189.04</ele>
        <time>2013-08-11T07:30:23Z</time>
      </trkpt>
      <trkpt lat="44.54907" lon="1.00049">
        <ele>188.56</ele>
        <time>2013-08-11T07:30:24Z</time>
      </trkpt>
      <trkpt lat="44.54908" lon="1.00058">
        <ele>188.08</ele>
        <time>2013-08-11T07:30:25Z</time>
      </trkpt>
      <trkpt lat="44.5491" lon="1.00067">
        <ele>187.59</ele>
        <time>2013-08-11T07:30:26Z</time>
      </trkpt>
      <trkpt lat="44.54913" lon="1.00077">
        <ele>186.63</ele>
        <time>2013-08-11T07:30:27Z</time>
      </trkpt>
      <trkpt lat="44.54918" lon="1.00105">
        <ele>185.19</ele>
        <time>2013-08-11T07:30:30Z</time>
      </trkpt>
      <trkpt lat="44.54922" lon="1.0012">
        <ele>183.75</ele>
        <time>2013-08-11T07:30:32Z</time>
      </trkpt>
      <trkpt lat="44.54925" lon="1.00128">
        <ele>182.79</ele>
        <time>2013-08-11T07:30:33Z</time>
      </trkpt>
      <trkpt lat="44.54929" lon="1.00135">
        <ele>182.31</ele>
        <time>2013-08-11T07:30:34Z</time>
      </trkpt>
      <trkpt lat="44.54939" lon="1.00156">
        <ele>180.87</ele>
        <time>2013-08-11T07:30:37Z</time>
      </trkpt>
      <trkpt lat="44.54941" lon="1.00165">
        <ele>180.38</ele>
        <time>2013-08-11T07:30:38Z</time>
      </trkpt>
      <trkpt lat="44.54939" lon="1.00173">
        <ele>179.9</ele>
        <time>2013-08-11T07:30:39Z</time>
      </trkpt>
      <trkpt lat="44.54937" lon="1.00179">
        <ele>179.42</ele>
        <time>2013-08-11T07:30:40Z</time>
      </trkpt>
      <trkpt lat="44.54933" lon="1.00183">
        <ele>179.42</ele>
        <time>2013-08-11T07:30:41Z</time>
      </trkpt>
      <trkpt lat="44.54928" lon="1.00185">
        <ele>178.94</ele>
        <time>2013-08-11T07:30:42Z</time>
      </trkpt>
      <trkpt lat="44.54923" lon="1.00186">
        <ele>178.46</ele>
        <time>2013-08-11T07:30:43Z</time>
      </trkpt>
      <trkpt lat="44.54918" lon="1.00187">
        <ele>177.98</ele>
        <time>2013-08-11T07:30:44Z</time>
      </trkpt>
      <trkpt lat="44.54906" lon="1.00189">
        <ele>177.5</ele>
        <time>2013-08-11T07:30:46Z</time>
      </trkpt>
      <trkpt lat="44.5489" lon="1.00186">
        <ele>176.54</ele>
        <time>2013-08-11T07:30:49Z</time>
      </trkpt>
      <trkpt lat="44.54865" lon="1.00188">
        <ele>176.06</ele>
        <time>2013-08-11T07:30:53Z</time>
      </trkpt>
      <trkpt lat="44.54859" lon="1.00191">
        <ele>176.06</ele>
        <time>2013-08-11T07:30:54Z</time>
      </trkpt>
      <trkpt lat="44.54848" lon="1.00198">
        <ele>175.1</ele>
        <time>2013-08-11T07:30:56Z</time>
      </trkpt>
      <trkpt lat="44.54843" lon="1.00202">
        <ele>175.1</ele>
        <time>2013-08-11T07:30:57Z</time>
      </trkpt>
      <trkpt lat="44.54837" lon="1.00205">
        <ele>174.62</ele>
        <time>2013-08-11T07:30:58Z</time>
      </trkpt>
      <trkpt lat="44.5483" lon="1.00206">
        <ele>174.14</ele>
        <time>2013-08-11T07:30:59Z</time>
      </trkpt>
      <trkpt lat="44.54823" lon="1.00205">
        <ele>173.66</ele>
        <time>2013-08-11T07:31:00Z</time>
      </trkpt>
      <trkpt lat="44.54817" lon="1.00202">
        <ele>173.17</ele>
        <time>2013-08-11T07:31:01Z</time>
      </trkpt>
      <trkpt lat="44.5481" lon="1.00198">
        <ele>172.69</ele>
        <time>2013-08-11T07:31:02Z</time>
      </trkpt>
      <trkpt lat="44.54804" lon="1.00196">
        <ele>172.21</ele>
        <time>2013-08-11T07:31:03Z</time>
      </trkpt>
      <trkpt lat="44.54798" lon="1.00194">
        <ele>171.73</ele>
        <time>2013-08-11T07:31:04Z</time>
      </trkpt>
      <trkpt lat="44.54792" lon="1.00194">
        <ele>171.25</ele>
        <time>2013-08-11T07:31:05Z</time>
      </trkpt>
      <trkpt lat="44.54786" lon="1.00194">
        <ele>171.25</ele>
        <time>2013-08-11T07:31:06Z</time>
      </trkpt>
      <trkpt lat="44.5478" lon="1.00196">
        <ele>170.77</ele>
        <time>2013-08-11T07:31:07Z</time>
      </trkpt>
      <trkpt lat="44.54775" lon="1.00199">
        <ele>170.77</ele>
        <time>2013-08-11T07:31:08Z</time>
      </trkpt>
      <trkpt lat="44.5477" lon="1.00204">
        <ele>170.29</ele>
        <time>2013-08-11T07:31:09Z</time>
      </trkpt>
      <trkpt lat="44.54766" lon="1.00209">
        <ele>169.81</ele>
        <time>2013-08-11T07:31:10Z</time>
      </trkpt>
      <trkpt lat="44.54749" lon="1.00238">
        <ele>169.33</ele>
        <time>2013-08-11T07:31:15Z</time>
      </trkpt>
      <trkpt lat="44.54745" lon="1.00253">
        <ele>168.37</ele>
        <time>2013-08-11T07:31:17Z</time>
      </trkpt>
      <trkpt lat="44.5474" lon="1.0032">
        <ele>165.96</ele>
        <time>2013-08-11T07:31:24Z</time>
      </trkpt>
      <trkpt lat="44.54733" lon="1.00353">
        <ele>166.45</ele>
        <time>2013-08-11T07:31:28Z</time>
      </trkpt>
      <trkpt lat="44.5471" lon="1.00385">
        <ele>167.89</ele>
        <time>2013-08-11T07:31:34Z</time>
      </trkpt>
      <trkpt lat="44.54698" lon="1.00406">
        <ele>170.29</ele>
        <time>2013-08-11T07:31:38Z</time>
      </trkpt>
      <trkpt lat="44.54683" lon="1.00456">
        <ele>177.02</ele>
        <time>2013-08-11T07:31:51Z</time>
      </trkpt>
      <trkpt lat="44.54674" lon="1.00487">
        <ele>178.46</ele>
        <time>2013-08-11T07:31:58Z</time>
      </trkpt>
      <trkpt lat="44.5467" lon="1.00499">
        <ele>178.94</ele>
        <time>2013-08-11T07:32:00Z</time>
      </trkpt>
      <trkpt lat="44.54652" lon="1.00586">
        <ele>175.58</ele>
        <time>2013-08-11T07:32:09Z</time>
      </trkpt>
      <trkpt lat="44.5465" lon="1.00636">
        <ele>173.17</ele>
        <time>2013-08-11T07:32:15Z</time>
      </trkpt>
      <trkpt lat="44.54636" lon="1.00669">
        <ele>173.17</ele>
        <time>2013-08-11T07:32:21Z</time>
      </trkpt>
      <trkpt lat="44.54617" lon="1.00684">
        <ele>172.69</ele>
        <time>2013-08-11T07:32:26Z</time>
      </trkpt>
      <trkpt lat="44.54569" lon="1.00727">
        <ele>167.41</ele>
        <time>2013-08-11T07:32:36Z</time>
      </trkpt>
      <trkpt lat="44.54557" lon="1.00738">
        <ele>165.96</ele>
        <time>2013-08-11T07:32:38Z</time>
      </trkpt>
      <trkpt lat="44.54538" lon="1.00756">
        <ele>164.04</ele>
        <time>2013-08-11T07:32:41Z</time>
      </trkpt>
      <trkpt lat="44.54516" lon="1.00792">
        <ele>161.64</ele>
        <time>2013-08-11T07:32:45Z</time>
      </trkpt>
      <trkpt lat="44.54507" lon="1.00815">
        <ele>160.2</ele>
        <time>2013-08-11T07:32:48Z</time>
      </trkpt>
      <trkpt lat="44.54495" lon="1.00837">
        <ele>159.24</ele>
        <time>2013-08-11T07:32:52Z</time>
      </trkpt>
      <trkpt lat="44.5448" lon="1.00845">
        <ele>160.2</ele>
        <time>2013-08-11T07:32:56Z</time>
      </trkpt>
      <trkpt lat="44.54444" lon="1.00853">
        <ele>163.56</ele>
        <time>2013-08-11T07:33:05Z</time>
      </trkpt>
      <trkpt lat="44.54423" lon="1.00839">
        <ele>166.93</ele>
        <time>2013-08-11T07:33:11Z</time>
      </trkpt>
      <trkpt lat="44.54402" lon="1.00834">
        <ele>169.33</ele>
        <time>2013-08-11T07:33:15Z</time>
      </trkpt>
      <trkpt lat="44.54334" lon="1.00838">
        <ele>171.25</ele>
        <time>2013-08-11T07:33:25Z</time>
      </trkpt>
      <trkpt lat="44.54325" lon="1.00839">
        <ele>170.77</ele>
        <time>2013-08-11T07:33:26Z</time>
      </trkpt>
      <trkpt lat="44.54316" lon="1.00839">
        <ele>170.29</ele>
        <time>2013-08-11T07:33:27Z</time>
      </trkpt>
      <trkpt lat="44.54298" lon="1.00838">
        <ele>169.81</ele>
        <time>2013-08-11T07:33:29Z</time>
      </trkpt>
      <trkpt lat="44.54291" lon="1.00839">
        <ele>169.33</ele>
        <time>2013-08-11T07:33:30Z</time>
      </trkpt>
      <trkpt lat="44.54285" lon="1.0084">
        <ele>168.85</ele>
        <time>2013-08-11T07:33:31Z</time>
      </trkpt>
      <trkpt lat="44.54272" lon="1.00845">
        <ele>167.41</ele>
        <time>2013-08-11T07:33:35Z</time>
      </trkpt>
      <trkpt lat="44.54268" lon="1.00844">
        <ele>166.93</ele>
        <time>2013-08-11T07:33:36Z</time>
      </trkpt>
      <trkpt lat="44.54251" lon="1.00834">
        <ele>164.52</ele>
        <time>2013-08-11T07:33:46Z</time>
      </trkpt>
      <trkpt lat="44.54248" lon="1.00832">
        <ele>165</ele>
        <time>2013-08-11T07:33:47Z</time>
      </trkpt>
      <trkpt lat="44.54236" lon="1.00824">
        <ele>166.93</ele>
        <time>2013-08-11T07:33:50Z</time>
      </trkpt>
      <trkpt lat="44.54232" lon="1.00821">
        <ele>167.89</ele>
        <time>2013-08-11T07:33:51Z</time>
      </trkpt>
      <trkpt lat="44.54227" lon="1.00817">
        <ele>168.37</ele>
        <time>2013-08-11T07:33:52Z</time>
      </trkpt>
      <trkpt lat="44.54221" lon="1.00814">
        <ele>168.85</ele>
        <time>2013-08-11T07:33:53Z</time>
      </trkpt>
      <trkpt lat="44.54216" lon="1.00811">
        <ele>169.33</ele>
        <time>2013-08-11T07:33:54Z</time>
      </trkpt>
      <trkpt lat="44.5421" lon="1.0081">
        <ele>169.81</ele>
        <time>2013-08-11T07:33:55Z</time>
      </trkpt>
      <trkpt lat="44.54204" lon="1.0081">
        <ele>170.29</ele>
        <time>2013-08-11T07:33:56Z</time>
      </trkpt>
      <trkpt lat="44.54197" lon="1.00813">
        <ele>170.77</ele>
        <time>2013-08-11T07:33:57Z</time>
      </trkpt>
      <trkpt lat="44.54192" lon="1.00817">
        <ele>171.25</ele>
        <time>2013-08-11T07:33:58Z</time>
      </trkpt>
      <trkpt lat="44.54186" lon="1.00822">
        <ele>171.25</ele>
        <time>2013-08-11T07:33:59Z</time>
      </trkpt>
      <trkpt lat="44.54182" lon="1.00829">
        <ele>171.73</ele>
        <time>2013-08-11T07:34:00Z</time>
      </trkpt>
      <trkpt lat="44.5418" lon="1.00837">
        <ele>172.21</ele>
        <time>2013-08-11T07:34:01Z</time>
      </trkpt>
      <trkpt lat="44.54177" lon="1.00846">
        <ele>172.21</ele>
        <time>2013-08-11T07:34:02Z</time>
      </trkpt>
      <trkpt lat="44.54157" lon="1.00903">
        <ele>176.06</ele>
        <time>2013-08-11T07:34:12Z</time>
      </trkpt>
      <trkpt lat="44.54153" lon="1.00904">
        <ele>176.54</ele>
        <time>2013-08-11T07:34:13Z</time>
      </trkpt>
      <trkpt lat="44.5415" lon="1.00903">
        <ele>177.02</ele>
        <time>2013-08-11T07:34:14Z</time>
      </trkpt>
      <trkpt lat="44.54148" lon="1.00902">
        <ele>177.5</ele>
        <time>2013-08-11T07:34:15Z</time>
      </trkpt>
      <trkpt lat="44.54146" lon="1.00899">
        <ele>177.5</ele>
        <time>2013-08-11T07:34:16Z</time>
      </trkpt>
      <trkpt lat="44.54146" lon="1.00895">
        <ele>177.98</ele>
        <time>2013-08-11T07:34:17Z</time>
      </trkpt>
      <trkpt lat="44.54146" lon="1.00891">
        <ele>177.98</ele>
        <time>2013-08-11T07:34:18Z</time>
      </trkpt>
      <trkpt lat="44.54146" lon="1.00887">
        <ele>178.46</ele>
        <time>2013-08-11T07:34:19Z</time>
      </trkpt>
      <trkpt lat="44.54143" lon="1.00833">
        <ele>181.35</ele>
        <time>2013-08-11T07:34:30Z</time>
      </trkpt>
      <trkpt lat="44.54138" lon="1.00811">
        <ele>180.38</ele>
        <time>2013-08-11T07:34:33Z</time>
      </trkpt>
      <trkpt lat="44.54136" lon="1.00803">
        <ele>179.9</ele>
        <time>2013-08-11T07:34:34Z</time>
      </trkpt>
      <trkpt lat="44.54133" lon="1.00795">
        <ele>179.42</ele>
        <time>2013-08-11T07:34:35Z</time>
      </trkpt>
      <trkpt lat="44.54128" lon="1.00791">
        <ele>179.42</ele>
        <time>2013-08-11T07:34:36Z</time>
      </trkpt>
      <trkpt lat="44.54123" lon="1.0079">
        <ele>179.42</ele>
        <time>2013-08-11T07:34:37Z</time>
      </trkpt>
      <trkpt lat="44.54117" lon="1.00793">
        <ele>178.94</ele>
        <time>2013-08-11T07:34:38Z</time>
      </trkpt>
      <trkpt lat="44.54113" lon="1.00797">
        <ele>178.46</ele>
        <time>2013-08-11T07:34:39Z</time>
      </trkpt>
      <trkpt lat="44.54108" lon="1.00803">
        <ele>178.46</ele>
        <time>2013-08-11T07:34:40Z</time>
      </trkpt>
      <trkpt lat="44.54104" lon="1.0081">
        <ele>178.46</ele>
        <time>2013-08-11T07:34:41Z</time>
      </trkpt>
      <trkpt lat="44.54101" lon="1.00815">
        <ele>177.98</ele>
        <time>2013-08-11T07:34:42Z</time>
      </trkpt>
      <trkpt lat="44.54098" lon="1.00819">
        <ele>177.98</ele>
        <time>2013-08-11T07:34:43Z</time>
      </trkpt>
      <trkpt lat="44.54096" lon="1.00823">
        <ele>177.5</ele>
        <time>2013-08-11T07:34:44Z</time>
      </trkpt>
      <trkpt lat="44.54093" lon="1.00825">
        <ele>177.02</ele>
        <time>2013-08-11T07:34:45Z</time>
      </trkpt>
      <trkpt lat="44.54091" lon="1.00828">
        <ele>176.54</ele>
        <time>2013-08-11T07:34:46Z</time>
      </trkpt>
      <trkpt lat="44.54088" lon="1.00833">
        <ele>176.06</ele>
        <time>2013-08-11T07:34:47Z</time>
      </trkpt>
      <trkpt lat="44.54085" lon="1.00838">
        <ele>175.58</ele>
        <time>2013-08-11T07:34:48Z</time>
      </trkpt>
      <trkpt lat="44.54082" lon="1.00844">
        <ele>174.62</ele>
        <time>2013-08-11T07:34:49Z</time>
      </trkpt>
      <trkpt lat="44.54059" lon="1.00877">
        <ele>170.29</ele>
        <time>2013-08-11T07:34:54Z</time>
      </trkpt>
      <trkpt lat="44.54052" lon="1.00883">
        <ele>169.33</ele>
        <time>2013-08-11T07:34:55Z</time>
      </trkpt>
      <trkpt lat="44.54014" lon="1.00912">
        <ele>164.52</ele>
        <time>2013-08-11T07:35:00Z</time>
      </trkpt>
      <trkpt lat="44.54006" lon="1.0092">
        <ele>163.08</ele>
        <time>2013-08-11T07:35:01Z</time>
      </trkpt>
      <trkpt lat="44.53999" lon="1.00929">
        <ele>161.64</ele>
        <time>2013-08-11T07:35:02Z</time>
      </trkpt>
      <trkpt lat="44.53993" lon="1.00939">
        <ele>160.68</ele>
        <time>2013-08-11T07:35:03Z</time>
      </trkpt>
      <trkpt lat="44.53988" lon="1.00949">
        <ele>159.72</ele>
        <time>2013-08-11T07:35:04Z</time>
      </trkpt>
      <trkpt lat="44.53984" lon="1.0096">
        <ele>158.75</ele>
        <time>2013-08-11T07:35:05Z</time>
      </trkpt>
      <trkpt lat="44.5398" lon="1.0097">
        <ele>157.79</ele>
        <time>2013-08-11T07:35:06Z</time>
      </trkpt>
      <trkpt lat="44.53965" lon="1.01023">
        <ele>152.51</ele>
        <time>2013-08-11T07:35:11Z</time>
      </trkpt>
      <trkpt lat="44.5396" lon="1.01034">
        <ele>151.54</ele>
        <time>2013-08-11T07:35:12Z</time>
      </trkpt>
      <trkpt lat="44.53954" lon="1.01044">
        <ele>150.58</ele>
        <time>2013-08-11T07:35:13Z</time>
      </trkpt>
      <trkpt lat="44.53946" lon="1.01055">
        <ele>149.62</ele>
        <time>2013-08-11T07:35:14Z</time>
      </trkpt>
      <trkpt lat="44.53938" lon="1.01065">
        <ele>148.18</ele>
        <time>2013-08-11T07:35:15Z</time>
      </trkpt>
      <trkpt lat="44.5393" lon="1.01077">
        <ele>147.22</ele>
        <time>2013-08-11T07:35:16Z</time>
      </trkpt>
      <trkpt lat="44.53907" lon="1.01113">
        <ele>143.37</ele>
        <time>2013-08-11T07:35:19Z</time>
      </trkpt>
      <trkpt lat="44.53897" lon="1.01122">
        <ele>142.41</ele>
        <time>2013-08-11T07:35:20Z</time>
      </trkpt>
      <trkpt lat="44.53887" lon="1.01129">
        <ele>141.45</ele>
        <time>2013-08-11T07:35:21Z</time>
      </trkpt>
      <trkpt lat="44.53877" lon="1.01137">
        <ele>140.01</ele>
        <time>2013-08-11T07:35:22Z</time>
      </trkpt>
      <trkpt lat="44.53867" lon="1.01146">
        <ele>139.05</ele>
        <time>2013-08-11T07:35:23Z</time>
      </trkpt>
      <trkpt lat="44.53838" lon="1.01173">
        <ele>136.16</ele>
        <time>2013-08-11T07:35:26Z</time>
      </trkpt>
      <trkpt lat="44.53828" lon="1.01181">
        <ele>135.2</ele>
        <time>2013-08-11T07:35:27Z</time>
      </trkpt>
      <trkpt lat="44.53817" lon="1.01186">
        <ele>133.76</ele>
        <time>2013-08-11T07:35:28Z</time>
      </trkpt>
      <trkpt lat="44.53806" lon="1.01189">
        <ele>132.8</ele>
        <time>2013-08-11T07:35:29Z</time>
      </trkpt>
      <trkpt lat="44.53795" lon="1.01191">
        <ele>132.32</ele>
        <time>2013-08-11T07:35:30Z</time>
      </trkpt>
      <trkpt lat="44.53785" lon="1.01194">
        <ele>131.36</ele>
        <time>2013-08-11T07:35:31Z</time>
      </trkpt>
      <trkpt lat="44.53735" lon="1.01223">
        <ele>125.11</ele>
        <time>2013-08-11T07:35:38Z</time>
      </trkpt>
      <trkpt lat="44.53732" lon="1.01226">
        <ele>124.15</ele>
        <time>2013-08-11T07:35:39Z</time>
      </trkpt>
      <trkpt lat="44.5373" lon="1.01228">
        <ele>123.19</ele>
        <time>2013-08-11T07:35:40Z</time>
      </trkpt>
      <trkpt lat="44.5373" lon="1.01231">
        <ele>122.71</ele>
        <time>2013-08-11T07:35:41Z</time>
      </trkpt>
      <trkpt lat="44.53731" lon="1.01232">
        <ele>122.22</ele>
        <time>2013-08-11T07:35:42Z</time>
      </trkpt>
      <trkpt lat="44.53732" lon="1.01232">
        <ele>121.74</ele>
        <time>2013-08-11T07:35:43Z</time>
      </trkpt>
      <trkpt lat="44.53736" lon="1.0123">
        <ele>125.59</ele>
        <time>2013-08-11T07:35:58Z</time>
      </trkpt>
      <trkpt lat="44.53732" lon="1.01235">
        <ele>131.36</ele>
        <time>2013-08-11T07:36:24Z</time>
      </trkpt>
      <trkpt lat="44.53728" lon="1.01238">
        <ele>134.24</ele>
        <time>2013-08-11T07:36:55Z</time>
      </trkpt>
      <trkpt lat="44.53726" lon="1.01239">
        <ele>136.64</ele>
        <time>2013-08-11T07:37:31Z</time>
      </trkpt>
      <trkpt lat="44.53726" lon="1.01239">
        <ele>139.53</ele>
        <time>2013-08-11T07:38:09Z</time>
      </trkpt>
      <trkpt lat="44.53727" lon="1.0124">
        <ele>138.09</ele>
        <time>2013-08-11T07:38:36Z</time>
      </trkpt>
      <trkpt lat="44.53728" lon="1.01239">
        <ele>139.05</ele>
        <time>2013-08-11T07:39:06Z</time>
      </trkpt>
      <trkpt lat="44.53728" lon="1.01242">
        <ele>140.01</ele>
        <time>2013-08-11T07:39:21Z</time>
      </trkpt>
      <trkpt lat="44.53726" lon="1.0125">
        <ele>140.49</ele>
        <time>2013-08-11T07:39:37Z</time>
      </trkpt>
      <trkpt lat="44.53726" lon="1.0125">
        <ele>139.05</ele>
        <time>2013-08-11T07:40:02Z</time>
      </trkpt>
      <trkpt lat="44.53727" lon="1.01251">
        <ele>139.05</ele>
        <time>2013-08-11T07:40:31Z</time>
      </trkpt>
      <trkpt lat="44.53732" lon="1.01251">
        <ele>138.57</ele>
        <time>2013-08-11T07:40:43Z</time>
      </trkpt>
      <trkpt lat="44.53733" lon="1.01252">
        <ele>138.57</ele>
        <time>2013-08-11T07:40:44Z</time>
      </trkpt>
      <trkpt lat="44.53733" lon="1.01253">
        <ele>139.05</ele>
        <time>2013-08-11T07:40:45Z</time>
      </trkpt>
      <trkpt lat="44.53731" lon="1.01257">
        <ele>138.09</ele>
        <time>2013-08-11T07:40:48Z</time>
      </trkpt>
      <trkpt lat="44.53729" lon="1.0126">
        <ele>138.09</ele>
        <time>2013-08-11T07:40:50Z</time>
      </trkpt>
      <trkpt lat="44.53729" lon="1.01285">
        <ele>138.09</ele>
        <time>2013-08-11T07:41:02Z</time>
      </trkpt>
      <trkpt lat="44.53727" lon="1.01294">
        <ele>140.01</ele>
        <time>2013-08-11T07:41:06Z</time>
      </trkpt>
      <trkpt lat="44.53724" lon="1.01308">
        <ele>138.09</ele>
        <time>2013-08-11T07:41:13Z</time>
      </trkpt>
      <trkpt lat="44.53723" lon="1.01314">
        <ele>137.13</ele>
        <time>2013-08-11T07:41:15Z</time>
      </trkpt>
      <trkpt lat="44.53724" lon="1.01316">
        <ele>134.72</ele>
        <time>2013-08-11T07:41:16Z</time>
      </trkpt>
      <trkpt lat="44.53725" lon="1.01318">
        <ele>132.8</ele>
        <time>2013-08-11T07:41:17Z</time>
      </trkpt>
      <trkpt lat="44.53726" lon="1.01321">
        <ele>132.32</ele>
        <time>2013-08-11T07:41:18Z</time>
      </trkpt>
      <trkpt lat="44.53727" lon="1.01324">
        <ele>131.84</ele>
        <time>2013-08-11T07:41:19Z</time>
      </trkpt>
      <trkpt lat="44.53728" lon="1.01327">
        <ele>131.36</ele>
        <time>2013-08-11T07:41:20Z</time>
      </trkpt>
      <trkpt lat="44.53729" lon="1.01331">
        <ele>131.36</ele>
        <time>2013-08-11T07:41:21Z</time>
      </trkpt>
      <trkpt lat="44.53735" lon="1.01373">
        <ele>133.28</ele>
        <time>2013-08-11T07:41:34Z</time>
      </trkpt>
      <trkpt lat="44.5374" lon="1.0139">
        <ele>134.24</ele>
        <time>2013-08-11T07:41:40Z</time>
      </trkpt>
      <trkpt lat="44.53741" lon="1.01392">
        <ele>134.24</ele>
        <time>2013-08-11T07:41:41Z</time>
      </trkpt>
      <trkpt lat="44.53742" lon="1.01395">
        <ele>134.24</ele>
        <time>2013-08-11T07:41:42Z</time>
      </trkpt>
      <trkpt lat="44.53743" lon="1.01397">
        <ele>134.24</ele>
        <time>2013-08-11T07:41:43Z</time>
      </trkpt>
      <trkpt lat="44.53744" lon="1.014">
        <ele>134.24</ele>
        <time>2013-08-11T07:41:44Z</time>
      </trkpt>
      <trkpt lat="44.53746" lon="1.01401">
        <ele>134.24</ele>
        <time>2013-08-11T07:41:45Z</time>
      </trkpt>
      <trkpt lat="44.53748" lon="1.01397">
        <ele>134.72</ele>
        <time>2013-08-11T07:41:48Z</time>
      </trkpt>
      <trkpt lat="44.53748" lon="1.01394">
        <ele>134.72</ele>
        <time>2013-08-11T07:41:49Z</time>
      </trkpt>
      <trkpt lat="44.53748" lon="1.01379">
        <ele>135.68</ele>
        <time>2013-08-11T07:41:54Z</time>
      </trkpt>
      <trkpt lat="44.53749" lon="1.01377">
        <ele>136.16</ele>
        <time>2013-08-11T07:41:55Z</time>
      </trkpt>
      <trkpt lat="44.5375" lon="1.01374">
        <ele>136.16</ele>
        <time>2013-08-11T07:41:56Z</time>
      </trkpt>
      <trkpt lat="44.53751" lon="1.0137">
        <ele>136.16</ele>
        <time>2013-08-11T07:41:57Z</time>
      </trkpt>
      <trkpt lat="44.53753" lon="1.01367">
        <ele>136.64</ele>
        <time>2013-08-11T07:41:58Z</time>
      </trkpt>
      <trkpt lat="44.53755" lon="1.01364">
        <ele>136.64</ele>
        <time>2013-08-11T07:41:59Z</time>
      </trkpt>
      <trkpt lat="44.53775" lon="1.01351">
        <ele>136.64</ele>
        <time>2013-08-11T07:42:09Z</time>
      </trkpt>
      <trkpt lat="44.53803" lon="1.01345">
        <ele>140.01</ele>
        <time>2013-08-11T07:42:22Z</time>
      </trkpt>
      <trkpt lat="44.53835" lon="1.01339">
        <ele>147.22</ele>
        <time>2013-08-11T07:42:37Z</time>
      </trkpt>
      <trkpt lat="44.53865" lon="1.01341">
        <ele>154.91</ele>
        <time>2013-08-11T07:42:51Z</time>
      </trkpt>
      <trkpt lat="44.53899" lon="1.01327">
        <ele>161.16</ele>
        <time>2013-08-11T07:43:05Z</time>
      </trkpt>
      <trkpt lat="44.53934" lon="1.01314">
        <ele>163.08</ele>
        <time>2013-08-11T07:43:17Z</time>
      </trkpt>
      <trkpt lat="44.53954" lon="1.01306">
        <ele>169.81</ele>
        <time>2013-08-11T07:43:29Z</time>
      </trkpt>
      <trkpt lat="44.53954" lon="1.01308">
        <ele>169.81</ele>
        <time>2013-08-11T07:43:30Z</time>
      </trkpt>
      <trkpt lat="44.53938" lon="1.01327">
        <ele>170.29</ele>
        <time>2013-08-11T07:43:44Z</time>
      </trkpt>
      <trkpt lat="44.53925" lon="1.01347">
        <ele>167.41</ele>
        <time>2013-08-11T07:43:55Z</time>
      </trkpt>
      <trkpt lat="44.53924" lon="1.0135">
        <ele>167.41</ele>
        <time>2013-08-11T07:43:56Z</time>
      </trkpt>
      <trkpt lat="44.53922" lon="1.01352">
        <ele>167.41</ele>
        <time>2013-08-11T07:43:57Z</time>
      </trkpt>
      <trkpt lat="44.53922" lon="1.01355">
        <ele>166.93</ele>
        <time>2013-08-11T07:43:58Z</time>
      </trkpt>
      <trkpt lat="44.53931" lon="1.01354">
        <ele>167.89</ele>
        <time>2013-08-11T07:44:04Z</time>
      </trkpt>
      <trkpt lat="44.53932" lon="1.01352">
        <ele>168.37</ele>
        <time>2013-08-11T07:44:05Z</time>
      </trkpt>
      <trkpt lat="44.53934" lon="1.01351">
        <ele>168.37</ele>
        <time>2013-08-11T07:44:06Z</time>
      </trkpt>
      <trkpt lat="44.53935" lon="1.01351">
        <ele>168.85</ele>
        <time>2013-08-11T07:44:07Z</time>
      </trkpt>
      <trkpt lat="44.53936" lon="1.01351">
        <ele>168.85</ele>
        <time>2013-08-11T07:44:08Z</time>
      </trkpt>
      <trkpt lat="44.53938" lon="1.0135">
        <ele>169.33</ele>
        <time>2013-08-11T07:44:09Z</time>
      </trkpt>
      <trkpt lat="44.5394" lon="1.01349">
        <ele>169.33</ele>
        <time>2013-08-11T07:44:10Z</time>
      </trkpt>
      <trkpt lat="44.53942" lon="1.01348">
        <ele>169.33</ele>
        <time>2013-08-11T07:44:11Z</time>
      </trkpt>
      <trkpt lat="44.53965" lon="1.01339">
        <ele>174.14</ele>
        <time>2013-08-11T07:44:22Z</time>
      </trkpt>
      <trkpt lat="44.53988" lon="1.01328">
        <ele>179.42</ele>
        <time>2013-08-11T07:44:34Z</time>
      </trkpt>
      <trkpt lat="44.54002" lon="1.01321">
        <ele>181.83</ele>
        <time>2013-08-11T07:44:42Z</time>
      </trkpt>
      <trkpt lat="44.54005" lon="1.01319">
        <ele>182.79</ele>
        <time>2013-08-11T07:44:44Z</time>
      </trkpt>
      <trkpt lat="44.54007" lon="1.01318">
        <ele>182.79</ele>
        <time>2013-08-11T07:44:45Z</time>
      </trkpt>
      <trkpt lat="44.54008" lon="1.01318">
        <ele>183.27</ele>
        <time>2013-08-11T07:44:46Z</time>
      </trkpt>
      <trkpt lat="44.54032" lon="1.01311">
        <ele>189.04</ele>
        <time>2013-08-11T07:44:59Z</time>
      </trkpt>
      <trkpt lat="44.54037" lon="1.01311">
        <ele>190</ele>
        <time>2013-08-11T07:45:02Z</time>
      </trkpt>
      <trkpt lat="44.54044" lon="1.01311">
        <ele>189.04</ele>
        <time>2013-08-11T07:45:06Z</time>
      </trkpt>
      <trkpt lat="44.54059" lon="1.01315">
        <ele>188.56</ele>
        <time>2013-08-11T07:45:15Z</time>
      </trkpt>
      <trkpt lat="44.54071" lon="1.0132">
        <ele>191.92</ele>
        <time>2013-08-11T07:45:26Z</time>
      </trkpt>
      <trkpt lat="44.54078" lon="1.01322">
        <ele>193.36</ele>
        <time>2013-08-11T07:45:30Z</time>
      </trkpt>
      <trkpt lat="44.54105" lon="1.01331">
        <ele>194.32</ele>
        <time>2013-08-11T07:45:44Z</time>
      </trkpt>
      <trkpt lat="44.54111" lon="1.01332">
        <ele>194.32</ele>
        <time>2013-08-11T07:45:47Z</time>
      </trkpt>
      <trkpt lat="44.54124" lon="1.01335">
        <ele>193.84</ele>
        <time>2013-08-11T07:45:53Z</time>
      </trkpt>
      <trkpt lat="44.54152" lon="1.0133">
        <ele>197.21</ele>
        <time>2013-08-11T07:46:06Z</time>
      </trkpt>
      <trkpt lat="44.54174" lon="1.01323">
        <ele>201.05</ele>
        <time>2013-08-11T07:46:17Z</time>
      </trkpt>
      <trkpt lat="44.54204" lon="1.01314">
        <ele>202.98</ele>
        <time>2013-08-11T07:46:33Z</time>
      </trkpt>
      <trkpt lat="44.54226" lon="1.01304">
        <ele>204.42</ele>
        <time>2013-08-11T07:46:45Z</time>
      </trkpt>
      <trkpt lat="44.54238" lon="1.01296">
        <ele>205.86</ele>
        <time>2013-08-11T07:46:52Z</time>
      </trkpt>
      <trkpt lat="44.54264" lon="1.01282">
        <ele>207.78</ele>
        <time>2013-08-11T07:47:05Z</time>
      </trkpt>
      <trkpt lat="44.54295" lon="1.01274">
        <ele>206.82</ele>
        <time>2013-08-11T07:47:18Z</time>
      </trkpt>
      <trkpt lat="44.54318" lon="1.01277">
        <ele>209.22</ele>
        <time>2013-08-11T07:47:31Z</time>
      </trkpt>
      <trkpt lat="44.54328" lon="1.01283">
        <ele>210.19</ele>
        <time>2013-08-11T07:47:37Z</time>
      </trkpt>
      <trkpt lat="44.54362" lon="1.01318">
        <ele>208.74</ele>
        <time>2013-08-11T07:47:54Z</time>
      </trkpt>
      <trkpt lat="44.54382" lon="1.01345">
        <ele>208.26</ele>
        <time>2013-08-11T07:48:04Z</time>
      </trkpt>
      <trkpt lat="44.54384" lon="1.01348">
        <ele>208.74</ele>
        <time>2013-08-11T07:48:05Z</time>
      </trkpt>
      <trkpt lat="44.54387" lon="1.01362">
        <ele>209.7</ele>
        <time>2013-08-11T07:48:10Z</time>
      </trkpt>
      <trkpt lat="44.54392" lon="1.01367">
        <ele>211.63</ele>
        <time>2013-08-11T07:48:24Z</time>
      </trkpt>
      <trkpt lat="44.54392" lon="1.01368">
        <ele>211.15</ele>
        <time>2013-08-11T07:48:51Z</time>
      </trkpt>
      <trkpt lat="44.54392" lon="1.01368">
        <ele>211.15</ele>
        <time>2013-08-11T07:48:56Z</time>
      </trkpt>
      <trkpt lat="44.54401" lon="1.01361">
        <ele>211.63</ele>
        <time>2013-08-11T07:49:01Z</time>
      </trkpt>
      <trkpt lat="44.54446" lon="1.01361">
        <ele>214.03</ele>
        <time>2013-08-11T07:49:13Z</time>
      </trkpt>
      <trkpt lat="44.54464" lon="1.01367">
        <ele>214.99</ele>
        <time>2013-08-11T07:49:18Z</time>
      </trkpt>
      <trkpt lat="44.54482" lon="1.01387">
        <ele>216.91</ele>
        <time>2013-08-11T07:49:23Z</time>
      </trkpt>
      <trkpt lat="44.54507" lon="1.014">
        <ele>217.88</ele>
        <time>2013-08-11T07:49:28Z</time>
      </trkpt>
      <trkpt lat="44.5454" lon="1.0143">
        <ele>221.24</ele>
        <time>2013-08-11T07:49:36Z</time>
      </trkpt>
      <trkpt lat="44.54549" lon="1.0144">
        <ele>222.2</ele>
        <time>2013-08-11T07:49:38Z</time>
      </trkpt>
      <trkpt lat="44.5457" lon="1.01477">
        <ele>222.68</ele>
        <time>2013-08-11T07:49:45Z</time>
      </trkpt>
      <trkpt lat="44.54575" lon="1.01477">
        <ele>222.68</ele>
        <time>2013-08-11T07:49:46Z</time>
      </trkpt>
      <trkpt lat="44.54581" lon="1.01476">
        <ele>222.68</ele>
        <time>2013-08-11T07:49:47Z</time>
      </trkpt>
      <trkpt lat="44.54588" lon="1.01474">
        <ele>222.68</ele>
        <time>2013-08-11T07:49:48Z</time>
      </trkpt>
      <trkpt lat="44.54602" lon="1.01471">
        <ele>222.68</ele>
        <time>2013-08-11T07:49:50Z</time>
      </trkpt>
      <trkpt lat="44.5463" lon="1.01465">
        <ele>220.76</ele>
        <time>2013-08-11T07:49:54Z</time>
      </trkpt>
      <trkpt lat="44.54652" lon="1.01462">
        <ele>221.24</ele>
        <time>2013-08-11T07:49:58Z</time>
      </trkpt>
      <trkpt lat="44.54678" lon="1.01466">
        <ele>220.76</ele>
        <time>2013-08-11T07:50:04Z</time>
      </trkpt>
      <trkpt lat="44.54683" lon="1.01467">
        <ele>221.24</ele>
        <time>2013-08-11T07:50:05Z</time>
      </trkpt>
      <trkpt lat="44.54703" lon="1.01474">
        <ele>222.2</ele>
        <time>2013-08-11T07:50:10Z</time>
      </trkpt>
      <trkpt lat="44.54709" lon="1.01474">
        <ele>222.2</ele>
        <time>2013-08-11T07:50:11Z</time>
      </trkpt>
      <trkpt lat="44.54724" lon="1.01472">
        <ele>222.2</ele>
        <time>2013-08-11T07:50:13Z</time>
      </trkpt>
      <trkpt lat="44.54748" lon="1.01466">
        <ele>223.16</ele>
        <time>2013-08-11T07:50:16Z</time>
      </trkpt>
      <trkpt lat="44.548" lon="1.01473">
        <ele>222.2</ele>
        <time>2013-08-11T07:50:23Z</time>
      </trkpt>
      <trkpt lat="44.54815" lon="1.01481">
        <ele>221.24</ele>
        <time>2013-08-11T07:50:25Z</time>
      </trkpt>
      <trkpt lat="44.54821" lon="1.01486">
        <ele>221.24</ele>
        <time>2013-08-11T07:50:26Z</time>
      </trkpt>
      <trkpt lat="44.54833" lon="1.01497">
        <ele>219.8</ele>
        <time>2013-08-11T07:50:28Z</time>
      </trkpt>
      <trkpt lat="44.54838" lon="1.01504">
        <ele>219.32</ele>
        <time>2013-08-11T07:50:29Z</time>
      </trkpt>
      <trkpt lat="44.54843" lon="1.01511">
        <ele>218.36</ele>
        <time>2013-08-11T07:50:30Z</time>
      </trkpt>
      <trkpt lat="44.54858" lon="1.01538">
        <ele>216.43</ele>
        <time>2013-08-11T07:50:33Z</time>
      </trkpt>
      <trkpt lat="44.54864" lon="1.01546">
        <ele>215.95</ele>
        <time>2013-08-11T07:50:34Z</time>
      </trkpt>
      <trkpt lat="44.54871" lon="1.01553">
        <ele>214.03</ele>
        <time>2013-08-11T07:50:35Z</time>
      </trkpt>
      <trkpt lat="44.54881" lon="1.01555">
        <ele>212.11</ele>
        <time>2013-08-11T07:50:36Z</time>
      </trkpt>
      <trkpt lat="44.5489" lon="1.01556">
        <ele>210.67</ele>
        <time>2013-08-11T07:50:37Z</time>
      </trkpt>
      <trkpt lat="44.54959" lon="1.0157">
        <ele>200.57</ele>
        <time>2013-08-11T07:50:47Z</time>
      </trkpt>
      <trkpt lat="44.54965" lon="1.01572">
        <ele>200.09</ele>
        <time>2013-08-11T07:50:48Z</time>
      </trkpt>
      <trkpt lat="44.55002" lon="1.0158">
        <ele>200.57</ele>
        <time>2013-08-11T07:50:55Z</time>
      </trkpt>
      <trkpt lat="44.55071" lon="1.01619">
        <ele>200.57</ele>
        <time>2013-08-11T07:51:08Z</time>
      </trkpt>
      <trkpt lat="44.55082" lon="1.01623">
        <ele>201.05</ele>
        <time>2013-08-11T07:51:10Z</time>
      </trkpt>
      <trkpt lat="44.55086" lon="1.01626">
        <ele>201.53</ele>
        <time>2013-08-11T07:51:11Z</time>
      </trkpt>
      <trkpt lat="44.5514" lon="1.01671">
        <ele>202.49</ele>
        <time>2013-08-11T07:51:23Z</time>
      </trkpt>
      <trkpt lat="44.55144" lon="1.01674">
        <ele>202.49</ele>
        <time>2013-08-11T07:51:24Z</time>
      </trkpt>
      <trkpt lat="44.55183" lon="1.01716">
        <ele>206.82</ele>
        <time>2013-08-11T07:51:37Z</time>
      </trkpt>
      <trkpt lat="44.5521" lon="1.01757">
        <ele>212.11</ele>
        <time>2013-08-11T07:51:50Z</time>
      </trkpt>
      <trkpt lat="44.55224" lon="1.01772">
        <ele>212.11</ele>
        <time>2013-08-11T07:51:55Z</time>
      </trkpt>
      <trkpt lat="44.55246" lon="1.01792">
        <ele>212.11</ele>
        <time>2013-08-11T07:52:00Z</time>
      </trkpt>
      <trkpt lat="44.55314" lon="1.0185">
        <ele>214.51</ele>
        <time>2013-08-11T07:52:16Z</time>
      </trkpt>
      <trkpt lat="44.55318" lon="1.0185">
        <ele>214.99</ele>
        <time>2013-08-11T07:52:17Z</time>
      </trkpt>
      <trkpt lat="44.55322" lon="1.01847">
        <ele>215.47</ele>
        <time>2013-08-11T07:52:18Z</time>
      </trkpt>
      <trkpt lat="44.55325" lon="1.01843">
        <ele>215.95</ele>
        <time>2013-08-11T07:52:19Z</time>
      </trkpt>
      <trkpt lat="44.55327" lon="1.01839">
        <ele>216.43</ele>
        <time>2013-08-11T07:52:20Z</time>
      </trkpt>
      <trkpt lat="44.5533" lon="1.01834">
        <ele>216.43</ele>
        <time>2013-08-11T07:52:21Z</time>
      </trkpt>
      <trkpt lat="44.55332" lon="1.01828">
        <ele>216.91</ele>
        <time>2013-08-11T07:52:22Z</time>
      </trkpt>
      <trkpt lat="44.55341" lon="1.01811">
        <ele>216.91</ele>
        <time>2013-08-11T07:52:25Z</time>
      </trkpt>
      <trkpt lat="44.55344" lon="1.01805">
        <ele>216.91</ele>
        <time>2013-08-11T07:52:26Z</time>
      </trkpt>
      <trkpt lat="44.55348" lon="1.01801">
        <ele>216.91</ele>
        <time>2013-08-11T07:52:27Z</time>
      </trkpt>
      <trkpt lat="44.55353" lon="1.01799">
        <ele>216.91</ele>
        <time>2013-08-11T07:52:28Z</time>
      </trkpt>
      <trkpt lat="44.55363" lon="1.01799">
        <ele>216.43</ele>
        <time>2013-08-11T07:52:30Z</time>
      </trkpt>
      <trkpt lat="44.55374" lon="1.01802">
        <ele>215.95</ele>
        <time>2013-08-11T07:52:32Z</time>
      </trkpt>
      <trkpt lat="44.5539" lon="1.01801">
        <ele>215.47</ele>
        <time>2013-08-11T07:52:35Z</time>
      </trkpt>
      <trkpt lat="44.55407" lon="1.01793">
        <ele>214.03</ele>
        <time>2013-08-11T07:52:38Z</time>
      </trkpt>
      <trkpt lat="44.55427" lon="1.018">
        <ele>212.59</ele>
        <time>2013-08-11T07:52:44Z</time>
      </trkpt>
      <trkpt lat="44.55433" lon="1.01863">
        <ele>213.07</ele>
        <time>2013-08-11T07:52:57Z</time>
      </trkpt>
      <trkpt lat="44.55424" lon="1.01913">
        <ele>215.47</ele>
        <time>2013-08-11T07:53:10Z</time>
      </trkpt>
      <trkpt lat="44.55412" lon="1.01952">
        <ele>218.36</ele>
        <time>2013-08-11T07:53:21Z</time>
      </trkpt>
      <trkpt lat="44.55413" lon="1.01957">
        <ele>218.36</ele>
        <time>2013-08-11T07:53:22Z</time>
      </trkpt>
      <trkpt lat="44.55415" lon="1.01961">
        <ele>218.84</ele>
        <time>2013-08-11T07:53:23Z</time>
      </trkpt>
      <trkpt lat="44.55417" lon="1.01965">
        <ele>219.32</ele>
        <time>2013-08-11T07:53:24Z</time>
      </trkpt>
      <trkpt lat="44.5542" lon="1.01969">
        <ele>219.8</ele>
        <time>2013-08-11T07:53:25Z</time>
      </trkpt>
      <trkpt lat="44.55422" lon="1.01972">
        <ele>219.8</ele>
        <time>2013-08-11T07:53:26Z</time>
      </trkpt>
      <trkpt lat="44.55456" lon="1.02015">
        <ele>223.64</ele>
        <time>2013-08-11T07:53:40Z</time>
      </trkpt>
      <trkpt lat="44.5548" lon="1.02053">
        <ele>226.53</ele>
        <time>2013-08-11T07:53:51Z</time>
      </trkpt>
      <trkpt lat="44.55505" lon="1.02092">
        <ele>230.85</ele>
        <time>2013-08-11T07:54:03Z</time>
      </trkpt>
      <trkpt lat="44.55533" lon="1.02126">
        <ele>232.78</ele>
        <time>2013-08-11T07:54:14Z</time>
      </trkpt>
      <trkpt lat="44.55558" lon="1.0215">
        <ele>233.74</ele>
        <time>2013-08-11T07:54:25Z</time>
      </trkpt>
      <trkpt lat="44.55584" lon="1.02178">
        <ele>238.06</ele>
        <time>2013-08-11T07:54:38Z</time>
      </trkpt>
      <trkpt lat="44.55612" lon="1.02193">
        <ele>241.43</ele>
        <time>2013-08-11T07:54:48Z</time>
      </trkpt>
      <trkpt lat="44.55616" lon="1.02195">
        <ele>241.43</ele>
        <time>2013-08-11T07:54:49Z</time>
      </trkpt>
      <trkpt lat="44.5562" lon="1.02195">
        <ele>241.91</ele>
        <time>2013-08-11T07:54:50Z</time>
      </trkpt>
      <trkpt lat="44.55624" lon="1.02193">
        <ele>241.91</ele>
        <time>2013-08-11T07:54:51Z</time>
      </trkpt>
      <trkpt lat="44.55627" lon="1.0219">
        <ele>241.91</ele>
        <time>2013-08-11T07:54:52Z</time>
      </trkpt>
      <trkpt lat="44.55631" lon="1.02188">
        <ele>241.91</ele>
        <time>2013-08-11T07:54:53Z</time>
      </trkpt>
      <trkpt lat="44.55634" lon="1.02186">
        <ele>241.43</ele>
        <time>2013-08-11T07:54:54Z</time>
      </trkpt>
      <trkpt lat="44.55636" lon="1.02184">
        <ele>241.43</ele>
        <time>2013-08-11T07:54:55Z</time>
      </trkpt>
      <trkpt lat="44.55677" lon="1.02163">
        <ele>242.39</ele>
        <time>2013-08-11T07:55:10Z</time>
      </trkpt>
      <trkpt lat="44.55717" lon="1.02137">
        <ele>241.43</ele>
        <time>2013-08-11T07:55:24Z</time>
      </trkpt>
      <trkpt lat="44.55722" lon="1.02136">
        <ele>241.43</ele>
        <time>2013-08-11T07:55:26Z</time>
      </trkpt>
      <trkpt lat="44.55724" lon="1.02134">
        <ele>241.91</ele>
        <time>2013-08-11T07:55:27Z</time>
      </trkpt>
      <trkpt lat="44.55727" lon="1.02132">
        <ele>241.91</ele>
        <time>2013-08-11T07:55:28Z</time>
      </trkpt>
      <trkpt lat="44.55729" lon="1.02131">
        <ele>241.43</ele>
        <time>2013-08-11T07:55:29Z</time>
      </trkpt>
      <trkpt lat="44.55732" lon="1.0213">
        <ele>241.43</ele>
        <time>2013-08-11T07:55:30Z</time>
      </trkpt>
      <trkpt lat="44.55766" lon="1.02122">
        <ele>241.91</ele>
        <time>2013-08-11T07:55:43Z</time>
      </trkpt>
      <trkpt lat="44.55783" lon="1.02118">
        <ele>243.35</ele>
        <time>2013-08-11T07:55:49Z</time>
      </trkpt>
      <trkpt lat="44.55785" lon="1.02117">
        <ele>243.35</ele>
        <time>2013-08-11T07:55:50Z</time>
      </trkpt>
      <trkpt lat="44.55788" lon="1.02116">
        <ele>243.35</ele>
        <time>2013-08-11T07:55:51Z</time>
      </trkpt>
      <trkpt lat="44.5583" lon="1.0211">
        <ele>245.75</ele>
        <time>2013-08-11T07:56:05Z</time>
      </trkpt>
      <trkpt lat="44.55875" lon="1.02104">
        <ele>249.12</ele>
        <time>2013-08-11T07:56:20Z</time>
      </trkpt>
      <trkpt lat="44.55895" lon="1.021">
        <ele>250.56</ele>
        <time>2013-08-11T07:56:25Z</time>
      </trkpt>
      <trkpt lat="44.55903" lon="1.02098">
        <ele>250.56</ele>
        <time>2013-08-11T07:56:27Z</time>
      </trkpt>
      <trkpt lat="44.55908" lon="1.02099">
        <ele>250.08</ele>
        <time>2013-08-11T07:56:28Z</time>
      </trkpt>
      <trkpt lat="44.55928" lon="1.021">
        <ele>249.12</ele>
        <time>2013-08-11T07:56:33Z</time>
      </trkpt>
      <trkpt lat="44.55931" lon="1.02103">
        <ele>248.64</ele>
        <time>2013-08-11T07:56:34Z</time>
      </trkpt>
      <trkpt lat="44.55959" lon="1.02146">
        <ele>247.68</ele>
        <time>2013-08-11T07:56:46Z</time>
      </trkpt>
      <trkpt lat="44.55968" lon="1.02181">
        <ele>248.64</ele>
        <time>2013-08-11T07:56:55Z</time>
      </trkpt>
      <trkpt lat="44.55979" lon="1.02225">
        <ele>254.41</ele>
        <time>2013-08-11T07:57:06Z</time>
      </trkpt>
      <trkpt lat="44.55991" lon="1.02264">
        <ele>256.33</ele>
        <time>2013-08-11T07:57:16Z</time>
      </trkpt>
      <trkpt lat="44.55999" lon="1.02291">
        <ele>258.25</ele>
        <time>2013-08-11T07:57:24Z</time>
      </trkpt>
      <trkpt lat="44.56016" lon="1.02348">
        <ele>259.21</ele>
        <time>2013-08-11T07:57:36Z</time>
      </trkpt>
      <trkpt lat="44.5601" lon="1.02402">
        <ele>255.85</ele>
        <time>2013-08-11T07:57:46Z</time>
      </trkpt>
      <trkpt lat="44.56004" lon="1.02426">
        <ele>255.85</ele>
        <time>2013-08-11T07:57:51Z</time>
      </trkpt>
      <trkpt lat="44.55998" lon="1.02475">
        <ele>259.21</ele>
        <time>2013-08-11T07:58:02Z</time>
      </trkpt>
      <trkpt lat="44.55997" lon="1.02521">
        <ele>262.58</ele>
        <time>2013-08-11T07:58:10Z</time>
      </trkpt>
      <trkpt lat="44.5599" lon="1.02568">
        <ele>264.02</ele>
        <time>2013-08-11T07:58:19Z</time>
      </trkpt>
      <trkpt lat="44.55987" lon="1.02589">
        <ele>264.02</ele>
        <time>2013-08-11T07:58:23Z</time>
      </trkpt>
      <trkpt lat="44.55968" lon="1.02624">
        <ele>263.54</ele>
        <time>2013-08-11T07:58:30Z</time>
      </trkpt>
      <trkpt lat="44.5596" lon="1.02645">
        <ele>263.54</ele>
        <time>2013-08-11T07:58:34Z</time>
      </trkpt>
      <trkpt lat="44.55956" lon="1.02717">
        <ele>263.54</ele>
        <time>2013-08-11T07:58:44Z</time>
      </trkpt>
      <trkpt lat="44.55956" lon="1.02759">
        <ele>262.58</ele>
        <time>2013-08-11T07:58:50Z</time>
      </trkpt>
      <trkpt lat="44.55945" lon="1.02817">
        <ele>260.17</ele>
        <time>2013-08-11T07:59:00Z</time>
      </trkpt>
      <trkpt lat="44.55945" lon="1.02824">
        <ele>259.21</ele>
        <time>2013-08-11T07:59:01Z</time>
      </trkpt>
      <trkpt lat="44.55944" lon="1.02845">
        <ele>259.69</ele>
        <time>2013-08-11T07:59:03Z</time>
      </trkpt>
      <trkpt lat="44.55933" lon="1.02882">
        <ele>256.81</ele>
        <time>2013-08-11T07:59:07Z</time>
      </trkpt>
      <trkpt lat="44.55913" lon="1.02914">
        <ele>249.12</ele>
        <time>2013-08-11T07:59:13Z</time>
      </trkpt>
      <trkpt lat="44.55861" lon="1.0294">
        <ele>239.99</ele>
        <time>2013-08-11T07:59:23Z</time>
      </trkpt>
      <trkpt lat="44.55843" lon="1.02947">
        <ele>237.58</ele>
        <time>2013-08-11T07:59:27Z</time>
      </trkpt>
      <trkpt lat="44.55829" lon="1.02953">
        <ele>236.62</ele>
        <time>2013-08-11T07:59:30Z</time>
      </trkpt>
      <trkpt lat="44.55814" lon="1.02965">
        <ele>235.18</ele>
        <time>2013-08-11T07:59:34Z</time>
      </trkpt>
      <trkpt lat="44.55797" lon="1.02975">
        <ele>234.22</ele>
        <time>2013-08-11T07:59:38Z</time>
      </trkpt>
      <trkpt lat="44.55777" lon="1.02988">
        <ele>233.26</ele>
        <time>2013-08-11T07:59:43Z</time>
      </trkpt>
      <trkpt lat="44.55773" lon="1.02991">
        <ele>233.26</ele>
        <time>2013-08-11T07:59:44Z</time>
      </trkpt>
      <trkpt lat="44.5577" lon="1.02995">
        <ele>232.78</ele>
        <time>2013-08-11T07:59:45Z</time>
      </trkpt>
      <trkpt lat="44.55768" lon="1.02999">
        <ele>232.78</ele>
        <time>2013-08-11T07:59:46Z</time>
      </trkpt>
      <trkpt lat="44.55767" lon="1.03004">
        <ele>232.78</ele>
        <time>2013-08-11T07:59:47Z</time>
      </trkpt>
      <trkpt lat="44.55766" lon="1.0301">
        <ele>233.26</ele>
        <time>2013-08-11T07:59:48Z</time>
      </trkpt>
      <trkpt lat="44.55765" lon="1.03015">
        <ele>233.26</ele>
        <time>2013-08-11T07:59:49Z</time>
      </trkpt>
      <trkpt lat="44.55758" lon="1.03043">
        <ele>232.3</ele>
        <time>2013-08-11T07:59:55Z</time>
      </trkpt>
      <trkpt lat="44.55758" lon="1.03045">
        <ele>232.3</ele>
        <time>2013-08-11T07:59:56Z</time>
      </trkpt>
      <trkpt lat="44.55759" lon="1.03048">
        <ele>232.3</ele>
        <time>2013-08-11T07:59:58Z</time>
      </trkpt>
      <trkpt lat="44.55759" lon="1.03052">
        <ele>231.81</ele>
        <time>2013-08-11T07:59:59Z</time>
      </trkpt>
      <trkpt lat="44.55756" lon="1.03063">
        <ele>231.33</ele>
        <time>2013-08-11T08:00:01Z</time>
      </trkpt>
      <trkpt lat="44.55754" lon="1.0307">
        <ele>231.33</ele>
        <time>2013-08-11T08:00:02Z</time>
      </trkpt>
      <trkpt lat="44.55751" lon="1.03079">
        <ele>230.85</ele>
        <time>2013-08-11T08:00:03Z</time>
      </trkpt>
      <trkpt lat="44.55749" lon="1.03089">
        <ele>230.37</ele>
        <time>2013-08-11T08:00:04Z</time>
      </trkpt>
      <trkpt lat="44.55745" lon="1.03111">
        <ele>229.41</ele>
        <time>2013-08-11T08:00:06Z</time>
      </trkpt>
      <trkpt lat="44.55742" lon="1.03154">
        <ele>227.01</ele>
        <time>2013-08-11T08:00:10Z</time>
      </trkpt>
      <trkpt lat="44.55729" lon="1.0324">
        <ele>223.16</ele>
        <time>2013-08-11T08:00:19Z</time>
      </trkpt>
      <trkpt lat="44.55735" lon="1.03275">
        <ele>222.2</ele>
        <time>2013-08-11T08:00:24Z</time>
      </trkpt>
      <trkpt lat="44.55742" lon="1.03285">
        <ele>222.2</ele>
        <time>2013-08-11T08:00:29Z</time>
      </trkpt>
      <trkpt lat="44.55745" lon="1.03285">
        <ele>222.2</ele>
        <time>2013-08-11T08:00:30Z</time>
      </trkpt>
      <trkpt lat="44.55748" lon="1.03285">
        <ele>222.2</ele>
        <time>2013-08-11T08:00:31Z</time>
      </trkpt>
      <trkpt lat="44.55751" lon="1.03285">
        <ele>222.68</ele>
        <time>2013-08-11T08:00:32Z</time>
      </trkpt>
      <trkpt lat="44.55753" lon="1.03287">
        <ele>223.16</ele>
        <time>2013-08-11T08:00:33Z</time>
      </trkpt>
      <trkpt lat="44.55755" lon="1.03288">
        <ele>223.16</ele>
        <time>2013-08-11T08:00:34Z</time>
      </trkpt>
      <trkpt lat="44.55758" lon="1.0329">
        <ele>223.64</ele>
        <time>2013-08-11T08:00:35Z</time>
      </trkpt>
      <trkpt lat="44.55775" lon="1.03303">
        <ele>226.05</ele>
        <time>2013-08-11T08:00:42Z</time>
      </trkpt>
      <trkpt lat="44.55777" lon="1.03306">
        <ele>226.05</ele>
        <time>2013-08-11T08:00:43Z</time>
      </trkpt>
      <trkpt lat="44.55779" lon="1.03309">
        <ele>225.57</ele>
        <time>2013-08-11T08:00:44Z</time>
      </trkpt>
      <trkpt lat="44.55781" lon="1.03312">
        <ele>226.05</ele>
        <time>2013-08-11T08:00:45Z</time>
      </trkpt>
      <trkpt lat="44.55783" lon="1.03314">
        <ele>226.53</ele>
        <time>2013-08-11T08:00:46Z</time>
      </trkpt>
      <trkpt lat="44.55785" lon="1.03317">
        <ele>227.01</ele>
        <time>2013-08-11T08:00:47Z</time>
      </trkpt>
      <trkpt lat="44.55788" lon="1.0332">
        <ele>227.49</ele>
        <time>2013-08-11T08:00:48Z</time>
      </trkpt>
      <trkpt lat="44.5579" lon="1.03323">
        <ele>227.49</ele>
        <time>2013-08-11T08:00:49Z</time>
      </trkpt>
      <trkpt lat="44.55792" lon="1.03325">
        <ele>227.49</ele>
        <time>2013-08-11T08:00:50Z</time>
      </trkpt>
      <trkpt lat="44.55795" lon="1.03326">
        <ele>227.97</ele>
        <time>2013-08-11T08:00:51Z</time>
      </trkpt>
      <trkpt lat="44.55805" lon="1.0333">
        <ele>229.41</ele>
        <time>2013-08-11T08:00:55Z</time>
      </trkpt>
      <trkpt lat="44.55806" lon="1.03331">
        <ele>230.37</ele>
        <time>2013-08-11T08:00:56Z</time>
      </trkpt>
      <trkpt lat="44.55809" lon="1.03333">
        <ele>230.37</ele>
        <time>2013-08-11T08:00:57Z</time>
      </trkpt>
      <trkpt lat="44.55811" lon="1.03334">
        <ele>230.85</ele>
        <time>2013-08-11T08:00:58Z</time>
      </trkpt>
      <trkpt lat="44.55813" lon="1.03335">
        <ele>231.33</ele>
        <time>2013-08-11T08:00:59Z</time>
      </trkpt>
      <trkpt lat="44.55834" lon="1.03348">
        <ele>234.7</ele>
        <time>2013-08-11T08:01:11Z</time>
      </trkpt>
      <trkpt lat="44.55863" lon="1.03358">
        <ele>240.95</ele>
        <time>2013-08-11T08:01:24Z</time>
      </trkpt>
      <trkpt lat="44.55883" lon="1.03368">
        <ele>245.75</ele>
        <time>2013-08-11T08:01:33Z</time>
      </trkpt>
      <trkpt lat="44.55886" lon="1.03368">
        <ele>246.23</ele>
        <time>2013-08-11T08:01:34Z</time>
      </trkpt>
      <trkpt lat="44.55888" lon="1.03368">
        <ele>246.72</ele>
        <time>2013-08-11T08:01:35Z</time>
      </trkpt>
      <trkpt lat="44.55894" lon="1.0337">
        <ele>248.16</ele>
        <time>2013-08-11T08:01:37Z</time>
      </trkpt>
      <trkpt lat="44.55896" lon="1.03371">
        <ele>248.64</ele>
        <time>2013-08-11T08:01:38Z</time>
      </trkpt>
      <trkpt lat="44.55906" lon="1.03379">
        <ele>251.52</ele>
        <time>2013-08-11T08:01:43Z</time>
      </trkpt>
      <trkpt lat="44.55907" lon="1.03382">
        <ele>251.52</ele>
        <time>2013-08-11T08:01:44Z</time>
      </trkpt>
      <trkpt lat="44.55909" lon="1.03385">
        <ele>252</ele>
        <time>2013-08-11T08:01:45Z</time>
      </trkpt>
      <trkpt lat="44.55911" lon="1.03388">
        <ele>252</ele>
        <time>2013-08-11T08:01:46Z</time>
      </trkpt>
      <trkpt lat="44.55913" lon="1.03391">
        <ele>252</ele>
        <time>2013-08-11T08:01:47Z</time>
      </trkpt>
      <trkpt lat="44.55921" lon="1.03401">
        <ele>252.48</ele>
        <time>2013-08-11T08:01:51Z</time>
      </trkpt>
      <trkpt lat="44.55946" lon="1.03426">
        <ele>252.48</ele>
        <time>2013-08-11T08:02:02Z</time>
      </trkpt>
      <trkpt lat="44.55947" lon="1.03428">
        <ele>252</ele>
        <time>2013-08-11T08:02:03Z</time>
      </trkpt>
      <trkpt lat="44.55967" lon="1.03454">
        <ele>252</ele>
        <time>2013-08-11T08:02:16Z</time>
      </trkpt>
      <trkpt lat="44.55994" lon="1.03473">
        <ele>252.96</ele>
        <time>2013-08-11T08:02:28Z</time>
      </trkpt>
      <trkpt lat="44.56016" lon="1.03486">
        <ele>254.41</ele>
        <time>2013-08-11T08:02:39Z</time>
      </trkpt>
      <trkpt lat="44.56047" lon="1.03503">
        <ele>260.65</ele>
        <time>2013-08-11T08:02:51Z</time>
      </trkpt>
      <trkpt lat="44.56049" lon="1.03505">
        <ele>261.14</ele>
        <time>2013-08-11T08:02:52Z</time>
      </trkpt>
      <trkpt lat="44.56052" lon="1.03507">
        <ele>261.62</ele>
        <time>2013-08-11T08:02:53Z</time>
      </trkpt>
      <trkpt lat="44.56054" lon="1.0351">
        <ele>262.1</ele>
        <time>2013-08-11T08:02:54Z</time>
      </trkpt>
      <trkpt lat="44.56057" lon="1.03513">
        <ele>262.1</ele>
        <time>2013-08-11T08:02:55Z</time>
      </trkpt>
      <trkpt lat="44.56059" lon="1.03516">
        <ele>262.58</ele>
        <time>2013-08-11T08:02:56Z</time>
      </trkpt>
      <trkpt lat="44.56092" lon="1.03558">
        <ele>257.29</ele>
        <time>2013-08-11T08:03:09Z</time>
      </trkpt>
      <trkpt lat="44.56094" lon="1.03561">
        <ele>256.81</ele>
        <time>2013-08-11T08:03:10Z</time>
      </trkpt>
      <trkpt lat="44.56096" lon="1.03564">
        <ele>256.33</ele>
        <time>2013-08-11T08:03:11Z</time>
      </trkpt>
      <trkpt lat="44.56098" lon="1.03567">
        <ele>255.85</ele>
        <time>2013-08-11T08:03:12Z</time>
      </trkpt>
      <trkpt lat="44.56125" lon="1.03592">
        <ele>251.52</ele>
        <time>2013-08-11T08:03:23Z</time>
      </trkpt>
      <trkpt lat="44.56129" lon="1.03594">
        <ele>251.52</ele>
        <time>2013-08-11T08:03:24Z</time>
      </trkpt>
      <trkpt lat="44.56132" lon="1.03595">
        <ele>251.52</ele>
        <time>2013-08-11T08:03:25Z</time>
      </trkpt>
      <trkpt lat="44.56135" lon="1.03597">
        <ele>251.52</ele>
        <time>2013-08-11T08:03:26Z</time>
      </trkpt>
      <trkpt lat="44.56141" lon="1.03595">
        <ele>252</ele>
        <time>2013-08-11T08:03:27Z</time>
      </trkpt>
      <trkpt lat="44.56144" lon="1.03595">
        <ele>252.96</ele>
        <time>2013-08-11T08:03:28Z</time>
      </trkpt>
      <trkpt lat="44.56148" lon="1.03596">
        <ele>253.93</ele>
        <time>2013-08-11T08:03:29Z</time>
      </trkpt>
      <trkpt lat="44.56152" lon="1.03597">
        <ele>254.41</ele>
        <time>2013-08-11T08:03:30Z</time>
      </trkpt>
      <trkpt lat="44.56173" lon="1.03612">
        <ele>260.17</ele>
        <time>2013-08-11T08:03:38Z</time>
      </trkpt>
      <trkpt lat="44.56185" lon="1.03626">
        <ele>264.02</ele>
        <time>2013-08-11T08:03:43Z</time>
      </trkpt>
      <trkpt lat="44.5622" lon="1.03657">
        <ele>264.5</ele>
        <time>2013-08-11T08:03:54Z</time>
      </trkpt>
      <trkpt lat="44.56223" lon="1.03659">
        <ele>264.5</ele>
        <time>2013-08-11T08:03:55Z</time>
      </trkpt>
      <trkpt lat="44.56232" lon="1.03669">
        <ele>261.62</ele>
        <time>2013-08-11T08:04:07Z</time>
      </trkpt>
      <trkpt lat="44.56237" lon="1.03669">
        <ele>260.65</ele>
        <time>2013-08-11T08:04:29Z</time>
      </trkpt>
      <trkpt lat="44.56238" lon="1.03672">
        <ele>260.17</ele>
        <time>2013-08-11T08:04:30Z</time>
      </trkpt>
      <trkpt lat="44.56238" lon="1.03674">
        <ele>260.17</ele>
        <time>2013-08-11T08:04:31Z</time>
      </trkpt>
      <trkpt lat="44.5624" lon="1.03677">
        <ele>260.65</ele>
        <time>2013-08-11T08:04:32Z</time>
      </trkpt>
      <trkpt lat="44.56242" lon="1.0368">
        <ele>260.65</ele>
        <time>2013-08-11T08:04:33Z</time>
      </trkpt>
      <trkpt lat="44.56244" lon="1.03684">
        <ele>260.65</ele>
        <time>2013-08-11T08:04:34Z</time>
      </trkpt>
      <trkpt lat="44.56246" lon="1.03687">
        <ele>260.65</ele>
        <time>2013-08-11T08:04:35Z</time>
      </trkpt>
      <trkpt lat="44.56249" lon="1.03691">
        <ele>260.65</ele>
        <time>2013-08-11T08:04:36Z</time>
      </trkpt>
      <trkpt lat="44.56251" lon="1.03695">
        <ele>261.14</ele>
        <time>2013-08-11T08:04:37Z</time>
      </trkpt>
      <trkpt lat="44.5626" lon="1.03715">
        <ele>260.65</ele>
        <time>2013-08-11T08:04:41Z</time>
      </trkpt>
      <trkpt lat="44.56268" lon="1.0373">
        <ele>260.65</ele>
        <time>2013-08-11T08:04:44Z</time>
      </trkpt>
      <trkpt lat="44.56285" lon="1.03751">
        <ele>260.17</ele>
        <time>2013-08-11T08:04:49Z</time>
      </trkpt>
      <trkpt lat="44.56294" lon="1.03757">
        <ele>260.17</ele>
        <time>2013-08-11T08:04:51Z</time>
      </trkpt>
      <trkpt lat="44.56343" lon="1.03775">
        <ele>261.62</ele>
        <time>2013-08-11T08:05:03Z</time>
      </trkpt>
      <trkpt lat="44.56347" lon="1.03778">
        <ele>261.62</ele>
        <time>2013-08-11T08:05:04Z</time>
      </trkpt>
      <trkpt lat="44.56351" lon="1.03783">
        <ele>261.62</ele>
        <time>2013-08-11T08:05:05Z</time>
      </trkpt>
      <trkpt lat="44.56355" lon="1.03788">
        <ele>261.14</ele>
        <time>2013-08-11T08:05:06Z</time>
      </trkpt>
      <trkpt lat="44.56359" lon="1.03794">
        <ele>261.14</ele>
        <time>2013-08-11T08:05:07Z</time>
      </trkpt>
      <trkpt lat="44.56362" lon="1.03801">
        <ele>261.14</ele>
        <time>2013-08-11T08:05:08Z</time>
      </trkpt>
      <trkpt lat="44.56364" lon="1.0381">
        <ele>261.14</ele>
        <time>2013-08-11T08:05:09Z</time>
      </trkpt>
      <trkpt lat="44.56367" lon="1.03818">
        <ele>261.14</ele>
        <time>2013-08-11T08:05:10Z</time>
      </trkpt>
      <trkpt lat="44.56398" lon="1.03938">
        <ele>256.81</ele>
        <time>2013-08-11T08:05:21Z</time>
      </trkpt>
      <trkpt lat="44.56415" lon="1.03977">
        <ele>255.37</ele>
        <time>2013-08-11T08:05:25Z</time>
      </trkpt>
      <trkpt lat="44.5642" lon="1.03985">
        <ele>255.37</ele>
        <time>2013-08-11T08:05:26Z</time>
      </trkpt>
      <trkpt lat="44.56465" lon="1.04037">
        <ele>254.89</ele>
        <time>2013-08-11T08:05:35Z</time>
      </trkpt>
      <trkpt lat="44.56469" lon="1.04042">
        <ele>254.89</ele>
        <time>2013-08-11T08:05:36Z</time>
      </trkpt>
      <trkpt lat="44.56472" lon="1.04046">
        <ele>255.37</ele>
        <time>2013-08-11T08:05:37Z</time>
      </trkpt>
      <trkpt lat="44.56476" lon="1.0405">
        <ele>255.85</ele>
        <time>2013-08-11T08:05:38Z</time>
      </trkpt>
      <trkpt lat="44.56479" lon="1.04054">
        <ele>256.33</ele>
        <time>2013-08-11T08:05:39Z</time>
      </trkpt>
      <trkpt lat="44.56485" lon="1.04062">
        <ele>256.81</ele>
        <time>2013-08-11T08:05:41Z</time>
      </trkpt>
      <trkpt lat="44.56488" lon="1.04067">
        <ele>257.29</ele>
        <time>2013-08-11T08:05:42Z</time>
      </trkpt>
      <trkpt lat="44.56495" lon="1.04082">
        <ele>258.25</ele>
        <time>2013-08-11T08:05:45Z</time>
      </trkpt>
      <trkpt lat="44.56502" lon="1.04094">
        <ele>258.25</ele>
        <time>2013-08-11T08:05:47Z</time>
      </trkpt>
      <trkpt lat="44.56521" lon="1.04117">
        <ele>259.21</ele>
        <time>2013-08-11T08:05:52Z</time>
      </trkpt>
      <trkpt lat="44.56553" lon="1.04157">
        <ele>260.17</ele>
        <time>2013-08-11T08:06:03Z</time>
      </trkpt>
      <trkpt lat="44.56567" lon="1.04171">
        <ele>261.14</ele>
        <time>2013-08-11T08:06:07Z</time>
      </trkpt>
      <trkpt lat="44.56585" lon="1.04204">
        <ele>261.62</ele>
        <time>2013-08-11T08:06:13Z</time>
      </trkpt>
      <trkpt lat="44.56595" lon="1.04228">
        <ele>262.58</ele>
        <time>2013-08-11T08:06:17Z</time>
      </trkpt>
      <trkpt lat="44.566" lon="1.0424">
        <ele>263.06</ele>
        <time>2013-08-11T08:06:19Z</time>
      </trkpt>
      <trkpt lat="44.56615" lon="1.04276">
        <ele>264.5</ele>
        <time>2013-08-11T08:06:25Z</time>
      </trkpt>
      <trkpt lat="44.56621" lon="1.04296">
        <ele>265.46</ele>
        <time>2013-08-11T08:06:28Z</time>
      </trkpt>
      <trkpt lat="44.56629" lon="1.04316">
        <ele>265.46</ele>
        <time>2013-08-11T08:06:31Z</time>
      </trkpt>
      <trkpt lat="44.5666" lon="1.04371">
        <ele>266.42</ele>
        <time>2013-08-11T08:06:39Z</time>
      </trkpt>
      <trkpt lat="44.56678" lon="1.0441">
        <ele>264.5</ele>
        <time>2013-08-11T08:06:45Z</time>
      </trkpt>
      <trkpt lat="44.56717" lon="1.04468">
        <ele>262.1</ele>
        <time>2013-08-11T08:06:55Z</time>
      </trkpt>
      <trkpt lat="44.56734" lon="1.04493">
        <ele>260.65</ele>
        <time>2013-08-11T08:06:59Z</time>
      </trkpt>
      <trkpt lat="44.56768" lon="1.0455">
        <ele>256.81</ele>
        <time>2013-08-11T08:07:08Z</time>
      </trkpt>
      <trkpt lat="44.56785" lon="1.04588">
        <ele>255.85</ele>
        <time>2013-08-11T08:07:14Z</time>
      </trkpt>
      <trkpt lat="44.5679" lon="1.04608">
        <ele>255.37</ele>
        <time>2013-08-11T08:07:17Z</time>
      </trkpt>
      <trkpt lat="44.56821" lon="1.04684">
        <ele>254.89</ele>
        <time>2013-08-11T08:07:28Z</time>
      </trkpt>
      <trkpt lat="44.5684" lon="1.04732">
        <ele>254.89</ele>
        <time>2013-08-11T08:07:35Z</time>
      </trkpt>
      <trkpt lat="44.56866" lon="1.04796">
        <ele>256.81</ele>
        <time>2013-08-11T08:07:46Z</time>
      </trkpt>
      <trkpt lat="44.56883" lon="1.04834">
        <ele>256.33</ele>
        <time>2013-08-11T08:07:52Z</time>
      </trkpt>
      <trkpt lat="44.56889" lon="1.04848">
        <ele>256.33</ele>
        <time>2013-08-11T08:07:54Z</time>
      </trkpt>
      <trkpt lat="44.56899" lon="1.0487">
        <ele>257.29</ele>
        <time>2013-08-11T08:07:58Z</time>
      </trkpt>
      <trkpt lat="44.56928" lon="1.04921">
        <ele>256.81</ele>
        <time>2013-08-11T08:08:10Z</time>
      </trkpt>
      <trkpt lat="44.56938" lon="1.04951">
        <ele>257.29</ele>
        <time>2013-08-11T08:08:18Z</time>
      </trkpt>
      <trkpt lat="44.56944" lon="1.04967">
        <ele>258.73</ele>
        <time>2013-08-11T08:08:22Z</time>
      </trkpt>
      <trkpt lat="44.5695" lon="1.04989">
        <ele>260.65</ele>
        <time>2013-08-11T08:08:27Z</time>
      </trkpt>
      <trkpt lat="44.56958" lon="1.05028">
        <ele>262.1</ele>
        <time>2013-08-11T08:08:36Z</time>
      </trkpt>
      <trkpt lat="44.56974" lon="1.05078">
        <ele>264.5</ele>
        <time>2013-08-11T08:08:45Z</time>
      </trkpt>
      <trkpt lat="44.56977" lon="1.05099">
        <ele>264.02</ele>
        <time>2013-08-11T08:08:48Z</time>
      </trkpt>
      <trkpt lat="44.56982" lon="1.05129">
        <ele>264.02</ele>
        <time>2013-08-11T08:08:52Z</time>
      </trkpt>
      <trkpt lat="44.56984" lon="1.0516">
        <ele>264.5</ele>
        <time>2013-08-11T08:08:57Z</time>
      </trkpt>
      <trkpt lat="44.56984" lon="1.05169">
        <ele>264.98</ele>
        <time>2013-08-11T08:09:00Z</time>
      </trkpt>
      <trkpt lat="44.56986" lon="1.05187">
        <ele>266.9</ele>
        <time>2013-08-11T08:09:09Z</time>
      </trkpt>
      <trkpt lat="44.5699" lon="1.05197">
        <ele>267.86</ele>
        <time>2013-08-11T08:09:16Z</time>
      </trkpt>
      <trkpt lat="44.56997" lon="1.05224">
        <ele>265.46</ele>
        <time>2013-08-11T08:09:25Z</time>
      </trkpt>
      <trkpt lat="44.56999" lon="1.05282">
        <ele>261.62</ele>
        <time>2013-08-11T08:09:36Z</time>
      </trkpt>
      <trkpt lat="44.56998" lon="1.05339">
        <ele>262.1</ele>
        <time>2013-08-11T08:09:46Z</time>
      </trkpt>
      <trkpt lat="44.57006" lon="1.05398">
        <ele>260.65</ele>
        <time>2013-08-11T08:09:56Z</time>
      </trkpt>
      <trkpt lat="44.57011" lon="1.0543">
        <ele>260.65</ele>
        <time>2013-08-11T08:10:02Z</time>
      </trkpt>
      <trkpt lat="44.57034" lon="1.05479">
        <ele>259.69</ele>
        <time>2013-08-11T08:10:15Z</time>
      </trkpt>
      <trkpt lat="44.57035" lon="1.05486">
        <ele>259.21</ele>
        <time>2013-08-11T08:10:17Z</time>
      </trkpt>
      <trkpt lat="44.57057" lon="1.0552">
        <ele>262.1</ele>
        <time>2013-08-11T08:10:30Z</time>
      </trkpt>
      <trkpt lat="44.57076" lon="1.05547">
        <ele>264.02</ele>
        <time>2013-08-11T08:10:40Z</time>
      </trkpt>
      <trkpt lat="44.57098" lon="1.05586">
        <ele>265.94</ele>
        <time>2013-08-11T08:10:53Z</time>
      </trkpt>
      <trkpt lat="44.57112" lon="1.05633">
        <ele>269.31</ele>
        <time>2013-08-11T08:11:04Z</time>
      </trkpt>
      <trkpt lat="44.57131" lon="1.0568">
        <ele>272.67</ele>
        <time>2013-08-11T08:11:15Z</time>
      </trkpt>
      <trkpt lat="44.57137" lon="1.05693">
        <ele>271.23</ele>
        <time>2013-08-11T08:11:21Z</time>
      </trkpt>
      <trkpt lat="44.57141" lon="1.05704">
        <ele>270.75</ele>
        <time>2013-08-11T08:11:25Z</time>
      </trkpt>
      <trkpt lat="44.57157" lon="1.05763">
        <ele>271.23</ele>
        <time>2013-08-11T08:11:37Z</time>
      </trkpt>
      <trkpt lat="44.57159" lon="1.05768">
        <ele>271.71</ele>
        <time>2013-08-11T08:11:38Z</time>
      </trkpt>
      <trkpt lat="44.57192" lon="1.05837">
        <ele>272.19</ele>
        <time>2013-08-11T08:11:51Z</time>
      </trkpt>
      <trkpt lat="44.57213" lon="1.05872">
        <ele>273.15</ele>
        <time>2013-08-11T08:11:58Z</time>
      </trkpt>
      <trkpt lat="44.57241" lon="1.05916">
        <ele>274.59</ele>
        <time>2013-08-11T08:12:08Z</time>
      </trkpt>
      <trkpt lat="44.57255" lon="1.05938">
        <ele>274.11</ele>
        <time>2013-08-11T08:12:13Z</time>
      </trkpt>
      <trkpt lat="44.57286" lon="1.05985">
        <ele>272.19</ele>
        <time>2013-08-11T08:12:25Z</time>
      </trkpt>
      <trkpt lat="44.57321" lon="1.06021">
        <ele>273.15</ele>
        <time>2013-08-11T08:12:36Z</time>
      </trkpt>
      <trkpt lat="44.5735" lon="1.06063">
        <ele>268.83</ele>
        <time>2013-08-11T08:12:48Z</time>
      </trkpt>
      <trkpt lat="44.57364" lon="1.06103">
        <ele>267.38</ele>
        <time>2013-08-11T08:12:58Z</time>
      </trkpt>
      <trkpt lat="44.57368" lon="1.06114">
        <ele>266.9</ele>
        <time>2013-08-11T08:13:00Z</time>
      </trkpt>
      <trkpt lat="44.57376" lon="1.06142">
        <ele>265.94</ele>
        <time>2013-08-11T08:13:04Z</time>
      </trkpt>
      <trkpt lat="44.57384" lon="1.06163">
        <ele>265.94</ele>
        <time>2013-08-11T08:13:07Z</time>
      </trkpt>
      <trkpt lat="44.57405" lon="1.06204">
        <ele>264.98</ele>
        <time>2013-08-11T08:13:16Z</time>
      </trkpt>
      <trkpt lat="44.57411" lon="1.06214">
        <ele>265.94</ele>
        <time>2013-08-11T08:13:29Z</time>
      </trkpt>
      <trkpt lat="44.57412" lon="1.06214">
        <ele>269.31</ele>
        <time>2013-08-11T08:13:51Z</time>
      </trkpt>
      <trkpt lat="44.57412" lon="1.06218">
        <ele>268.83</ele>
        <time>2013-08-11T08:14:14Z</time>
      </trkpt>
      <trkpt lat="44.57411" lon="1.06217">
        <ele>272.19</ele>
        <time>2013-08-11T08:14:36Z</time>
      </trkpt>
      <trkpt lat="44.57415" lon="1.06224">
        <ele>271.71</ele>
        <time>2013-08-11T08:14:39Z</time>
      </trkpt>
      <trkpt lat="44.57416" lon="1.06228">
        <ele>271.23</ele>
        <time>2013-08-11T08:14:40Z</time>
      </trkpt>
      <trkpt lat="44.57436" lon="1.06273">
        <ele>270.27</ele>
        <time>2013-08-11T08:14:50Z</time>
      </trkpt>
      <trkpt lat="44.57455" lon="1.06341">
        <ele>265.94</ele>
        <time>2013-08-11T08:15:00Z</time>
      </trkpt>
      <trkpt lat="44.57471" lon="1.06405">
        <ele>259.21</ele>
        <time>2013-08-11T08:15:11Z</time>
      </trkpt>
      <trkpt lat="44.57478" lon="1.06425">
        <ele>258.25</ele>
        <time>2013-08-11T08:15:14Z</time>
      </trkpt>
      <trkpt lat="44.57486" lon="1.06448">
        <ele>258.73</ele>
        <time>2013-08-11T08:15:18Z</time>
      </trkpt>
      <trkpt lat="44.57492" lon="1.06467">
        <ele>258.73</ele>
        <time>2013-08-11T08:15:21Z</time>
      </trkpt>
      <trkpt lat="44.57494" lon="1.06474">
        <ele>258.25</ele>
        <time>2013-08-11T08:15:22Z</time>
      </trkpt>
      <trkpt lat="44.57498" lon="1.06486">
        <ele>258.25</ele>
        <time>2013-08-11T08:15:24Z</time>
      </trkpt>
      <trkpt lat="44.57509" lon="1.06521">
        <ele>257.77</ele>
        <time>2013-08-11T08:15:29Z</time>
      </trkpt>
      <trkpt lat="44.57511" lon="1.06528">
        <ele>257.77</ele>
        <time>2013-08-11T08:15:30Z</time>
      </trkpt>
      <trkpt lat="44.57518" lon="1.06555">
        <ele>258.25</ele>
        <time>2013-08-11T08:15:34Z</time>
      </trkpt>
      <trkpt lat="44.57523" lon="1.06584">
        <ele>258.73</ele>
        <time>2013-08-11T08:15:38Z</time>
      </trkpt>
      <trkpt lat="44.57525" lon="1.0659">
        <ele>258.73</ele>
        <time>2013-08-11T08:15:39Z</time>
      </trkpt>
      <trkpt lat="44.57526" lon="1.06597">
        <ele>258.73</ele>
        <time>2013-08-11T08:15:40Z</time>
      </trkpt>
      <trkpt lat="44.57532" lon="1.06631">
        <ele>259.21</ele>
        <time>2013-08-11T08:15:45Z</time>
      </trkpt>
      <trkpt lat="44.57534" lon="1.06637">
        <ele>259.21</ele>
        <time>2013-08-11T08:15:46Z</time>
      </trkpt>
      <trkpt lat="44.57535" lon="1.06643">
        <ele>259.21</ele>
        <time>2013-08-11T08:15:47Z</time>
      </trkpt>
      <trkpt lat="44.57536" lon="1.06649">
        <ele>259.21</ele>
        <time>2013-08-11T08:15:48Z</time>
      </trkpt>
      <trkpt lat="44.57538" lon="1.06656">
        <ele>259.21</ele>
        <time>2013-08-11T08:15:49Z</time>
      </trkpt>
      <trkpt lat="44.57539" lon="1.06663">
        <ele>259.69</ele>
        <time>2013-08-11T08:15:50Z</time>
      </trkpt>
      <trkpt lat="44.57558" lon="1.0675">
        <ele>265.46</ele>
        <time>2013-08-11T08:16:03Z</time>
      </trkpt>
      <trkpt lat="44.57561" lon="1.06766">
        <ele>265.46</ele>
        <time>2013-08-11T08:16:05Z</time>
      </trkpt>
      <trkpt lat="44.57563" lon="1.06774">
        <ele>265.46</ele>
        <time>2013-08-11T08:16:06Z</time>
      </trkpt>
      <trkpt lat="44.57565" lon="1.06782">
        <ele>265.46</ele>
        <time>2013-08-11T08:16:07Z</time>
      </trkpt>
      <trkpt lat="44.5758" lon="1.06831">
        <ele>264.02</ele>
        <time>2013-08-11T08:16:13Z</time>
      </trkpt>
      <trkpt lat="44.57582" lon="1.06838">
        <ele>264.02</ele>
        <time>2013-08-11T08:16:14Z</time>
      </trkpt>
      <trkpt lat="44.57587" lon="1.06852">
        <ele>263.54</ele>
        <time>2013-08-11T08:16:16Z</time>
      </trkpt>
      <trkpt lat="44.57604" lon="1.06892">
        <ele>262.58</ele>
        <time>2013-08-11T08:16:22Z</time>
      </trkpt>
      <trkpt lat="44.57607" lon="1.06899">
        <ele>262.58</ele>
        <time>2013-08-11T08:16:23Z</time>
      </trkpt>
      <trkpt lat="44.57661" lon="1.0698">
        <ele>260.17</ele>
        <time>2013-08-11T08:16:38Z</time>
      </trkpt>
      <trkpt lat="44.57664" lon="1.06985">
        <ele>259.21</ele>
        <time>2013-08-11T08:16:39Z</time>
      </trkpt>
      <trkpt lat="44.57667" lon="1.06991">
        <ele>259.21</ele>
        <time>2013-08-11T08:16:40Z</time>
      </trkpt>
      <trkpt lat="44.57675" lon="1.07006">
        <ele>258.73</ele>
        <time>2013-08-11T08:16:43Z</time>
      </trkpt>
      <trkpt lat="44.57679" lon="1.07017">
        <ele>257.77</ele>
        <time>2013-08-11T08:16:45Z</time>
      </trkpt>
      <trkpt lat="44.57683" lon="1.07022">
        <ele>257.29</ele>
        <time>2013-08-11T08:16:46Z</time>
      </trkpt>
      <trkpt lat="44.57697" lon="1.07042">
        <ele>256.81</ele>
        <time>2013-08-11T08:16:50Z</time>
      </trkpt>
      <trkpt lat="44.57708" lon="1.07058">
        <ele>256.33</ele>
        <time>2013-08-11T08:16:53Z</time>
      </trkpt>
      <trkpt lat="44.57712" lon="1.07063">
        <ele>255.85</ele>
        <time>2013-08-11T08:16:54Z</time>
      </trkpt>
      <trkpt lat="44.57755" lon="1.07122">
        <ele>251.52</ele>
        <time>2013-08-11T08:17:04Z</time>
      </trkpt>
      <trkpt lat="44.57815" lon="1.07185">
        <ele>257.29</ele>
        <time>2013-08-11T08:17:19Z</time>
      </trkpt>
      <trkpt lat="44.57856" lon="1.07201">
        <ele>261.62</ele>
        <time>2013-08-11T08:17:31Z</time>
      </trkpt>
      <trkpt lat="44.57865" lon="1.07205">
        <ele>263.06</ele>
        <time>2013-08-11T08:17:37Z</time>
      </trkpt>
      <trkpt lat="44.57867" lon="1.07203">
        <ele>264.98</ele>
        <time>2013-08-11T08:17:49Z</time>
      </trkpt>
      <trkpt lat="44.57868" lon="1.07203">
        <ele>266.9</ele>
        <time>2013-08-11T08:18:20Z</time>
      </trkpt>
      <trkpt lat="44.57868" lon="1.07205">
        <ele>265.46</ele>
        <time>2013-08-11T08:18:51Z</time>
      </trkpt>
      <trkpt lat="44.57868" lon="1.07201">
        <ele>265.94</ele>
        <time>2013-08-11T08:19:27Z</time>
      </trkpt>
      <trkpt lat="44.57871" lon="1.07203">
        <ele>268.35</ele>
        <time>2013-08-11T08:20:00Z</time>
      </trkpt>
      <trkpt lat="44.57874" lon="1.07203">
        <ele>270.75</ele>
        <time>2013-08-11T08:20:21Z</time>
      </trkpt>
      <trkpt lat="44.57874" lon="1.07208">
        <ele>270.75</ele>
        <time>2013-08-11T08:20:37Z</time>
      </trkpt>
      <trkpt lat="44.57872" lon="1.0721">
        <ele>271.23</ele>
        <time>2013-08-11T08:20:58Z</time>
      </trkpt>
      <trkpt lat="44.57872" lon="1.07213">
        <ele>270.75</ele>
        <time>2013-08-11T08:21:22Z</time>
      </trkpt>
      <trkpt lat="44.57871" lon="1.07212">
        <ele>272.19</ele>
        <time>2013-08-11T08:21:42Z</time>
      </trkpt>
      <trkpt lat="44.57873" lon="1.0721">
        <ele>272.19</ele>
        <time>2013-08-11T08:22:13Z</time>
      </trkpt>
      <trkpt lat="44.57872" lon="1.07222">
        <ele>270.75</ele>
        <time>2013-08-11T08:22:17Z</time>
      </trkpt>
      <trkpt lat="44.57865" lon="1.07266">
        <ele>266.9</ele>
        <time>2013-08-11T08:22:28Z</time>
      </trkpt>
      <trkpt lat="44.57851" lon="1.07336">
        <ele>264.02</ele>
        <time>2013-08-11T08:22:39Z</time>
      </trkpt>
      <trkpt lat="44.57838" lon="1.07406">
        <ele>264.5</ele>
        <time>2013-08-11T08:22:50Z</time>
      </trkpt>
      <trkpt lat="44.57828" lon="1.07462">
        <ele>266.9</ele>
        <time>2013-08-11T08:22:58Z</time>
      </trkpt>
      <trkpt lat="44.57829" lon="1.07483">
        <ele>269.31</ele>
        <time>2013-08-11T08:23:01Z</time>
      </trkpt>
      <trkpt lat="44.57828" lon="1.07528">
        <ele>273.15</ele>
        <time>2013-08-11T08:23:07Z</time>
      </trkpt>
      <trkpt lat="44.57824" lon="1.07589">
        <ele>273.63</ele>
        <time>2013-08-11T08:23:15Z</time>
      </trkpt>
      <trkpt lat="44.57821" lon="1.07618">
        <ele>273.15</ele>
        <time>2013-08-11T08:23:19Z</time>
      </trkpt>
      <trkpt lat="44.57818" lon="1.07641">
        <ele>272.19</ele>
        <time>2013-08-11T08:23:22Z</time>
      </trkpt>
      <trkpt lat="44.57815" lon="1.0767">
        <ele>271.71</ele>
        <time>2013-08-11T08:23:26Z</time>
      </trkpt>
      <trkpt lat="44.57814" lon="1.07686">
        <ele>270.75</ele>
        <time>2013-08-11T08:23:28Z</time>
      </trkpt>
      <trkpt lat="44.57812" lon="1.07715">
        <ele>269.31</ele>
        <time>2013-08-11T08:23:32Z</time>
      </trkpt>
      <trkpt lat="44.57809" lon="1.07736">
        <ele>267.38</ele>
        <time>2013-08-11T08:23:35Z</time>
      </trkpt>
      <trkpt lat="44.578" lon="1.07826">
        <ele>262.1</ele>
        <time>2013-08-11T08:23:47Z</time>
      </trkpt>
      <trkpt lat="44.57797" lon="1.07852">
        <ele>260.65</ele>
        <time>2013-08-11T08:23:51Z</time>
      </trkpt>
      <trkpt lat="44.57797" lon="1.07859">
        <ele>260.65</ele>
        <time>2013-08-11T08:23:52Z</time>
      </trkpt>
      <trkpt lat="44.57803" lon="1.07927">
        <ele>260.65</ele>
        <time>2013-08-11T08:24:02Z</time>
      </trkpt>
      <trkpt lat="44.5781" lon="1.0796">
        <ele>261.62</ele>
        <time>2013-08-11T08:24:06Z</time>
      </trkpt>
      <trkpt lat="44.5781" lon="1.07968">
        <ele>261.14</ele>
        <time>2013-08-11T08:24:07Z</time>
      </trkpt>
      <trkpt lat="44.5781" lon="1.07976">
        <ele>261.14</ele>
        <time>2013-08-11T08:24:08Z</time>
      </trkpt>
      <trkpt lat="44.5781" lon="1.08004">
        <ele>261.14</ele>
        <time>2013-08-11T08:24:11Z</time>
      </trkpt>
      <trkpt lat="44.57809" lon="1.08015">
        <ele>260.17</ele>
        <time>2013-08-11T08:24:12Z</time>
      </trkpt>
      <trkpt lat="44.57796" lon="1.08137">
        <ele>255.85</ele>
        <time>2013-08-11T08:24:23Z</time>
      </trkpt>
      <trkpt lat="44.57787" lon="1.08237">
        <ele>254.41</ele>
        <time>2013-08-11T08:24:34Z</time>
      </trkpt>
      <trkpt lat="44.57787" lon="1.08244">
        <ele>254.41</ele>
        <time>2013-08-11T08:24:35Z</time>
      </trkpt>
      <trkpt lat="44.57789" lon="1.0825">
        <ele>254.41</ele>
        <time>2013-08-11T08:24:36Z</time>
      </trkpt>
      <trkpt lat="44.57792" lon="1.08256">
        <ele>254.41</ele>
        <time>2013-08-11T08:24:37Z</time>
      </trkpt>
      <trkpt lat="44.57796" lon="1.08262">
        <ele>254.41</ele>
        <time>2013-08-11T08:24:38Z</time>
      </trkpt>
      <trkpt lat="44.578" lon="1.08268">
        <ele>253.93</ele>
        <time>2013-08-11T08:24:39Z</time>
      </trkpt>
      <trkpt lat="44.57868" lon="1.08352">
        <ele>250.08</ele>
        <time>2013-08-11T08:24:51Z</time>
      </trkpt>
      <trkpt lat="44.57879" lon="1.08366">
        <ele>249.12</ele>
        <time>2013-08-11T08:24:53Z</time>
      </trkpt>
      <trkpt lat="44.57898" lon="1.08392">
        <ele>247.68</ele>
        <time>2013-08-11T08:24:57Z</time>
      </trkpt>
      <trkpt lat="44.57903" lon="1.08396">
        <ele>247.2</ele>
        <time>2013-08-11T08:24:58Z</time>
      </trkpt>
      <trkpt lat="44.57918" lon="1.08408">
        <ele>246.23</ele>
        <time>2013-08-11T08:25:01Z</time>
      </trkpt>
      <trkpt lat="44.57925" lon="1.08415">
        <ele>246.23</ele>
        <time>2013-08-11T08:25:02Z</time>
      </trkpt>
      <trkpt lat="44.58006" lon="1.08502">
        <ele>242.87</ele>
        <time>2013-08-11T08:25:13Z</time>
      </trkpt>
      <trkpt lat="44.58062" lon="1.08535">
        <ele>241.43</ele>
        <time>2013-08-11T08:25:20Z</time>
      </trkpt>
      <trkpt lat="44.58094" lon="1.08561">
        <ele>240.47</ele>
        <time>2013-08-11T08:25:25Z</time>
      </trkpt>
      <trkpt lat="44.58101" lon="1.08564">
        <ele>240.47</ele>
        <time>2013-08-11T08:25:26Z</time>
      </trkpt>
      <trkpt lat="44.58108" lon="1.08565">
        <ele>240.47</ele>
        <time>2013-08-11T08:25:27Z</time>
      </trkpt>
      <trkpt lat="44.58116" lon="1.08565">
        <ele>239.99</ele>
        <time>2013-08-11T08:25:28Z</time>
      </trkpt>
      <trkpt lat="44.58124" lon="1.08565">
        <ele>239.99</ele>
        <time>2013-08-11T08:25:29Z</time>
      </trkpt>
      <trkpt lat="44.58134" lon="1.08562">
        <ele>239.99</ele>
        <time>2013-08-11T08:25:30Z</time>
      </trkpt>
      <trkpt lat="44.58143" lon="1.0856">
        <ele>239.51</ele>
        <time>2013-08-11T08:25:31Z</time>
      </trkpt>
      <trkpt lat="44.58151" lon="1.08557">
        <ele>239.02</ele>
        <time>2013-08-11T08:25:32Z</time>
      </trkpt>
      <trkpt lat="44.58248" lon="1.08518">
        <ele>234.7</ele>
        <time>2013-08-11T08:25:42Z</time>
      </trkpt>
      <trkpt lat="44.58257" lon="1.0851">
        <ele>234.22</ele>
        <time>2013-08-11T08:25:43Z</time>
      </trkpt>
      <trkpt lat="44.58265" lon="1.08501">
        <ele>233.74</ele>
        <time>2013-08-11T08:25:44Z</time>
      </trkpt>
      <trkpt lat="44.58271" lon="1.0849">
        <ele>233.74</ele>
        <time>2013-08-11T08:25:45Z</time>
      </trkpt>
      <trkpt lat="44.58275" lon="1.08478">
        <ele>233.26</ele>
        <time>2013-08-11T08:25:46Z</time>
      </trkpt>
      <trkpt lat="44.58279" lon="1.08464">
        <ele>233.26</ele>
        <time>2013-08-11T08:25:47Z</time>
      </trkpt>
      <trkpt lat="44.58282" lon="1.08451">
        <ele>232.78</ele>
        <time>2013-08-11T08:25:48Z</time>
      </trkpt>
      <trkpt lat="44.5829" lon="1.08426">
        <ele>232.3</ele>
        <time>2013-08-11T08:25:50Z</time>
      </trkpt>
      <trkpt lat="44.58294" lon="1.08414">
        <ele>232.3</ele>
        <time>2013-08-11T08:25:51Z</time>
      </trkpt>
      <trkpt lat="44.583" lon="1.08403">
        <ele>231.81</ele>
        <time>2013-08-11T08:25:52Z</time>
      </trkpt>
      <trkpt lat="44.58306" lon="1.08393">
        <ele>231.33</ele>
        <time>2013-08-11T08:25:53Z</time>
      </trkpt>
      <trkpt lat="44.58313" lon="1.08383">
        <ele>231.33</ele>
        <time>2013-08-11T08:25:54Z</time>
      </trkpt>
      <trkpt lat="44.5835" lon="1.08339">
        <ele>230.37</ele>
        <time>2013-08-11T08:26:00Z</time>
      </trkpt>
      <trkpt lat="44.58406" lon="1.08311">
        <ele>229.89</ele>
        <time>2013-08-11T08:26:10Z</time>
      </trkpt>
      <trkpt lat="44.58412" lon="1.08308">
        <ele>229.89</ele>
        <time>2013-08-11T08:26:11Z</time>
      </trkpt>
      <trkpt lat="44.58423" lon="1.08301">
        <ele>229.41</ele>
        <time>2013-08-11T08:26:13Z</time>
      </trkpt>
      <trkpt lat="44.58429" lon="1.08295">
        <ele>229.89</ele>
        <time>2013-08-11T08:26:14Z</time>
      </trkpt>
      <trkpt lat="44.58441" lon="1.08282">
        <ele>229.89</ele>
        <time>2013-08-11T08:26:16Z</time>
      </trkpt>
      <trkpt lat="44.58473" lon="1.08254">
        <ele>229.41</ele>
        <time>2013-08-11T08:26:21Z</time>
      </trkpt>
      <trkpt lat="44.58523" lon="1.08225">
        <ele>227.97</ele>
        <time>2013-08-11T08:26:29Z</time>
      </trkpt>
      <trkpt lat="44.58535" lon="1.0822">
        <ele>227.49</ele>
        <time>2013-08-11T08:26:31Z</time>
      </trkpt>
      <trkpt lat="44.58562" lon="1.0821">
        <ele>227.01</ele>
        <time>2013-08-11T08:26:35Z</time>
      </trkpt>
      <trkpt lat="44.5857" lon="1.08205">
        <ele>227.01</ele>
        <time>2013-08-11T08:26:36Z</time>
      </trkpt>
      <trkpt lat="44.58686" lon="1.0811">
        <ele>224.12</ele>
        <time>2013-08-11T08:26:49Z</time>
      </trkpt>
      <trkpt lat="44.58758" lon="1.08066">
        <ele>216.91</ele>
        <time>2013-08-11T08:26:58Z</time>
      </trkpt>
      <trkpt lat="44.58762" lon="1.08059">
        <ele>216.43</ele>
        <time>2013-08-11T08:26:59Z</time>
      </trkpt>
      <trkpt lat="44.58765" lon="1.0805">
        <ele>215.95</ele>
        <time>2013-08-11T08:27:00Z</time>
      </trkpt>
      <trkpt lat="44.58764" lon="1.08041">
        <ele>215.47</ele>
        <time>2013-08-11T08:27:01Z</time>
      </trkpt>
      <trkpt lat="44.58763" lon="1.08032">
        <ele>214.99</ele>
        <time>2013-08-11T08:27:02Z</time>
      </trkpt>
      <trkpt lat="44.58762" lon="1.08023">
        <ele>214.03</ele>
        <time>2013-08-11T08:27:03Z</time>
      </trkpt>
      <trkpt lat="44.5876" lon="1.08014">
        <ele>213.55</ele>
        <time>2013-08-11T08:27:04Z</time>
      </trkpt>
      <trkpt lat="44.58754" lon="1.07996">
        <ele>211.63</ele>
        <time>2013-08-11T08:27:06Z</time>
      </trkpt>
      <trkpt lat="44.58744" lon="1.0798">
        <ele>210.19</ele>
        <time>2013-08-11T08:27:08Z</time>
      </trkpt>
      <trkpt lat="44.58739" lon="1.07973">
        <ele>209.7</ele>
        <time>2013-08-11T08:27:09Z</time>
      </trkpt>
      <trkpt lat="44.58733" lon="1.07966">
        <ele>208.74</ele>
        <time>2013-08-11T08:27:10Z</time>
      </trkpt>
      <trkpt lat="44.5871" lon="1.0794">
        <ele>207.78</ele>
        <time>2013-08-11T08:27:14Z</time>
      </trkpt>
      <trkpt lat="44.58705" lon="1.07933">
        <ele>207.3</ele>
        <time>2013-08-11T08:27:15Z</time>
      </trkpt>
      <trkpt lat="44.58701" lon="1.07925">
        <ele>207.3</ele>
        <time>2013-08-11T08:27:16Z</time>
      </trkpt>
      <trkpt lat="44.58687" lon="1.07891">
        <ele>206.34</ele>
        <time>2013-08-11T08:27:20Z</time>
      </trkpt>
      <trkpt lat="44.58674" lon="1.07836">
        <ele>205.86</ele>
        <time>2013-08-11T08:27:27Z</time>
      </trkpt>
      <trkpt lat="44.58675" lon="1.07831">
        <ele>205.86</ele>
        <time>2013-08-11T08:27:28Z</time>
      </trkpt>
      <trkpt lat="44.58677" lon="1.07828">
        <ele>205.38</ele>
        <time>2013-08-11T08:27:29Z</time>
      </trkpt>
      <trkpt lat="44.58682" lon="1.07833">
        <ele>204.42</ele>
        <time>2013-08-11T08:27:31Z</time>
      </trkpt>
      <trkpt lat="44.58685" lon="1.07837">
        <ele>204.42</ele>
        <time>2013-08-11T08:27:32Z</time>
      </trkpt>
      <trkpt lat="44.58694" lon="1.0785">
        <ele>202.98</ele>
        <time>2013-08-11T08:27:35Z</time>
      </trkpt>
      <trkpt lat="44.58714" lon="1.0785">
        <ele>202.49</ele>
        <time>2013-08-11T08:27:40Z</time>
      </trkpt>
      <trkpt lat="44.58739" lon="1.0783">
        <ele>202.49</ele>
        <time>2013-08-11T08:27:46Z</time>
      </trkpt>
      <trkpt lat="44.58756" lon="1.07823">
        <ele>206.34</ele>
        <time>2013-08-11T08:27:57Z</time>
      </trkpt>
      <trkpt lat="44.58768" lon="1.0782">
        <ele>209.7</ele>
        <time>2013-08-11T08:28:09Z</time>
      </trkpt>
      <trkpt lat="44.5878" lon="1.07818">
        <ele>213.55</ele>
        <time>2013-08-11T08:28:20Z</time>
      </trkpt>
      <trkpt lat="44.58789" lon="1.0781">
        <ele>216.43</ele>
        <time>2013-08-11T08:28:37Z</time>
      </trkpt>
      <trkpt lat="44.58793" lon="1.07805">
        <ele>218.36</ele>
        <time>2013-08-11T08:28:43Z</time>
      </trkpt>
      <trkpt lat="44.58798" lon="1.078">
        <ele>221.72</ele>
        <time>2013-08-11T08:28:50Z</time>
      </trkpt>
      <trkpt lat="44.58806" lon="1.07794">
        <ele>225.57</ele>
        <time>2013-08-11T08:28:57Z</time>
      </trkpt>
      <trkpt lat="44.58817" lon="1.0779">
        <ele>228.93</ele>
        <time>2013-08-11T08:29:07Z</time>
      </trkpt>
      <trkpt lat="44.5883" lon="1.07787">
        <ele>235.66</ele>
        <time>2013-08-11T08:29:23Z</time>
      </trkpt>
      <trkpt lat="44.58841" lon="1.07783">
        <ele>240.95</ele>
        <time>2013-08-11T08:29:38Z</time>
      </trkpt>
      <trkpt lat="44.58853" lon="1.07779">
        <ele>245.75</ele>
        <time>2013-08-11T08:29:52Z</time>
      </trkpt>
      <trkpt lat="44.58859" lon="1.07776">
        <ele>249.12</ele>
        <time>2013-08-11T08:30:06Z</time>
      </trkpt>
      <trkpt lat="44.58866" lon="1.07771">
        <ele>252</ele>
        <time>2013-08-11T08:30:11Z</time>
      </trkpt>
      <trkpt lat="44.58886" lon="1.07765">
        <ele>258.25</ele>
        <time>2013-08-11T08:30:25Z</time>
      </trkpt>
      <trkpt lat="44.58903" lon="1.07761">
        <ele>259.69</ele>
        <time>2013-08-11T08:30:39Z</time>
      </trkpt>
      <trkpt lat="44.58916" lon="1.07756">
        <ele>261.14</ele>
        <time>2013-08-11T08:30:51Z</time>
      </trkpt>
      <trkpt lat="44.58927" lon="1.07754">
        <ele>261.62</ele>
        <time>2013-08-11T08:30:57Z</time>
      </trkpt>
      <trkpt lat="44.58939" lon="1.07749">
        <ele>264.02</ele>
        <time>2013-08-11T08:31:04Z</time>
      </trkpt>
      <trkpt lat="44.58949" lon="1.07747">
        <ele>266.9</ele>
        <time>2013-08-11T08:31:10Z</time>
      </trkpt>
      <trkpt lat="44.58957" lon="1.07743">
        <ele>268.35</ele>
        <time>2013-08-11T08:31:23Z</time>
      </trkpt>
      <trkpt lat="44.58969" lon="1.07739">
        <ele>266.9</ele>
        <time>2013-08-11T08:31:36Z</time>
      </trkpt>
      <trkpt lat="44.58992" lon="1.07725">
        <ele>267.38</ele>
        <time>2013-08-11T08:31:49Z</time>
      </trkpt>
      <trkpt lat="44.59006" lon="1.07716">
        <ele>273.63</ele>
        <time>2013-08-11T08:31:59Z</time>
      </trkpt>
      <trkpt lat="44.59026" lon="1.07702">
        <ele>279.4</ele>
        <time>2013-08-11T08:32:11Z</time>
      </trkpt>
      <trkpt lat="44.59049" lon="1.07683">
        <ele>270.27</ele>
        <time>2013-08-11T08:32:22Z</time>
      </trkpt>
      <trkpt lat="44.5908" lon="1.07661">
        <ele>264.02</ele>
        <time>2013-08-11T08:32:39Z</time>
      </trkpt>
      <trkpt lat="44.59104" lon="1.07638">
        <ele>265.46</ele>
        <time>2013-08-11T08:32:54Z</time>
      </trkpt>
      <trkpt lat="44.59129" lon="1.07593">
        <ele>267.38</ele>
        <time>2013-08-11T08:33:12Z</time>
      </trkpt>
      <trkpt lat="44.59158" lon="1.07541">
        <ele>272.19</ele>
        <time>2013-08-11T08:33:28Z</time>
      </trkpt>
      <trkpt lat="44.59192" lon="1.07498">
        <ele>273.15</ele>
        <time>2013-08-11T08:33:44Z</time>
      </trkpt>
      <trkpt lat="44.59212" lon="1.07468">
        <ele>274.59</ele>
        <time>2013-08-11T08:34:00Z</time>
      </trkpt>
      <trkpt lat="44.59235" lon="1.07447">
        <ele>274.11</ele>
        <time>2013-08-11T08:34:14Z</time>
      </trkpt>
      <trkpt lat="44.59243" lon="1.07442">
        <ele>273.15</ele>
        <time>2013-08-11T08:34:19Z</time>
      </trkpt>
      <trkpt lat="44.59255" lon="1.07435">
        <ele>272.67</ele>
        <time>2013-08-11T08:34:27Z</time>
      </trkpt>
      <trkpt lat="44.5928" lon="1.07421">
        <ele>272.19</ele>
        <time>2013-08-11T08:34:39Z</time>
      </trkpt>
      <trkpt lat="44.59304" lon="1.07408">
        <ele>274.11</ele>
        <time>2013-08-11T08:34:52Z</time>
      </trkpt>
      <trkpt lat="44.59329" lon="1.07392">
        <ele>275.56</ele>
        <time>2013-08-11T08:35:06Z</time>
      </trkpt>
      <trkpt lat="44.59349" lon="1.07379">
        <ele>277.48</ele>
        <time>2013-08-11T08:35:17Z</time>
      </trkpt>
      <trkpt lat="44.59379" lon="1.07354">
        <ele>282.77</ele>
        <time>2013-08-11T08:35:29Z</time>
      </trkpt>
      <trkpt lat="44.59408" lon="1.07329">
        <ele>288.05</ele>
        <time>2013-08-11T08:35:40Z</time>
      </trkpt>
      <trkpt lat="44.59444" lon="1.07306">
        <ele>291.9</ele>
        <time>2013-08-11T08:35:53Z</time>
      </trkpt>
      <trkpt lat="44.59462" lon="1.07304">
        <ele>292.38</ele>
        <time>2013-08-11T08:35:58Z</time>
      </trkpt>
      <trkpt lat="44.59511" lon="1.07325">
        <ele>289.01</ele>
        <time>2013-08-11T08:36:11Z</time>
      </trkpt>
      <trkpt lat="44.59546" lon="1.0734">
        <ele>291.42</ele>
        <time>2013-08-11T08:36:25Z</time>
      </trkpt>
      <trkpt lat="44.59571" lon="1.07338">
        <ele>292.38</ele>
        <time>2013-08-11T08:36:35Z</time>
      </trkpt>
      <trkpt lat="44.59586" lon="1.0733">
        <ele>294.78</ele>
        <time>2013-08-11T08:36:43Z</time>
      </trkpt>
      <trkpt lat="44.59616" lon="1.07312">
        <ele>294.3</ele>
        <time>2013-08-11T08:36:49Z</time>
      </trkpt>
      <trkpt lat="44.59631" lon="1.07299">
        <ele>292.86</ele>
        <time>2013-08-11T08:36:54Z</time>
      </trkpt>
      <trkpt lat="44.59634" lon="1.07294">
        <ele>292.38</ele>
        <time>2013-08-11T08:36:59Z</time>
      </trkpt>
      <trkpt lat="44.59634" lon="1.07289">
        <ele>292.86</ele>
        <time>2013-08-11T08:37:15Z</time>
      </trkpt>
      <trkpt lat="44.59635" lon="1.07288">
        <ele>292.38</ele>
        <time>2013-08-11T08:37:20Z</time>
      </trkpt>
      <trkpt lat="44.59637" lon="1.07285">
        <ele>291.9</ele>
        <time>2013-08-11T08:37:22Z</time>
      </trkpt>
      <trkpt lat="44.59639" lon="1.07282">
        <ele>292.38</ele>
        <time>2013-08-11T08:37:23Z</time>
      </trkpt>
      <trkpt lat="44.5964" lon="1.07279">
        <ele>292.38</ele>
        <time>2013-08-11T08:37:24Z</time>
      </trkpt>
      <trkpt lat="44.59641" lon="1.07277">
        <ele>292.86</ele>
        <time>2013-08-11T08:37:25Z</time>
      </trkpt>
      <trkpt lat="44.59642" lon="1.07274">
        <ele>293.34</ele>
        <time>2013-08-11T08:37:26Z</time>
      </trkpt>
      <trkpt lat="44.59644" lon="1.07271">
        <ele>293.82</ele>
        <time>2013-08-11T08:37:27Z</time>
      </trkpt>
      <trkpt lat="44.59669" lon="1.07243">
        <ele>298.63</ele>
        <time>2013-08-11T08:37:36Z</time>
      </trkpt>
      <trkpt lat="44.59685" lon="1.07223">
        <ele>300.55</ele>
        <time>2013-08-11T08:37:41Z</time>
      </trkpt>
      <trkpt lat="44.59709" lon="1.07196">
        <ele>301.99</ele>
        <time>2013-08-11T08:37:46Z</time>
      </trkpt>
      <trkpt lat="44.59753" lon="1.07138">
        <ele>301.99</ele>
        <time>2013-08-11T08:37:57Z</time>
      </trkpt>
      <trkpt lat="44.59768" lon="1.0712">
        <ele>301.51</ele>
        <time>2013-08-11T08:38:01Z</time>
      </trkpt>
      <trkpt lat="44.59782" lon="1.07094">
        <ele>301.51</ele>
        <time>2013-08-11T08:38:05Z</time>
      </trkpt>
      <trkpt lat="44.59818" lon="1.07049">
        <ele>296.22</ele>
        <time>2013-08-11T08:38:12Z</time>
      </trkpt>
      <trkpt lat="44.59824" lon="1.07029">
        <ele>291.9</ele>
        <time>2013-08-11T08:38:16Z</time>
      </trkpt>
      <trkpt lat="44.59846" lon="1.06963">
        <ele>285.65</ele>
        <time>2013-08-11T08:38:24Z</time>
      </trkpt>
      <trkpt lat="44.59854" lon="1.06944">
        <ele>284.21</ele>
        <time>2013-08-11T08:38:26Z</time>
      </trkpt>
      <trkpt lat="44.5987" lon="1.06918">
        <ele>282.77</ele>
        <time>2013-08-11T08:38:29Z</time>
      </trkpt>
      <trkpt lat="44.59865" lon="1.06882">
        <ele>278.44</ele>
        <time>2013-08-11T08:38:36Z</time>
      </trkpt>
      <trkpt lat="44.59838" lon="1.06871">
        <ele>272.19</ele>
        <time>2013-08-11T08:38:42Z</time>
      </trkpt>
      <trkpt lat="44.59836" lon="1.06863">
        <ele>272.19</ele>
        <time>2013-08-11T08:38:43Z</time>
      </trkpt>
      <trkpt lat="44.59836" lon="1.06821">
        <ele>270.75</ele>
        <time>2013-08-11T08:38:47Z</time>
      </trkpt>
      <trkpt lat="44.59839" lon="1.06802">
        <ele>269.79</ele>
        <time>2013-08-11T08:38:49Z</time>
      </trkpt>
      <trkpt lat="44.59845" lon="1.06775">
        <ele>268.83</ele>
        <time>2013-08-11T08:38:52Z</time>
      </trkpt>
      <trkpt lat="44.59849" lon="1.06718">
        <ele>266.9</ele>
        <time>2013-08-11T08:38:57Z</time>
      </trkpt>
      <trkpt lat="44.59864" lon="1.06664">
        <ele>267.38</ele>
        <time>2013-08-11T08:39:03Z</time>
      </trkpt>
      <trkpt lat="44.59875" lon="1.0662">
        <ele>269.31</ele>
        <time>2013-08-11T08:39:09Z</time>
      </trkpt>
      <trkpt lat="44.59873" lon="1.06596">
        <ele>270.27</ele>
        <time>2013-08-11T08:39:13Z</time>
      </trkpt>
      <trkpt lat="44.59886" lon="1.06573">
        <ele>272.19</ele>
        <time>2013-08-11T08:39:18Z</time>
      </trkpt>
      <trkpt lat="44.59895" lon="1.06566">
        <ele>273.15</ele>
        <time>2013-08-11T08:39:21Z</time>
      </trkpt>
      <trkpt lat="44.59924" lon="1.06537">
        <ele>269.79</ele>
        <time>2013-08-11T08:39:32Z</time>
      </trkpt>
      <trkpt lat="44.59946" lon="1.06478">
        <ele>272.67</ele>
        <time>2013-08-11T08:39:43Z</time>
      </trkpt>
      <trkpt lat="44.59974" lon="1.06427">
        <ele>273.15</ele>
        <time>2013-08-11T08:39:54Z</time>
      </trkpt>
      <trkpt lat="44.59987" lon="1.06401">
        <ele>273.63</ele>
        <time>2013-08-11T08:40:00Z</time>
      </trkpt>
      <trkpt lat="44.60002" lon="1.06376">
        <ele>273.63</ele>
        <time>2013-08-11T08:40:04Z</time>
      </trkpt>
      <trkpt lat="44.60026" lon="1.06327">
        <ele>276.52</ele>
        <time>2013-08-11T08:40:10Z</time>
      </trkpt>
      <trkpt lat="44.60035" lon="1.06289">
        <ele>277.96</ele>
        <time>2013-08-11T08:40:14Z</time>
      </trkpt>
      <trkpt lat="44.60071" lon="1.06185">
        <ele>265.94</ele>
        <time>2013-08-11T08:40:25Z</time>
      </trkpt>
      <trkpt lat="44.60073" lon="1.06178">
        <ele>264.98</ele>
        <time>2013-08-11T08:40:26Z</time>
      </trkpt>
      <trkpt lat="44.60092" lon="1.06145">
        <ele>262.58</ele>
        <time>2013-08-11T08:40:31Z</time>
      </trkpt>
      <trkpt lat="44.60103" lon="1.06091">
        <ele>251.52</ele>
        <time>2013-08-11T08:40:38Z</time>
      </trkpt>
      <trkpt lat="44.60079" lon="1.05963">
        <ele>230.85</ele>
        <time>2013-08-11T08:40:49Z</time>
      </trkpt>
      <trkpt lat="44.60078" lon="1.05926">
        <ele>226.53</ele>
        <time>2013-08-11T08:40:55Z</time>
      </trkpt>
      <trkpt lat="44.60079" lon="1.05922">
        <ele>226.53</ele>
        <time>2013-08-11T08:40:56Z</time>
      </trkpt>
      <trkpt lat="44.60081" lon="1.05909">
        <ele>226.05</ele>
        <time>2013-08-11T08:41:00Z</time>
      </trkpt>
      <trkpt lat="44.60079" lon="1.0589">
        <ele>227.01</ele>
        <time>2013-08-11T08:41:09Z</time>
      </trkpt>
      <trkpt lat="44.60082" lon="1.05872">
        <ele>228.45</ele>
        <time>2013-08-11T08:41:17Z</time>
      </trkpt>
      <trkpt lat="44.60081" lon="1.05858">
        <ele>231.33</ele>
        <time>2013-08-11T08:41:24Z</time>
      </trkpt>
      <trkpt lat="44.60077" lon="1.05828">
        <ele>233.26</ele>
        <time>2013-08-11T08:41:39Z</time>
      </trkpt>
      <trkpt lat="44.60078" lon="1.05803">
        <ele>235.18</ele>
        <time>2013-08-11T08:41:49Z</time>
      </trkpt>
      <trkpt lat="44.60078" lon="1.05781">
        <ele>237.1</ele>
        <time>2013-08-11T08:41:56Z</time>
      </trkpt>
      <trkpt lat="44.60075" lon="1.05767">
        <ele>239.51</ele>
        <time>2013-08-11T08:42:01Z</time>
      </trkpt>
      <trkpt lat="44.60073" lon="1.0572">
        <ele>245.75</ele>
        <time>2013-08-11T08:42:12Z</time>
      </trkpt>
      <trkpt lat="44.60077" lon="1.05716">
        <ele>245.27</ele>
        <time>2013-08-11T08:42:14Z</time>
      </trkpt>
      <trkpt lat="44.6008" lon="1.05717">
        <ele>244.79</ele>
        <time>2013-08-11T08:42:15Z</time>
      </trkpt>
      <trkpt lat="44.60082" lon="1.05719">
        <ele>243.83</ele>
        <time>2013-08-11T08:42:16Z</time>
      </trkpt>
      <trkpt lat="44.60084" lon="1.0572">
        <ele>242.87</ele>
        <time>2013-08-11T08:42:17Z</time>
      </trkpt>
      <trkpt lat="44.60086" lon="1.0572">
        <ele>241.91</ele>
        <time>2013-08-11T08:42:18Z</time>
      </trkpt>
      <trkpt lat="44.60088" lon="1.05721">
        <ele>241.91</ele>
        <time>2013-08-11T08:42:19Z</time>
      </trkpt>
      <trkpt lat="44.60113" lon="1.05746">
        <ele>234.7</ele>
        <time>2013-08-11T08:42:31Z</time>
      </trkpt>
      <trkpt lat="44.60127" lon="1.05757">
        <ele>234.22</ele>
        <time>2013-08-11T08:42:35Z</time>
      </trkpt>
      <trkpt lat="44.60136" lon="1.05763">
        <ele>233.26</ele>
        <time>2013-08-11T08:42:37Z</time>
      </trkpt>
      <trkpt lat="44.6014" lon="1.05765">
        <ele>232.78</ele>
        <time>2013-08-11T08:42:38Z</time>
      </trkpt>
      <trkpt lat="44.60145" lon="1.05767">
        <ele>232.78</ele>
        <time>2013-08-11T08:42:39Z</time>
      </trkpt>
      <trkpt lat="44.60194" lon="1.05777">
        <ele>229.41</ele>
        <time>2013-08-11T08:42:48Z</time>
      </trkpt>
      <trkpt lat="44.60282" lon="1.05814">
        <ele>225.57</ele>
        <time>2013-08-11T08:43:03Z</time>
      </trkpt>
      <trkpt lat="44.60359" lon="1.05828">
        <ele>220.76</ele>
        <time>2013-08-11T08:43:16Z</time>
      </trkpt>
      <trkpt lat="44.6037" lon="1.05831">
        <ele>220.28</ele>
        <time>2013-08-11T08:43:18Z</time>
      </trkpt>
      <trkpt lat="44.60376" lon="1.05833">
        <ele>219.8</ele>
        <time>2013-08-11T08:43:19Z</time>
      </trkpt>
      <trkpt lat="44.60419" lon="1.0584">
        <ele>217.88</ele>
        <time>2013-08-11T08:43:26Z</time>
      </trkpt>
      <trkpt lat="44.60502" lon="1.05834">
        <ele>214.03</ele>
        <time>2013-08-11T08:43:38Z</time>
      </trkpt>
      <trkpt lat="44.60588" lon="1.05814">
        <ele>208.26</ele>
        <time>2013-08-11T08:43:50Z</time>
      </trkpt>
      <trkpt lat="44.60642" lon="1.0579">
        <ele>204.42</ele>
        <time>2013-08-11T08:43:59Z</time>
      </trkpt>
      <trkpt lat="44.60646" lon="1.05785">
        <ele>203.94</ele>
        <time>2013-08-11T08:44:00Z</time>
      </trkpt>
      <trkpt lat="44.6065" lon="1.05778">
        <ele>203.46</ele>
        <time>2013-08-11T08:44:01Z</time>
      </trkpt>
      <trkpt lat="44.60653" lon="1.05769">
        <ele>202.98</ele>
        <time>2013-08-11T08:44:02Z</time>
      </trkpt>
      <trkpt lat="44.60643" lon="1.05703">
        <ele>199.13</ele>
        <time>2013-08-11T08:44:09Z</time>
      </trkpt>
      <trkpt lat="44.60634" lon="1.05685">
        <ele>197.21</ele>
        <time>2013-08-11T08:44:11Z</time>
      </trkpt>
      <trkpt lat="44.60611" lon="1.05658">
        <ele>194.8</ele>
        <time>2013-08-11T08:44:15Z</time>
      </trkpt>
      <trkpt lat="44.60593" lon="1.05628">
        <ele>193.36</ele>
        <time>2013-08-11T08:44:19Z</time>
      </trkpt>
      <trkpt lat="44.60577" lon="1.05602">
        <ele>193.36</ele>
        <time>2013-08-11T08:44:23Z</time>
      </trkpt>
      <trkpt lat="44.60567" lon="1.05589">
        <ele>193.36</ele>
        <time>2013-08-11T08:44:25Z</time>
      </trkpt>
      <trkpt lat="44.60561" lon="1.05536">
        <ele>192.4</ele>
        <time>2013-08-11T08:44:31Z</time>
      </trkpt>
      <trkpt lat="44.60576" lon="1.05522">
        <ele>191.92</ele>
        <time>2013-08-11T08:44:34Z</time>
      </trkpt>
      <trkpt lat="44.60614" lon="1.05489">
        <ele>192.88</ele>
        <time>2013-08-11T08:44:46Z</time>
      </trkpt>
      <trkpt lat="44.60623" lon="1.05451">
        <ele>193.84</ele>
        <time>2013-08-11T08:44:56Z</time>
      </trkpt>
      <trkpt lat="44.60632" lon="1.05422">
        <ele>199.13</ele>
        <time>2013-08-11T08:45:08Z</time>
      </trkpt>
      <trkpt lat="44.60638" lon="1.0541">
        <ele>204.42</ele>
        <time>2013-08-11T08:45:14Z</time>
      </trkpt>
      <trkpt lat="44.60655" lon="1.05395">
        <ele>214.99</ele>
        <time>2013-08-11T08:45:28Z</time>
      </trkpt>
      <trkpt lat="44.60668" lon="1.05379">
        <ele>221.72</ele>
        <time>2013-08-11T08:45:37Z</time>
      </trkpt>
      <trkpt lat="44.60673" lon="1.05364">
        <ele>226.05</ele>
        <time>2013-08-11T08:45:44Z</time>
      </trkpt>
      <trkpt lat="44.60684" lon="1.0532">
        <ele>237.58</ele>
        <time>2013-08-11T08:45:58Z</time>
      </trkpt>
      <trkpt lat="44.6069" lon="1.05283">
        <ele>248.16</ele>
        <time>2013-08-11T08:46:08Z</time>
      </trkpt>
      <trkpt lat="44.60695" lon="1.05262">
        <ele>252</ele>
        <time>2013-08-11T08:46:12Z</time>
      </trkpt>
      <trkpt lat="44.60699" lon="1.05242">
        <ele>253.93</ele>
        <time>2013-08-11T08:46:15Z</time>
      </trkpt>
      <trkpt lat="44.60712" lon="1.052">
        <ele>260.65</ele>
        <time>2013-08-11T08:46:24Z</time>
      </trkpt>
      <trkpt lat="44.60713" lon="1.05192">
        <ele>261.62</ele>
        <time>2013-08-11T08:46:26Z</time>
      </trkpt>
      <trkpt lat="44.60711" lon="1.05189">
        <ele>261.62</ele>
        <time>2013-08-11T08:46:27Z</time>
      </trkpt>
      <trkpt lat="44.60707" lon="1.05186">
        <ele>261.14</ele>
        <time>2013-08-11T08:46:29Z</time>
      </trkpt>
      <trkpt lat="44.60705" lon="1.05186">
        <ele>261.14</ele>
        <time>2013-08-11T08:46:30Z</time>
      </trkpt>
      <trkpt lat="44.60702" lon="1.05185">
        <ele>260.65</ele>
        <time>2013-08-11T08:46:31Z</time>
      </trkpt>
      <trkpt lat="44.607" lon="1.05184">
        <ele>260.65</ele>
        <time>2013-08-11T08:46:32Z</time>
      </trkpt>
      <trkpt lat="44.60697" lon="1.05184">
        <ele>260.17</ele>
        <time>2013-08-11T08:46:33Z</time>
      </trkpt>
      <trkpt lat="44.60687" lon="1.05177">
        <ele>257.29</ele>
        <time>2013-08-11T08:46:41Z</time>
      </trkpt>
      <trkpt lat="44.60685" lon="1.05176">
        <ele>257.29</ele>
        <time>2013-08-11T08:46:42Z</time>
      </trkpt>
      <trkpt lat="44.60659" lon="1.05174">
        <ele>251.52</ele>
        <time>2013-08-11T08:46:56Z</time>
      </trkpt>
      <trkpt lat="44.60643" lon="1.0518">
        <ele>231.33</ele>
        <time>2013-08-11T08:47:09Z</time>
      </trkpt>
      <trkpt lat="44.60626" lon="1.05188">
        <ele>227.49</ele>
        <time>2013-08-11T08:47:20Z</time>
      </trkpt>
      <trkpt lat="44.60624" lon="1.05188">
        <ele>226.53</ele>
        <time>2013-08-11T08:47:25Z</time>
      </trkpt>
      <trkpt lat="44.60622" lon="1.05189">
        <ele>226.05</ele>
        <time>2013-08-11T08:47:26Z</time>
      </trkpt>
      <trkpt lat="44.60619" lon="1.0519">
        <ele>226.05</ele>
        <time>2013-08-11T08:47:28Z</time>
      </trkpt>
      <trkpt lat="44.60616" lon="1.05191">
        <ele>225.57</ele>
        <time>2013-08-11T08:47:29Z</time>
      </trkpt>
      <trkpt lat="44.60614" lon="1.05191">
        <ele>225.57</ele>
        <time>2013-08-11T08:47:30Z</time>
      </trkpt>
      <trkpt lat="44.60612" lon="1.05192">
        <ele>225.09</ele>
        <time>2013-08-11T08:47:31Z</time>
      </trkpt>
      <trkpt lat="44.60609" lon="1.05191">
        <ele>225.09</ele>
        <time>2013-08-11T08:47:32Z</time>
      </trkpt>
      <trkpt lat="44.60606" lon="1.05191">
        <ele>224.61</ele>
        <time>2013-08-11T08:47:33Z</time>
      </trkpt>
      <trkpt lat="44.60604" lon="1.05192">
        <ele>224.12</ele>
        <time>2013-08-11T08:47:34Z</time>
      </trkpt>
      <trkpt lat="44.60602" lon="1.05193">
        <ele>223.64</ele>
        <time>2013-08-11T08:47:35Z</time>
      </trkpt>
      <trkpt lat="44.60599" lon="1.05193">
        <ele>223.64</ele>
        <time>2013-08-11T08:47:36Z</time>
      </trkpt>
      <trkpt lat="44.60567" lon="1.05193">
        <ele>223.16</ele>
        <time>2013-08-11T08:47:49Z</time>
      </trkpt>
      <trkpt lat="44.60563" lon="1.05191">
        <ele>223.64</ele>
        <time>2013-08-11T08:47:51Z</time>
      </trkpt>
      <trkpt lat="44.6056" lon="1.05191">
        <ele>223.64</ele>
        <time>2013-08-11T08:47:52Z</time>
      </trkpt>
      <trkpt lat="44.60558" lon="1.05191">
        <ele>223.64</ele>
        <time>2013-08-11T08:47:53Z</time>
      </trkpt>
      <trkpt lat="44.60555" lon="1.05191">
        <ele>224.12</ele>
        <time>2013-08-11T08:47:54Z</time>
      </trkpt>
      <trkpt lat="44.60552" lon="1.05191">
        <ele>224.61</ele>
        <time>2013-08-11T08:47:55Z</time>
      </trkpt>
      <trkpt lat="44.60549" lon="1.0519">
        <ele>224.61</ele>
        <time>2013-08-11T08:47:56Z</time>
      </trkpt>
      <trkpt lat="44.60546" lon="1.05189">
        <ele>225.09</ele>
        <time>2013-08-11T08:47:57Z</time>
      </trkpt>
      <trkpt lat="44.60543" lon="1.05189">
        <ele>225.09</ele>
        <time>2013-08-11T08:47:58Z</time>
      </trkpt>
      <trkpt lat="44.6054" lon="1.05188">
        <ele>225.09</ele>
        <time>2013-08-11T08:47:59Z</time>
      </trkpt>
      <trkpt lat="44.60496" lon="1.05188">
        <ele>225.57</ele>
        <time>2013-08-11T08:48:11Z</time>
      </trkpt>
      <trkpt lat="44.60453" lon="1.05193">
        <ele>225.57</ele>
        <time>2013-08-11T08:48:26Z</time>
      </trkpt>
      <trkpt lat="44.60409" lon="1.05184">
        <ele>227.01</ele>
        <time>2013-08-11T08:48:40Z</time>
      </trkpt>
      <trkpt lat="44.60367" lon="1.05161">
        <ele>230.85</ele>
        <time>2013-08-11T08:48:54Z</time>
      </trkpt>
      <trkpt lat="44.60312" lon="1.05124">
        <ele>231.33</ele>
        <time>2013-08-11T08:49:12Z</time>
      </trkpt>
      <trkpt lat="44.60271" lon="1.05101">
        <ele>233.26</ele>
        <time>2013-08-11T08:49:26Z</time>
      </trkpt>
      <trkpt lat="44.60262" lon="1.0509">
        <ele>233.74</ele>
        <time>2013-08-11T08:49:30Z</time>
      </trkpt>
      <trkpt lat="44.60262" lon="1.05086">
        <ele>233.74</ele>
        <time>2013-08-11T08:49:31Z</time>
      </trkpt>
      <trkpt lat="44.60263" lon="1.05081">
        <ele>233.74</ele>
        <time>2013-08-11T08:49:32Z</time>
      </trkpt>
      <trkpt lat="44.60279" lon="1.05038">
        <ele>231.33</ele>
        <time>2013-08-11T08:49:43Z</time>
      </trkpt>
      <trkpt lat="44.60297" lon="1.05019">
        <ele>229.41</ele>
        <time>2013-08-11T08:49:52Z</time>
      </trkpt>
      <trkpt lat="44.60322" lon="1.04974">
        <ele>229.41</ele>
        <time>2013-08-11T08:50:04Z</time>
      </trkpt>
      <trkpt lat="44.60358" lon="1.04936">
        <ele>233.74</ele>
        <time>2013-08-11T08:50:15Z</time>
      </trkpt>
      <trkpt lat="44.60385" lon="1.04899">
        <ele>239.02</ele>
        <time>2013-08-11T08:50:25Z</time>
      </trkpt>
      <trkpt lat="44.60396" lon="1.0488">
        <ele>242.39</ele>
        <time>2013-08-11T08:50:30Z</time>
      </trkpt>
      <trkpt lat="44.604" lon="1.04874">
        <ele>243.83</ele>
        <time>2013-08-11T08:50:31Z</time>
      </trkpt>
      <trkpt lat="44.60402" lon="1.0487">
        <ele>243.83</ele>
        <time>2013-08-11T08:50:32Z</time>
      </trkpt>
      <trkpt lat="44.60407" lon="1.04864">
        <ele>244.31</ele>
        <time>2013-08-11T08:50:33Z</time>
      </trkpt>
      <trkpt lat="44.60412" lon="1.04858">
        <ele>244.31</ele>
        <time>2013-08-11T08:50:34Z</time>
      </trkpt>
      <trkpt lat="44.60423" lon="1.04841">
        <ele>243.83</ele>
        <time>2013-08-11T08:50:37Z</time>
      </trkpt>
      <trkpt lat="44.60447" lon="1.04806">
        <ele>243.35</ele>
        <time>2013-08-11T08:50:42Z</time>
      </trkpt>
      <trkpt lat="44.60509" lon="1.04705">
        <ele>242.39</ele>
        <time>2013-08-11T08:50:56Z</time>
      </trkpt>
      <trkpt lat="44.60518" lon="1.04687">
        <ele>241.91</ele>
        <time>2013-08-11T08:50:58Z</time>
      </trkpt>
      <trkpt lat="44.60522" lon="1.04679">
        <ele>241.43</ele>
        <time>2013-08-11T08:50:59Z</time>
      </trkpt>
      <trkpt lat="44.60567" lon="1.04566">
        <ele>229.41</ele>
        <time>2013-08-11T08:51:11Z</time>
      </trkpt>
      <trkpt lat="44.60582" lon="1.04506">
        <ele>223.16</ele>
        <time>2013-08-11T08:51:17Z</time>
      </trkpt>
      <trkpt lat="44.60587" lon="1.04478">
        <ele>222.2</ele>
        <time>2013-08-11T08:51:20Z</time>
      </trkpt>
      <trkpt lat="44.60588" lon="1.04469">
        <ele>222.2</ele>
        <time>2013-08-11T08:51:21Z</time>
      </trkpt>
      <trkpt lat="44.60599" lon="1.04393">
        <ele>215.95</ele>
        <time>2013-08-11T08:51:30Z</time>
      </trkpt>
      <trkpt lat="44.60612" lon="1.04337">
        <ele>214.99</ele>
        <time>2013-08-11T08:51:37Z</time>
      </trkpt>
      <trkpt lat="44.60613" lon="1.04328">
        <ele>214.51</ele>
        <time>2013-08-11T08:51:38Z</time>
      </trkpt>
      <trkpt lat="44.60611" lon="1.04246">
        <ele>213.55</ele>
        <time>2013-08-11T08:51:48Z</time>
      </trkpt>
      <trkpt lat="44.6061" lon="1.0424">
        <ele>213.55</ele>
        <time>2013-08-11T08:51:49Z</time>
      </trkpt>
      <trkpt lat="44.6061" lon="1.04224">
        <ele>214.51</ele>
        <time>2013-08-11T08:51:52Z</time>
      </trkpt>
      <trkpt lat="44.60612" lon="1.04221">
        <ele>214.51</ele>
        <time>2013-08-11T08:51:53Z</time>
      </trkpt>
      <trkpt lat="44.60615" lon="1.04217">
        <ele>214.99</ele>
        <time>2013-08-11T08:51:54Z</time>
      </trkpt>
      <trkpt lat="44.60617" lon="1.04214">
        <ele>214.99</ele>
        <time>2013-08-11T08:51:55Z</time>
      </trkpt>
      <trkpt lat="44.60628" lon="1.04191">
        <ele>216.43</ele>
        <time>2013-08-11T08:52:00Z</time>
      </trkpt>
      <trkpt lat="44.6063" lon="1.04179">
        <ele>216.91</ele>
        <time>2013-08-11T08:52:02Z</time>
      </trkpt>
      <trkpt lat="44.60651" lon="1.04101">
        <ele>214.51</ele>
        <time>2013-08-11T08:52:14Z</time>
      </trkpt>
      <trkpt lat="44.60653" lon="1.04094">
        <ele>214.51</ele>
        <time>2013-08-11T08:52:15Z</time>
      </trkpt>
      <trkpt lat="44.60657" lon="1.04087">
        <ele>214.03</ele>
        <time>2013-08-11T08:52:16Z</time>
      </trkpt>
      <trkpt lat="44.60662" lon="1.04081">
        <ele>214.03</ele>
        <time>2013-08-11T08:52:17Z</time>
      </trkpt>
      <trkpt lat="44.60679" lon="1.04056">
        <ele>213.55</ele>
        <time>2013-08-11T08:52:21Z</time>
      </trkpt>
      <trkpt lat="44.60697" lon="1.04025">
        <ele>210.67</ele>
        <time>2013-08-11T08:52:25Z</time>
      </trkpt>
      <trkpt lat="44.607" lon="1.04018">
        <ele>210.19</ele>
        <time>2013-08-11T08:52:26Z</time>
      </trkpt>
      <trkpt lat="44.60712" lon="1.03982">
        <ele>208.74</ele>
        <time>2013-08-11T08:52:31Z</time>
      </trkpt>
      <trkpt lat="44.60728" lon="1.03966">
        <ele>206.34</ele>
        <time>2013-08-11T08:52:35Z</time>
      </trkpt>
      <trkpt lat="44.60757" lon="1.03942">
        <ele>199.61</ele>
        <time>2013-08-11T08:52:44Z</time>
      </trkpt>
      <trkpt lat="44.60769" lon="1.03919">
        <ele>196.25</ele>
        <time>2013-08-11T08:52:48Z</time>
      </trkpt>
      <trkpt lat="44.60777" lon="1.03884">
        <ele>192.88</ele>
        <time>2013-08-11T08:52:52Z</time>
      </trkpt>
      <trkpt lat="44.60785" lon="1.03832">
        <ele>186.63</ele>
        <time>2013-08-11T08:52:59Z</time>
      </trkpt>
      <trkpt lat="44.608" lon="1.0381">
        <ele>182.31</ele>
        <time>2013-08-11T08:53:03Z</time>
      </trkpt>
      <trkpt lat="44.60814" lon="1.03787">
        <ele>178.46</ele>
        <time>2013-08-11T08:53:06Z</time>
      </trkpt>
      <trkpt lat="44.60852" lon="1.03746">
        <ele>171.73</ele>
        <time>2013-08-11T08:53:13Z</time>
      </trkpt>
      <trkpt lat="44.60853" lon="1.03718">
        <ele>169.81</ele>
        <time>2013-08-11T08:53:16Z</time>
      </trkpt>
      <trkpt lat="44.60849" lon="1.03711">
        <ele>169.33</ele>
        <time>2013-08-11T08:53:17Z</time>
      </trkpt>
      <trkpt lat="44.60844" lon="1.03705">
        <ele>168.37</ele>
        <time>2013-08-11T08:53:18Z</time>
      </trkpt>
      <trkpt lat="44.60838" lon="1.03698">
        <ele>167.41</ele>
        <time>2013-08-11T08:53:19Z</time>
      </trkpt>
      <trkpt lat="44.60834" lon="1.03691">
        <ele>166.93</ele>
        <time>2013-08-11T08:53:20Z</time>
      </trkpt>
      <trkpt lat="44.60834" lon="1.03684">
        <ele>166.45</ele>
        <time>2013-08-11T08:53:21Z</time>
      </trkpt>
      <trkpt lat="44.60834" lon="1.03678">
        <ele>165.96</ele>
        <time>2013-08-11T08:53:22Z</time>
      </trkpt>
      <trkpt lat="44.60837" lon="1.03674">
        <ele>165</ele>
        <time>2013-08-11T08:53:23Z</time>
      </trkpt>
      <trkpt lat="44.60839" lon="1.0367">
        <ele>165</ele>
        <time>2013-08-11T08:53:24Z</time>
      </trkpt>
      <trkpt lat="44.60842" lon="1.03666">
        <ele>164.52</ele>
        <time>2013-08-11T08:53:25Z</time>
      </trkpt>
      <trkpt lat="44.60843" lon="1.03661">
        <ele>164.52</ele>
        <time>2013-08-11T08:53:26Z</time>
      </trkpt>
      <trkpt lat="44.60844" lon="1.03656">
        <ele>164.52</ele>
        <time>2013-08-11T08:53:27Z</time>
      </trkpt>
      <trkpt lat="44.60844" lon="1.03651">
        <ele>164.04</ele>
        <time>2013-08-11T08:53:28Z</time>
      </trkpt>
      <trkpt lat="44.60844" lon="1.03644">
        <ele>164.04</ele>
        <time>2013-08-11T08:53:29Z</time>
      </trkpt>
      <trkpt lat="44.60844" lon="1.03638">
        <ele>164.04</ele>
        <time>2013-08-11T08:53:30Z</time>
      </trkpt>
      <trkpt lat="44.60844" lon="1.03632">
        <ele>163.56</ele>
        <time>2013-08-11T08:53:31Z</time>
      </trkpt>
      <trkpt lat="44.60843" lon="1.03613">
        <ele>163.08</ele>
        <time>2013-08-11T08:53:34Z</time>
      </trkpt>
      <trkpt lat="44.60843" lon="1.03601">
        <ele>163.56</ele>
        <time>2013-08-11T08:53:36Z</time>
      </trkpt>
      <trkpt lat="44.60834" lon="1.03566">
        <ele>162.6</ele>
        <time>2013-08-11T08:53:43Z</time>
      </trkpt>
      <trkpt lat="44.60831" lon="1.0356">
        <ele>162.12</ele>
        <time>2013-08-11T08:53:44Z</time>
      </trkpt>
      <trkpt lat="44.60829" lon="1.03554">
        <ele>161.64</ele>
        <time>2013-08-11T08:53:45Z</time>
      </trkpt>
      <trkpt lat="44.60828" lon="1.03547">
        <ele>161.64</ele>
        <time>2013-08-11T08:53:46Z</time>
      </trkpt>
      <trkpt lat="44.60827" lon="1.03539">
        <ele>161.16</ele>
        <time>2013-08-11T08:53:47Z</time>
      </trkpt>
      <trkpt lat="44.60826" lon="1.03531">
        <ele>160.68</ele>
        <time>2013-08-11T08:53:48Z</time>
      </trkpt>
      <trkpt lat="44.60825" lon="1.03523">
        <ele>160.2</ele>
        <time>2013-08-11T08:53:49Z</time>
      </trkpt>
      <trkpt lat="44.60824" lon="1.03515">
        <ele>159.72</ele>
        <time>2013-08-11T08:53:50Z</time>
      </trkpt>
      <trkpt lat="44.6082" lon="1.03497">
        <ele>158.75</ele>
        <time>2013-08-11T08:53:52Z</time>
      </trkpt>
      <trkpt lat="44.60817" lon="1.03489">
        <ele>158.27</ele>
        <time>2013-08-11T08:53:53Z</time>
      </trkpt>
      <trkpt lat="44.60813" lon="1.0348">
        <ele>157.31</ele>
        <time>2013-08-11T08:53:54Z</time>
      </trkpt>
      <trkpt lat="44.60808" lon="1.03473">
        <ele>156.83</ele>
        <time>2013-08-11T08:53:55Z</time>
      </trkpt>
      <trkpt lat="44.60803" lon="1.03464">
        <ele>156.35</ele>
        <time>2013-08-11T08:53:56Z</time>
      </trkpt>
      <trkpt lat="44.60797" lon="1.03457">
        <ele>155.39</ele>
        <time>2013-08-11T08:53:57Z</time>
      </trkpt>
      <trkpt lat="44.60792" lon="1.03449">
        <ele>154.43</ele>
        <time>2013-08-11T08:53:58Z</time>
      </trkpt>
      <trkpt lat="44.60787" lon="1.03441">
        <ele>152.99</ele>
        <time>2013-08-11T08:53:59Z</time>
      </trkpt>
      <trkpt lat="44.60751" lon="1.03381">
        <ele>143.37</ele>
        <time>2013-08-11T08:54:07Z</time>
      </trkpt>
      <trkpt lat="44.60743" lon="1.0337">
        <ele>140.97</ele>
        <time>2013-08-11T08:54:10Z</time>
      </trkpt>
      <trkpt lat="44.60739" lon="1.0337">
        <ele>140.49</ele>
        <time>2013-08-11T08:54:11Z</time>
      </trkpt>
      <trkpt lat="44.60734" lon="1.03372">
        <ele>140.01</ele>
        <time>2013-08-11T08:54:12Z</time>
      </trkpt>
      <trkpt lat="44.60688" lon="1.03403">
        <ele>140.97</ele>
        <time>2013-08-11T08:54:22Z</time>
      </trkpt>
      <trkpt lat="44.60679" lon="1.03407">
        <ele>140.49</ele>
        <time>2013-08-11T08:54:24Z</time>
      </trkpt>
      <trkpt lat="44.60675" lon="1.03406">
        <ele>140.49</ele>
        <time>2013-08-11T08:54:25Z</time>
      </trkpt>
      <trkpt lat="44.6067" lon="1.03402">
        <ele>140.01</ele>
        <time>2013-08-11T08:54:26Z</time>
      </trkpt>
      <trkpt lat="44.6066" lon="1.03395">
        <ele>139.53</ele>
        <time>2013-08-11T08:54:28Z</time>
      </trkpt>
      <trkpt lat="44.60655" lon="1.03393">
        <ele>139.05</ele>
        <time>2013-08-11T08:54:29Z</time>
      </trkpt>
      <trkpt lat="44.60649" lon="1.03393">
        <ele>139.05</ele>
        <time>2013-08-11T08:54:30Z</time>
      </trkpt>
      <trkpt lat="44.60644" lon="1.03393">
        <ele>138.57</ele>
        <time>2013-08-11T08:54:31Z</time>
      </trkpt>
      <trkpt lat="44.60639" lon="1.03392">
        <ele>138.57</ele>
        <time>2013-08-11T08:54:32Z</time>
      </trkpt>
      <trkpt lat="44.60634" lon="1.0339">
        <ele>138.57</ele>
        <time>2013-08-11T08:54:33Z</time>
      </trkpt>
      <trkpt lat="44.60631" lon="1.03386">
        <ele>138.57</ele>
        <time>2013-08-11T08:54:34Z</time>
      </trkpt>
      <trkpt lat="44.60628" lon="1.03382">
        <ele>139.05</ele>
        <time>2013-08-11T08:54:35Z</time>
      </trkpt>
      <trkpt lat="44.60625" lon="1.03379">
        <ele>139.05</ele>
        <time>2013-08-11T08:54:36Z</time>
      </trkpt>
      <trkpt lat="44.60623" lon="1.03377">
        <ele>139.05</ele>
        <time>2013-08-11T08:54:37Z</time>
      </trkpt>
      <trkpt lat="44.60622" lon="1.03374">
        <ele>139.05</ele>
        <time>2013-08-11T08:54:38Z</time>
      </trkpt>
      <trkpt lat="44.60619" lon="1.0337">
        <ele>139.05</ele>
        <time>2013-08-11T08:54:40Z</time>
      </trkpt>
      <trkpt lat="44.60618" lon="1.03369">
        <ele>139.53</ele>
        <time>2013-08-11T08:54:41Z</time>
      </trkpt>
      <trkpt lat="44.60616" lon="1.03368">
        <ele>139.53</ele>
        <time>2013-08-11T08:54:42Z</time>
      </trkpt>
      <trkpt lat="44.60614" lon="1.03368">
        <ele>139.53</ele>
        <time>2013-08-11T08:54:43Z</time>
      </trkpt>
      <trkpt lat="44.60613" lon="1.03368">
        <ele>139.05</ele>
        <time>2013-08-11T08:54:44Z</time>
      </trkpt>
      <trkpt lat="44.60612" lon="1.03368">
        <ele>139.05</ele>
        <time>2013-08-11T08:54:45Z</time>
      </trkpt>
      <trkpt lat="44.60612" lon="1.03365">
        <ele>137.61</ele>
        <time>2013-08-11T08:54:56Z</time>
      </trkpt>
      <trkpt lat="44.60613" lon="1.03365">
        <ele>135.2</ele>
        <time>2013-08-11T08:55:39Z</time>
      </trkpt>
      <trkpt lat="44.60615" lon="1.03367">
        <ele>136.16</ele>
        <time>2013-08-11T08:56:16Z</time>
      </trkpt>
      <trkpt lat="44.60614" lon="1.03366">
        <ele>135.68</ele>
        <time>2013-08-11T08:56:53Z</time>
      </trkpt>
      <trkpt lat="44.60612" lon="1.03366">
        <ele>138.09</ele>
        <time>2013-08-11T08:57:26Z</time>
      </trkpt>
      <trkpt lat="44.60614" lon="1.03366">
        <ele>139.05</ele>
        <time>2013-08-11T08:58:02Z</time>
      </trkpt>
      <trkpt lat="44.60615" lon="1.03366">
        <ele>139.53</ele>
        <time>2013-08-11T08:58:25Z</time>
      </trkpt>
      <trkpt lat="44.60613" lon="1.03366">
        <ele>140.49</ele>
        <time>2013-08-11T08:58:42Z</time>
      </trkpt>
      <trkpt lat="44.60613" lon="1.03366">
        <ele>140.49</ele>
        <time>2013-08-11T08:59:00Z</time>
      </trkpt>
      <trkpt lat="44.60613" lon="1.03366">
        <ele>140.49</ele>
        <time>2013-08-11T08:59:16Z</time>
      </trkpt>
      <trkpt lat="44.60613" lon="1.03366">
        <ele>140.01</ele>
        <time>2013-08-11T08:59:21Z</time>
      </trkpt>
      <trkpt lat="44.60615" lon="1.03365">
        <ele>140.49</ele>
        <time>2013-08-11T08:59:22Z</time>
      </trkpt>
      <trkpt lat="44.60616" lon="1.03364">
        <ele>140.49</ele>
        <time>2013-08-11T08:59:23Z</time>
      </trkpt>
      <trkpt lat="44.60619" lon="1.03362">
        <ele>140.49</ele>
        <time>2013-08-11T08:59:24Z</time>
      </trkpt>
      <trkpt lat="44.60621" lon="1.0336">
        <ele>140.49</ele>
        <time>2013-08-11T08:59:25Z</time>
      </trkpt>
      <trkpt lat="44.60624" lon="1.03357">
        <ele>140.49</ele>
        <time>2013-08-11T08:59:26Z</time>
      </trkpt>
      <trkpt lat="44.60626" lon="1.03353">
        <ele>140.49</ele>
        <time>2013-08-11T08:59:27Z</time>
      </trkpt>
      <trkpt lat="44.60639" lon="1.03329">
        <ele>140.01</ele>
        <time>2013-08-11T08:59:32Z</time>
      </trkpt>
      <trkpt lat="44.60666" lon="1.03268">
        <ele>141.93</ele>
        <time>2013-08-11T08:59:44Z</time>
      </trkpt>
      <trkpt lat="44.60682" lon="1.03241">
        <ele>143.85</ele>
        <time>2013-08-11T08:59:49Z</time>
      </trkpt>
      <trkpt lat="44.60715" lon="1.03219">
        <ele>146.26</ele>
        <time>2013-08-11T08:59:57Z</time>
      </trkpt>
      <trkpt lat="44.6073" lon="1.03218">
        <ele>146.74</ele>
        <time>2013-08-11T09:00:00Z</time>
      </trkpt>
      <trkpt lat="44.60783" lon="1.03218">
        <ele>146.74</ele>
        <time>2013-08-11T09:00:13Z</time>
      </trkpt>
      <trkpt lat="44.60787" lon="1.0322">
        <ele>146.74</ele>
        <time>2013-08-11T09:00:14Z</time>
      </trkpt>
      <trkpt lat="44.60804" lon="1.03233">
        <ele>144.82</ele>
        <time>2013-08-11T09:00:18Z</time>
      </trkpt>
      <trkpt lat="44.60813" lon="1.0324">
        <ele>143.85</ele>
        <time>2013-08-11T09:00:20Z</time>
      </trkpt>
      <trkpt lat="44.60857" lon="1.03259">
        <ele>141.45</ele>
        <time>2013-08-11T09:00:29Z</time>
      </trkpt>
      <trkpt lat="44.60865" lon="1.03266">
        <ele>141.45</ele>
        <time>2013-08-11T09:00:31Z</time>
      </trkpt>
      <trkpt lat="44.60882" lon="1.03273">
        <ele>141.93</ele>
        <time>2013-08-11T09:00:35Z</time>
      </trkpt>
      <trkpt lat="44.60902" lon="1.03273">
        <ele>143.37</ele>
        <time>2013-08-11T09:00:39Z</time>
      </trkpt>
      <trkpt lat="44.60946" lon="1.03262">
        <ele>150.1</ele>
        <time>2013-08-11T09:00:50Z</time>
      </trkpt>
      <trkpt lat="44.60966" lon="1.03228">
        <ele>159.24</ele>
        <time>2013-08-11T09:00:58Z</time>
      </trkpt>
      <trkpt lat="44.6098" lon="1.03215">
        <ele>163.56</ele>
        <time>2013-08-11T09:01:02Z</time>
      </trkpt>
      <trkpt lat="44.60996" lon="1.03202">
        <ele>163.56</ele>
        <time>2013-08-11T09:01:06Z</time>
      </trkpt>
      <trkpt lat="44.61008" lon="1.03193">
        <ele>163.56</ele>
        <time>2013-08-11T09:01:09Z</time>
      </trkpt>
      <trkpt lat="44.61028" lon="1.03184">
        <ele>162.6</ele>
        <time>2013-08-11T09:01:13Z</time>
      </trkpt>
      <trkpt lat="44.61046" lon="1.03187">
        <ele>163.08</ele>
        <time>2013-08-11T09:01:17Z</time>
      </trkpt>
      <trkpt lat="44.61059" lon="1.03191">
        <ele>163.56</ele>
        <time>2013-08-11T09:01:20Z</time>
      </trkpt>
      <trkpt lat="44.61114" lon="1.03206">
        <ele>165.96</ele>
        <time>2013-08-11T09:01:33Z</time>
      </trkpt>
      <trkpt lat="44.61156" lon="1.03202">
        <ele>170.77</ele>
        <time>2013-08-11T09:01:44Z</time>
      </trkpt>
      <trkpt lat="44.61182" lon="1.03207">
        <ele>171.25</ele>
        <time>2013-08-11T09:01:52Z</time>
      </trkpt>
      <trkpt lat="44.61207" lon="1.03238">
        <ele>172.69</ele>
        <time>2013-08-11T09:02:04Z</time>
      </trkpt>
      <trkpt lat="44.61211" lon="1.03243">
        <ele>171.73</ele>
        <time>2013-08-11T09:02:06Z</time>
      </trkpt>
      <trkpt lat="44.61218" lon="1.0326">
        <ele>168.37</ele>
        <time>2013-08-11T09:02:12Z</time>
      </trkpt>
      <trkpt lat="44.61238" lon="1.03267">
        <ele>172.69</ele>
        <time>2013-08-11T09:02:24Z</time>
      </trkpt>
      <trkpt lat="44.6124" lon="1.03267">
        <ele>172.69</ele>
        <time>2013-08-11T09:02:25Z</time>
      </trkpt>
      <trkpt lat="44.61262" lon="1.03259">
        <ele>173.66</ele>
        <time>2013-08-11T09:02:35Z</time>
      </trkpt>
      <trkpt lat="44.61284" lon="1.03248">
        <ele>176.06</ele>
        <time>2013-08-11T09:02:46Z</time>
      </trkpt>
      <trkpt lat="44.61293" lon="1.03247">
        <ele>175.1</ele>
        <time>2013-08-11T09:02:50Z</time>
      </trkpt>
      <trkpt lat="44.6132" lon="1.03266">
        <ele>173.66</ele>
        <time>2013-08-11T09:03:00Z</time>
      </trkpt>
      <trkpt lat="44.61344" lon="1.03273">
        <ele>174.62</ele>
        <time>2013-08-11T09:03:10Z</time>
      </trkpt>
      <trkpt lat="44.61348" lon="1.03273">
        <ele>174.62</ele>
        <time>2013-08-11T09:03:12Z</time>
      </trkpt>
      <trkpt lat="44.61379" lon="1.03256">
        <ele>176.06</ele>
        <time>2013-08-11T09:03:27Z</time>
      </trkpt>
      <trkpt lat="44.61402" lon="1.03235">
        <ele>176.54</ele>
        <time>2013-08-11T09:03:38Z</time>
      </trkpt>
      <trkpt lat="44.61432" lon="1.03202">
        <ele>177.02</ele>
        <time>2013-08-11T09:03:50Z</time>
      </trkpt>
      <trkpt lat="44.61447" lon="1.03192">
        <ele>176.54</ele>
        <time>2013-08-11T09:03:55Z</time>
      </trkpt>
      <trkpt lat="44.61465" lon="1.03207">
        <ele>175.58</ele>
        <time>2013-08-11T09:04:04Z</time>
      </trkpt>
      <trkpt lat="44.61478" lon="1.0324">
        <ele>175.1</ele>
        <time>2013-08-11T09:04:16Z</time>
      </trkpt>
      <trkpt lat="44.61481" lon="1.03246">
        <ele>175.1</ele>
        <time>2013-08-11T09:04:18Z</time>
      </trkpt>
      <trkpt lat="44.61482" lon="1.03252">
        <ele>175.58</ele>
        <time>2013-08-11T09:04:20Z</time>
      </trkpt>
      <trkpt lat="44.61496" lon="1.0327">
        <ele>177.02</ele>
        <time>2013-08-11T09:04:27Z</time>
      </trkpt>
      <trkpt lat="44.61514" lon="1.03279">
        <ele>180.38</ele>
        <time>2013-08-11T09:04:34Z</time>
      </trkpt>
      <trkpt lat="44.61537" lon="1.03257">
        <ele>184.23</ele>
        <time>2013-08-11T09:04:45Z</time>
      </trkpt>
      <trkpt lat="44.61548" lon="1.03196">
        <ele>186.63</ele>
        <time>2013-08-11T09:05:00Z</time>
      </trkpt>
      <trkpt lat="44.6155" lon="1.03182">
        <ele>186.63</ele>
        <time>2013-08-11T09:05:03Z</time>
      </trkpt>
      <trkpt lat="44.61573" lon="1.03137">
        <ele>185.67</ele>
        <time>2013-08-11T09:05:16Z</time>
      </trkpt>
      <trkpt lat="44.61594" lon="1.03109">
        <ele>185.67</ele>
        <time>2013-08-11T09:05:26Z</time>
      </trkpt>
      <trkpt lat="44.61609" lon="1.0305">
        <ele>186.63</ele>
        <time>2013-08-11T09:05:38Z</time>
      </trkpt>
      <trkpt lat="44.61627" lon="1.03009">
        <ele>187.59</ele>
        <time>2013-08-11T09:05:49Z</time>
      </trkpt>
      <trkpt lat="44.61657" lon="1.02978">
        <ele>188.08</ele>
        <time>2013-08-11T09:06:00Z</time>
      </trkpt>
      <trkpt lat="44.6169" lon="1.02958">
        <ele>188.08</ele>
        <time>2013-08-11T09:06:11Z</time>
      </trkpt>
      <trkpt lat="44.61714" lon="1.02946">
        <ele>187.59</ele>
        <time>2013-08-11T09:06:21Z</time>
      </trkpt>
      <trkpt lat="44.61742" lon="1.02918">
        <ele>187.11</ele>
        <time>2013-08-11T09:06:31Z</time>
      </trkpt>
      <trkpt lat="44.61767" lon="1.02874">
        <ele>187.59</ele>
        <time>2013-08-11T09:06:42Z</time>
      </trkpt>
      <trkpt lat="44.61792" lon="1.02835">
        <ele>187.59</ele>
        <time>2013-08-11T09:06:53Z</time>
      </trkpt>
      <trkpt lat="44.61811" lon="1.02803">
        <ele>188.08</ele>
        <time>2013-08-11T09:07:01Z</time>
      </trkpt>
      <trkpt lat="44.61842" lon="1.02766">
        <ele>188.08</ele>
        <time>2013-08-11T09:07:12Z</time>
      </trkpt>
      <trkpt lat="44.61868" lon="1.02736">
        <ele>188.08</ele>
        <time>2013-08-11T09:07:21Z</time>
      </trkpt>
      <trkpt lat="44.6189" lon="1.02698">
        <ele>189.04</ele>
        <time>2013-08-11T09:07:33Z</time>
      </trkpt>
      <trkpt lat="44.6191" lon="1.02676">
        <ele>189.04</ele>
        <time>2013-08-11T09:07:43Z</time>
      </trkpt>
      <trkpt lat="44.61932" lon="1.02638">
        <ele>190.48</ele>
        <time>2013-08-11T09:07:49Z</time>
      </trkpt>
      <trkpt lat="44.61972" lon="1.02623">
        <ele>191.92</ele>
        <time>2013-08-11T09:08:00Z</time>
      </trkpt>
      <trkpt lat="44.61987" lon="1.02646">
        <ele>192.4</ele>
        <time>2013-08-11T09:08:08Z</time>
      </trkpt>
      <trkpt lat="44.62027" lon="1.02651">
        <ele>193.36</ele>
        <time>2013-08-11T09:08:22Z</time>
      </trkpt>
      <trkpt lat="44.6206" lon="1.0265">
        <ele>196.25</ele>
        <time>2013-08-11T09:08:32Z</time>
      </trkpt>
      <trkpt lat="44.621" lon="1.02647">
        <ele>200.09</ele>
        <time>2013-08-11T09:08:44Z</time>
      </trkpt>
      <trkpt lat="44.62133" lon="1.02645">
        <ele>201.53</ele>
        <time>2013-08-11T09:08:54Z</time>
      </trkpt>
      <trkpt lat="44.62177" lon="1.02631">
        <ele>206.82</ele>
        <time>2013-08-11T09:09:08Z</time>
      </trkpt>
      <trkpt lat="44.62212" lon="1.02613">
        <ele>205.86</ele>
        <time>2013-08-11T09:09:18Z</time>
      </trkpt>
      <trkpt lat="44.62245" lon="1.02625">
        <ele>205.38</ele>
        <time>2013-08-11T09:09:25Z</time>
      </trkpt>
      <trkpt lat="44.62265" lon="1.0263">
        <ele>205.38</ele>
        <time>2013-08-11T09:09:29Z</time>
      </trkpt>
      <trkpt lat="44.62316" lon="1.02639">
        <ele>206.82</ele>
        <time>2013-08-11T09:09:41Z</time>
      </trkpt>
      <trkpt lat="44.62353" lon="1.02646">
        <ele>206.82</ele>
        <time>2013-08-11T09:09:49Z</time>
      </trkpt>
      <trkpt lat="44.62357" lon="1.02645">
        <ele>206.82</ele>
        <time>2013-08-11T09:09:50Z</time>
      </trkpt>
      <trkpt lat="44.6241" lon="1.02623">
        <ele>205.38</ele>
        <time>2013-08-11T09:10:04Z</time>
      </trkpt>
      <trkpt lat="44.62445" lon="1.02609">
        <ele>204.42</ele>
        <time>2013-08-11T09:10:13Z</time>
      </trkpt>
      <trkpt lat="44.62449" lon="1.02607">
        <ele>204.42</ele>
        <time>2013-08-11T09:10:14Z</time>
      </trkpt>
      <trkpt lat="44.62453" lon="1.02607">
        <ele>203.94</ele>
        <time>2013-08-11T09:10:15Z</time>
      </trkpt>
      <trkpt lat="44.62457" lon="1.02607">
        <ele>204.42</ele>
        <time>2013-08-11T09:10:16Z</time>
      </trkpt>
      <trkpt lat="44.62461" lon="1.02606">
        <ele>204.42</ele>
        <time>2013-08-11T09:10:17Z</time>
      </trkpt>
      <trkpt lat="44.62465" lon="1.02604">
        <ele>204.42</ele>
        <time>2013-08-11T09:10:18Z</time>
      </trkpt>
      <trkpt lat="44.62498" lon="1.02586">
        <ele>204.9</ele>
        <time>2013-08-11T09:10:28Z</time>
      </trkpt>
      <trkpt lat="44.62539" lon="1.02564">
        <ele>205.38</ele>
        <time>2013-08-11T09:10:39Z</time>
      </trkpt>
      <trkpt lat="44.62575" lon="1.02544">
        <ele>202.49</ele>
        <time>2013-08-11T09:10:48Z</time>
      </trkpt>
      <trkpt lat="44.62587" lon="1.02541">
        <ele>201.05</ele>
        <time>2013-08-11T09:10:51Z</time>
      </trkpt>
      <trkpt lat="44.62595" lon="1.02537">
        <ele>200.57</ele>
        <time>2013-08-11T09:10:53Z</time>
      </trkpt>
      <trkpt lat="44.626" lon="1.02518">
        <ele>201.53</ele>
        <time>2013-08-11T09:10:57Z</time>
      </trkpt>
      <trkpt lat="44.6259" lon="1.02467">
        <ele>206.34</ele>
        <time>2013-08-11T09:11:11Z</time>
      </trkpt>
      <trkpt lat="44.62588" lon="1.02458">
        <ele>206.82</ele>
        <time>2013-08-11T09:11:16Z</time>
      </trkpt>
      <trkpt lat="44.62588" lon="1.0245">
        <ele>206.82</ele>
        <time>2013-08-11T09:11:20Z</time>
      </trkpt>
      <trkpt lat="44.62582" lon="1.02421">
        <ele>210.67</ele>
        <time>2013-08-11T09:11:33Z</time>
      </trkpt>
      <trkpt lat="44.62579" lon="1.02399">
        <ele>214.51</ele>
        <time>2013-08-11T09:11:44Z</time>
      </trkpt>
      <trkpt lat="44.62582" lon="1.02395">
        <ele>217.88</ele>
        <time>2013-08-11T09:11:52Z</time>
      </trkpt>
      <trkpt lat="44.62597" lon="1.0239">
        <ele>224.12</ele>
        <time>2013-08-11T09:12:05Z</time>
      </trkpt>
      <trkpt lat="44.62619" lon="1.02388">
        <ele>227.49</ele>
        <time>2013-08-11T09:12:17Z</time>
      </trkpt>
      <trkpt lat="44.62628" lon="1.02385">
        <ele>229.41</ele>
        <time>2013-08-11T09:12:22Z</time>
      </trkpt>
      <trkpt lat="44.6264" lon="1.02377">
        <ele>229.89</ele>
        <time>2013-08-11T09:12:29Z</time>
      </trkpt>
      <trkpt lat="44.62654" lon="1.02359">
        <ele>232.3</ele>
        <time>2013-08-11T09:12:41Z</time>
      </trkpt>
      <trkpt lat="44.62652" lon="1.02346">
        <ele>232.78</ele>
        <time>2013-08-11T09:12:46Z</time>
      </trkpt>
      <trkpt lat="44.62651" lon="1.02341">
        <ele>232.3</ele>
        <time>2013-08-11T09:12:48Z</time>
      </trkpt>
      <trkpt lat="44.62651" lon="1.02333">
        <ele>231.81</ele>
        <time>2013-08-11T09:12:52Z</time>
      </trkpt>
      <trkpt lat="44.62639" lon="1.02296">
        <ele>232.3</ele>
        <time>2013-08-11T09:13:06Z</time>
      </trkpt>
      <trkpt lat="44.62614" lon="1.0226">
        <ele>231.33</ele>
        <time>2013-08-11T09:13:20Z</time>
      </trkpt>
      <trkpt lat="44.62596" lon="1.02224">
        <ele>230.85</ele>
        <time>2013-08-11T09:13:33Z</time>
      </trkpt>
      <trkpt lat="44.62581" lon="1.02197">
        <ele>229.41</ele>
        <time>2013-08-11T09:13:42Z</time>
      </trkpt>
      <trkpt lat="44.62573" lon="1.02186">
        <ele>229.41</ele>
        <time>2013-08-11T09:13:47Z</time>
      </trkpt>
      <trkpt lat="44.62556" lon="1.02158">
        <ele>228.93</ele>
        <time>2013-08-11T09:13:56Z</time>
      </trkpt>
      <trkpt lat="44.62547" lon="1.02134">
        <ele>229.89</ele>
        <time>2013-08-11T09:14:03Z</time>
      </trkpt>
      <trkpt lat="44.62542" lon="1.02104">
        <ele>234.22</ele>
        <time>2013-08-11T09:14:12Z</time>
      </trkpt>
      <trkpt lat="44.62536" lon="1.02078">
        <ele>237.58</ele>
        <time>2013-08-11T09:14:21Z</time>
      </trkpt>
      <trkpt lat="44.62531" lon="1.02066">
        <ele>237.1</ele>
        <time>2013-08-11T09:14:27Z</time>
      </trkpt>
      <trkpt lat="44.62522" lon="1.02024">
        <ele>237.1</ele>
        <time>2013-08-11T09:14:40Z</time>
      </trkpt>
      <trkpt lat="44.62517" lon="1.02">
        <ele>237.58</ele>
        <time>2013-08-11T09:14:48Z</time>
      </trkpt>
      <trkpt lat="44.62486" lon="1.01976">
        <ele>247.68</ele>
        <time>2013-08-11T09:15:03Z</time>
      </trkpt>
      <trkpt lat="44.62475" lon="1.0197">
        <ele>247.68</ele>
        <time>2013-08-11T09:15:15Z</time>
      </trkpt>
      <trkpt lat="44.62471" lon="1.01967">
        <ele>248.64</ele>
        <time>2013-08-11T09:15:18Z</time>
      </trkpt>
      <trkpt lat="44.62455" lon="1.01959">
        <ele>248.64</ele>
        <time>2013-08-11T09:15:32Z</time>
      </trkpt>
      <trkpt lat="44.62444" lon="1.01956">
        <ele>249.6</ele>
        <time>2013-08-11T09:15:43Z</time>
      </trkpt>
      <trkpt lat="44.62428" lon="1.0195">
        <ele>249.12</ele>
        <time>2013-08-11T09:15:57Z</time>
      </trkpt>
      <trkpt lat="44.6242" lon="1.01946">
        <ele>247.68</ele>
        <time>2013-08-11T09:16:07Z</time>
      </trkpt>
      <trkpt lat="44.62405" lon="1.01936">
        <ele>250.08</ele>
        <time>2013-08-11T09:16:21Z</time>
      </trkpt>
      <trkpt lat="44.62399" lon="1.01931">
        <ele>250.56</ele>
        <time>2013-08-11T09:16:27Z</time>
      </trkpt>
      <trkpt lat="44.62385" lon="1.01915">
        <ele>252</ele>
        <time>2013-08-11T09:16:42Z</time>
      </trkpt>
      <trkpt lat="44.62371" lon="1.01901">
        <ele>252.96</ele>
        <time>2013-08-11T09:16:56Z</time>
      </trkpt>
      <trkpt lat="44.62364" lon="1.01892">
        <ele>254.41</ele>
        <time>2013-08-11T09:17:03Z</time>
      </trkpt>
      <trkpt lat="44.6235" lon="1.01877">
        <ele>253.93</ele>
        <time>2013-08-11T09:17:16Z</time>
      </trkpt>
      <trkpt lat="44.62339" lon="1.01863">
        <ele>248.16</ele>
        <time>2013-08-11T09:17:27Z</time>
      </trkpt>
      <trkpt lat="44.62313" lon="1.01851">
        <ele>237.58</ele>
        <time>2013-08-11T09:17:41Z</time>
      </trkpt>
      <trkpt lat="44.62279" lon="1.01832">
        <ele>234.22</ele>
        <time>2013-08-11T09:17:52Z</time>
      </trkpt>
      <trkpt lat="44.62245" lon="1.01799">
        <ele>237.1</ele>
        <time>2013-08-11T09:18:03Z</time>
      </trkpt>
      <trkpt lat="44.62191" lon="1.01741">
        <ele>242.39</ele>
        <time>2013-08-11T09:18:18Z</time>
      </trkpt>
      <trkpt lat="44.62133" lon="1.01695">
        <ele>255.37</ele>
        <time>2013-08-11T09:18:36Z</time>
      </trkpt>
      <trkpt lat="44.62096" lon="1.01656">
        <ele>258.25</ele>
        <time>2013-08-11T09:18:49Z</time>
      </trkpt>
      <trkpt lat="44.62049" lon="1.01606">
        <ele>261.62</ele>
        <time>2013-08-11T09:19:05Z</time>
      </trkpt>
      <trkpt lat="44.62045" lon="1.01606">
        <ele>261.62</ele>
        <time>2013-08-11T09:19:06Z</time>
      </trkpt>
      <trkpt lat="44.62042" lon="1.01609">
        <ele>261.14</ele>
        <time>2013-08-11T09:19:07Z</time>
      </trkpt>
      <trkpt lat="44.62039" lon="1.01612">
        <ele>261.14</ele>
        <time>2013-08-11T09:19:08Z</time>
      </trkpt>
      <trkpt lat="44.62019" lon="1.01649">
        <ele>260.17</ele>
        <time>2013-08-11T09:19:19Z</time>
      </trkpt>
      <trkpt lat="44.61994" lon="1.01667">
        <ele>260.65</ele>
        <time>2013-08-11T09:19:25Z</time>
      </trkpt>
      <trkpt lat="44.61943" lon="1.0164">
        <ele>264.5</ele>
        <time>2013-08-11T09:19:41Z</time>
      </trkpt>
      <trkpt lat="44.61912" lon="1.01616">
        <ele>266.42</ele>
        <time>2013-08-11T09:19:51Z</time>
      </trkpt>
      <trkpt lat="44.61873" lon="1.0163">
        <ele>265.94</ele>
        <time>2013-08-11T09:20:02Z</time>
      </trkpt>
      <trkpt lat="44.61871" lon="1.01634">
        <ele>265.94</ele>
        <time>2013-08-11T09:20:03Z</time>
      </trkpt>
      <trkpt lat="44.61864" lon="1.01642">
        <ele>265.94</ele>
        <time>2013-08-11T09:20:05Z</time>
      </trkpt>
      <trkpt lat="44.6184" lon="1.01655">
        <ele>264.98</ele>
        <time>2013-08-11T09:20:10Z</time>
      </trkpt>
      <trkpt lat="44.61829" lon="1.0166">
        <ele>264.02</ele>
        <time>2013-08-11T09:20:12Z</time>
      </trkpt>
      <trkpt lat="44.61776" lon="1.01687">
        <ele>260.65</ele>
        <time>2013-08-11T09:20:24Z</time>
      </trkpt>
      <trkpt lat="44.61762" lon="1.01691">
        <ele>260.65</ele>
        <time>2013-08-11T09:20:27Z</time>
      </trkpt>
      <trkpt lat="44.61708" lon="1.0171">
        <ele>259.69</ele>
        <time>2013-08-11T09:20:40Z</time>
      </trkpt>
      <trkpt lat="44.61638" lon="1.01732">
        <ele>262.58</ele>
        <time>2013-08-11T09:20:56Z</time>
      </trkpt>
      <trkpt lat="44.61603" lon="1.01761">
        <ele>263.06</ele>
        <time>2013-08-11T09:21:07Z</time>
      </trkpt>
      <trkpt lat="44.61551" lon="1.01799">
        <ele>263.06</ele>
        <time>2013-08-11T09:21:19Z</time>
      </trkpt>
      <trkpt lat="44.61545" lon="1.01801">
        <ele>263.06</ele>
        <time>2013-08-11T09:21:20Z</time>
      </trkpt>
      <trkpt lat="44.61539" lon="1.01803">
        <ele>263.06</ele>
        <time>2013-08-11T09:21:21Z</time>
      </trkpt>
      <trkpt lat="44.61526" lon="1.01809">
        <ele>262.58</ele>
        <time>2013-08-11T09:21:23Z</time>
      </trkpt>
      <trkpt lat="44.61521" lon="1.01814">
        <ele>262.58</ele>
        <time>2013-08-11T09:21:24Z</time>
      </trkpt>
      <trkpt lat="44.61516" lon="1.01822">
        <ele>262.58</ele>
        <time>2013-08-11T09:21:25Z</time>
      </trkpt>
      <trkpt lat="44.61465" lon="1.01924">
        <ele>258.25</ele>
        <time>2013-08-11T09:21:37Z</time>
      </trkpt>
      <trkpt lat="44.61451" lon="1.0195">
        <ele>257.29</ele>
        <time>2013-08-11T09:21:40Z</time>
      </trkpt>
      <trkpt lat="44.61413" lon="1.0209">
        <ele>256.33</ele>
        <time>2013-08-11T09:21:53Z</time>
      </trkpt>
      <trkpt lat="44.61389" lon="1.02195">
        <ele>256.33</ele>
        <time>2013-08-11T09:22:05Z</time>
      </trkpt>
      <trkpt lat="44.61363" lon="1.02282">
        <ele>254.41</ele>
        <time>2013-08-11T09:22:16Z</time>
      </trkpt>
      <trkpt lat="44.61364" lon="1.02309">
        <ele>253.93</ele>
        <time>2013-08-11T09:22:19Z</time>
      </trkpt>
      <trkpt lat="44.61346" lon="1.02385">
        <ele>253.44</ele>
        <time>2013-08-11T09:22:27Z</time>
      </trkpt>
      <trkpt lat="44.61339" lon="1.02396">
        <ele>252.96</ele>
        <time>2013-08-11T09:22:29Z</time>
      </trkpt>
      <trkpt lat="44.61336" lon="1.02397">
        <ele>252.48</ele>
        <time>2013-08-11T09:22:30Z</time>
      </trkpt>
      <trkpt lat="44.61333" lon="1.02396">
        <ele>251.52</ele>
        <time>2013-08-11T09:22:31Z</time>
      </trkpt>
      <trkpt lat="44.61329" lon="1.02393">
        <ele>251.04</ele>
        <time>2013-08-11T09:22:32Z</time>
      </trkpt>
      <trkpt lat="44.61325" lon="1.0239">
        <ele>251.04</ele>
        <time>2013-08-11T09:22:33Z</time>
      </trkpt>
      <trkpt lat="44.61321" lon="1.02388">
        <ele>250.56</ele>
        <time>2013-08-11T09:22:34Z</time>
      </trkpt>
      <trkpt lat="44.61316" lon="1.02386">
        <ele>250.56</ele>
        <time>2013-08-11T09:22:35Z</time>
      </trkpt>
      <trkpt lat="44.61311" lon="1.02384">
        <ele>250.56</ele>
        <time>2013-08-11T09:22:36Z</time>
      </trkpt>
      <trkpt lat="44.61305" lon="1.02381">
        <ele>250.08</ele>
        <time>2013-08-11T09:22:37Z</time>
      </trkpt>
      <trkpt lat="44.613" lon="1.02378">
        <ele>250.08</ele>
        <time>2013-08-11T09:22:38Z</time>
      </trkpt>
      <trkpt lat="44.61273" lon="1.02357">
        <ele>246.72</ele>
        <time>2013-08-11T09:22:43Z</time>
      </trkpt>
      <trkpt lat="44.61269" lon="1.02355">
        <ele>245.75</ele>
        <time>2013-08-11T09:22:44Z</time>
      </trkpt>
      <trkpt lat="44.61265" lon="1.02354">
        <ele>245.27</ele>
        <time>2013-08-11T09:22:45Z</time>
      </trkpt>
      <trkpt lat="44.61261" lon="1.02353">
        <ele>244.79</ele>
        <time>2013-08-11T09:22:46Z</time>
      </trkpt>
      <trkpt lat="44.61256" lon="1.0235">
        <ele>244.31</ele>
        <time>2013-08-11T09:22:47Z</time>
      </trkpt>
      <trkpt lat="44.61251" lon="1.02346">
        <ele>243.83</ele>
        <time>2013-08-11T09:22:48Z</time>
      </trkpt>
      <trkpt lat="44.61247" lon="1.02342">
        <ele>243.35</ele>
        <time>2013-08-11T09:22:49Z</time>
      </trkpt>
      <trkpt lat="44.61238" lon="1.0232">
        <ele>241.43</ele>
        <time>2013-08-11T09:22:52Z</time>
      </trkpt>
      <trkpt lat="44.61233" lon="1.02292">
        <ele>239.02</ele>
        <time>2013-08-11T09:22:55Z</time>
      </trkpt>
      <trkpt lat="44.61208" lon="1.02174">
        <ele>230.37</ele>
        <time>2013-08-11T09:23:06Z</time>
      </trkpt>
      <trkpt lat="44.61194" lon="1.02093">
        <ele>227.01</ele>
        <time>2013-08-11T09:23:14Z</time>
      </trkpt>
      <trkpt lat="44.61192" lon="1.02056">
        <ele>225.57</ele>
        <time>2013-08-11T09:23:18Z</time>
      </trkpt>
      <trkpt lat="44.61201" lon="1.02009">
        <ele>224.12</ele>
        <time>2013-08-11T09:23:23Z</time>
      </trkpt>
      <trkpt lat="44.61199" lon="1.01977">
        <ele>223.16</ele>
        <time>2013-08-11T09:23:27Z</time>
      </trkpt>
      <trkpt lat="44.6118" lon="1.01963">
        <ele>223.16</ele>
        <time>2013-08-11T09:23:32Z</time>
      </trkpt>
      <trkpt lat="44.61144" lon="1.01988">
        <ele>225.09</ele>
        <time>2013-08-11T09:23:44Z</time>
      </trkpt>
      <trkpt lat="44.61117" lon="1.02008">
        <ele>231.33</ele>
        <time>2013-08-11T09:23:56Z</time>
      </trkpt>
      <trkpt lat="44.61089" lon="1.02019">
        <ele>236.14</ele>
        <time>2013-08-11T09:24:10Z</time>
      </trkpt>
      <trkpt lat="44.61068" lon="1.02026">
        <ele>240.95</ele>
        <time>2013-08-11T09:24:21Z</time>
      </trkpt>
      <trkpt lat="44.61046" lon="1.02035">
        <ele>247.2</ele>
        <time>2013-08-11T09:24:33Z</time>
      </trkpt>
      <trkpt lat="44.61024" lon="1.02046">
        <ele>248.16</ele>
        <time>2013-08-11T09:24:45Z</time>
      </trkpt>
      <trkpt lat="44.6101" lon="1.02034">
        <ele>248.64</ele>
        <time>2013-08-11T09:24:54Z</time>
      </trkpt>
      <trkpt lat="44.61009" lon="1.02027">
        <ele>248.16</ele>
        <time>2013-08-11T09:24:57Z</time>
      </trkpt>
      <trkpt lat="44.6101" lon="1.02023">
        <ele>248.16</ele>
        <time>2013-08-11T09:24:58Z</time>
      </trkpt>
      <trkpt lat="44.61011" lon="1.0202">
        <ele>248.16</ele>
        <time>2013-08-11T09:24:59Z</time>
      </trkpt>
      <trkpt lat="44.61025" lon="1.01972">
        <ele>247.68</ele>
        <time>2013-08-11T09:25:12Z</time>
      </trkpt>
      <trkpt lat="44.61042" lon="1.01928">
        <ele>248.64</ele>
        <time>2013-08-11T09:25:24Z</time>
      </trkpt>
      <trkpt lat="44.61063" lon="1.01869">
        <ele>251.04</ele>
        <time>2013-08-11T09:25:38Z</time>
      </trkpt>
      <trkpt lat="44.61084" lon="1.01837">
        <ele>254.41</ele>
        <time>2013-08-11T09:25:49Z</time>
      </trkpt>
      <trkpt lat="44.611" lon="1.01786">
        <ele>254.89</ele>
        <time>2013-08-11T09:26:00Z</time>
      </trkpt>
      <trkpt lat="44.61094" lon="1.01741">
        <ele>256.81</ele>
        <time>2013-08-11T09:26:08Z</time>
      </trkpt>
      <trkpt lat="44.61093" lon="1.01736">
        <ele>257.29</ele>
        <time>2013-08-11T09:26:09Z</time>
      </trkpt>
      <trkpt lat="44.61091" lon="1.0173">
        <ele>257.29</ele>
        <time>2013-08-11T09:26:10Z</time>
      </trkpt>
      <trkpt lat="44.6109" lon="1.01724">
        <ele>257.29</ele>
        <time>2013-08-11T09:26:11Z</time>
      </trkpt>
      <trkpt lat="44.61089" lon="1.01718">
        <ele>257.29</ele>
        <time>2013-08-11T09:26:12Z</time>
      </trkpt>
      <trkpt lat="44.61089" lon="1.01711">
        <ele>257.29</ele>
        <time>2013-08-11T09:26:13Z</time>
      </trkpt>
      <trkpt lat="44.6109" lon="1.01704">
        <ele>257.29</ele>
        <time>2013-08-11T09:26:14Z</time>
      </trkpt>
      <trkpt lat="44.6109" lon="1.01689">
        <ele>256.81</ele>
        <time>2013-08-11T09:26:16Z</time>
      </trkpt>
      <trkpt lat="44.61102" lon="1.0162">
        <ele>257.77</ele>
        <time>2013-08-11T09:26:30Z</time>
      </trkpt>
      <trkpt lat="44.61113" lon="1.01564">
        <ele>259.21</ele>
        <time>2013-08-11T09:26:45Z</time>
      </trkpt>
      <trkpt lat="44.61106" lon="1.01526">
        <ele>262.1</ele>
        <time>2013-08-11T09:26:55Z</time>
      </trkpt>
      <trkpt lat="44.61071" lon="1.01495">
        <ele>266.9</ele>
        <time>2013-08-11T09:27:08Z</time>
      </trkpt>
      <trkpt lat="44.61052" lon="1.0145">
        <ele>269.79</ele>
        <time>2013-08-11T09:27:20Z</time>
      </trkpt>
      <trkpt lat="44.61053" lon="1.01448">
        <ele>269.79</ele>
        <time>2013-08-11T09:27:21Z</time>
      </trkpt>
      <trkpt lat="44.61055" lon="1.01447">
        <ele>270.27</ele>
        <time>2013-08-11T09:27:22Z</time>
      </trkpt>
      <trkpt lat="44.61095" lon="1.01436">
        <ele>273.63</ele>
        <time>2013-08-11T09:27:36Z</time>
      </trkpt>
      <trkpt lat="44.6114" lon="1.01393">
        <ele>275.07</ele>
        <time>2013-08-11T09:27:51Z</time>
      </trkpt>
      <trkpt lat="44.6119" lon="1.01356">
        <ele>275.56</ele>
        <time>2013-08-11T09:28:05Z</time>
      </trkpt>
      <trkpt lat="44.61198" lon="1.01352">
        <ele>275.56</ele>
        <time>2013-08-11T09:28:07Z</time>
      </trkpt>
      <trkpt lat="44.61201" lon="1.0135">
        <ele>276.04</ele>
        <time>2013-08-11T09:28:08Z</time>
      </trkpt>
      <trkpt lat="44.61209" lon="1.01345">
        <ele>275.56</ele>
        <time>2013-08-11T09:28:10Z</time>
      </trkpt>
      <trkpt lat="44.61212" lon="1.01343">
        <ele>275.56</ele>
        <time>2013-08-11T09:28:11Z</time>
      </trkpt>
      <trkpt lat="44.61216" lon="1.01342">
        <ele>275.56</ele>
        <time>2013-08-11T09:28:12Z</time>
      </trkpt>
      <trkpt lat="44.61219" lon="1.0134">
        <ele>275.07</ele>
        <time>2013-08-11T09:28:13Z</time>
      </trkpt>
      <trkpt lat="44.61222" lon="1.01338">
        <ele>275.07</ele>
        <time>2013-08-11T09:28:14Z</time>
      </trkpt>
      <trkpt lat="44.61225" lon="1.01336">
        <ele>275.07</ele>
        <time>2013-08-11T09:28:15Z</time>
      </trkpt>
      <trkpt lat="44.61264" lon="1.01317">
        <ele>272.67</ele>
        <time>2013-08-11T09:28:25Z</time>
      </trkpt>
      <trkpt lat="44.61342" lon="1.01275">
        <ele>269.79</ele>
        <time>2013-08-11T09:28:41Z</time>
      </trkpt>
      <trkpt lat="44.61347" lon="1.01272">
        <ele>269.31</ele>
        <time>2013-08-11T09:28:42Z</time>
      </trkpt>
      <trkpt lat="44.61351" lon="1.01268">
        <ele>269.31</ele>
        <time>2013-08-11T09:28:43Z</time>
      </trkpt>
      <trkpt lat="44.614" lon="1.01243">
        <ele>268.83</ele>
        <time>2013-08-11T09:28:53Z</time>
      </trkpt>
      <trkpt lat="44.61405" lon="1.01243">
        <ele>269.31</ele>
        <time>2013-08-11T09:28:54Z</time>
      </trkpt>
      <trkpt lat="44.61411" lon="1.01242">
        <ele>269.31</ele>
        <time>2013-08-11T09:28:55Z</time>
      </trkpt>
      <trkpt lat="44.61416" lon="1.01241">
        <ele>268.83</ele>
        <time>2013-08-11T09:28:56Z</time>
      </trkpt>
      <trkpt lat="44.61422" lon="1.01241">
        <ele>268.83</ele>
        <time>2013-08-11T09:28:57Z</time>
      </trkpt>
      <trkpt lat="44.61428" lon="1.01241">
        <ele>268.35</ele>
        <time>2013-08-11T09:28:58Z</time>
      </trkpt>
      <trkpt lat="44.61439" lon="1.01241">
        <ele>268.35</ele>
        <time>2013-08-11T09:29:00Z</time>
      </trkpt>
      <trkpt lat="44.61445" lon="1.01242">
        <ele>268.83</ele>
        <time>2013-08-11T09:29:01Z</time>
      </trkpt>
      <trkpt lat="44.61461" lon="1.01242">
        <ele>269.79</ele>
        <time>2013-08-11T09:29:04Z</time>
      </trkpt>
      <trkpt lat="44.61466" lon="1.01243">
        <ele>269.79</ele>
        <time>2013-08-11T09:29:05Z</time>
      </trkpt>
      <trkpt lat="44.61512" lon="1.01246">
        <ele>275.56</ele>
        <time>2013-08-11T09:29:18Z</time>
      </trkpt>
      <trkpt lat="44.61522" lon="1.01246">
        <ele>276.52</ele>
        <time>2013-08-11T09:29:21Z</time>
      </trkpt>
      <trkpt lat="44.61524" lon="1.01247">
        <ele>276.52</ele>
        <time>2013-08-11T09:29:22Z</time>
      </trkpt>
      <trkpt lat="44.61527" lon="1.01248">
        <ele>277</ele>
        <time>2013-08-11T09:29:23Z</time>
      </trkpt>
      <trkpt lat="44.61529" lon="1.01248">
        <ele>277</ele>
        <time>2013-08-11T09:29:24Z</time>
      </trkpt>
      <trkpt lat="44.61532" lon="1.01249">
        <ele>277.48</ele>
        <time>2013-08-11T09:29:25Z</time>
      </trkpt>
      <trkpt lat="44.61533" lon="1.0125">
        <ele>277.96</ele>
        <time>2013-08-11T09:29:26Z</time>
      </trkpt>
      <trkpt lat="44.61537" lon="1.0125">
        <ele>278.92</ele>
        <time>2013-08-11T09:29:38Z</time>
      </trkpt>
      <trkpt lat="44.61539" lon="1.01251">
        <ele>280.84</ele>
        <time>2013-08-11T09:30:07Z</time>
      </trkpt>
      <trkpt lat="44.6154" lon="1.0125">
        <ele>279.88</ele>
        <time>2013-08-11T09:30:23Z</time>
      </trkpt>
      <trkpt lat="44.61575" lon="1.01248">
        <ele>277.48</ele>
        <time>2013-08-11T09:30:34Z</time>
      </trkpt>
      <trkpt lat="44.61579" lon="1.01247">
        <ele>276.52</ele>
        <time>2013-08-11T09:30:35Z</time>
      </trkpt>
      <trkpt lat="44.61581" lon="1.01244">
        <ele>276.52</ele>
        <time>2013-08-11T09:30:36Z</time>
      </trkpt>
      <trkpt lat="44.61581" lon="1.01241">
        <ele>276.04</ele>
        <time>2013-08-11T09:30:37Z</time>
      </trkpt>
      <trkpt lat="44.61581" lon="1.01239">
        <ele>275.56</ele>
        <time>2013-08-11T09:30:38Z</time>
      </trkpt>
      <trkpt lat="44.61579" lon="1.01237">
        <ele>275.07</ele>
        <time>2013-08-11T09:30:39Z</time>
      </trkpt>
      <trkpt lat="44.61578" lon="1.01235">
        <ele>274.59</ele>
        <time>2013-08-11T09:30:40Z</time>
      </trkpt>
      <trkpt lat="44.61549" lon="1.01209">
        <ele>273.63</ele>
        <time>2013-08-11T09:30:53Z</time>
      </trkpt>
      <trkpt lat="44.61517" lon="1.01188">
        <ele>274.59</ele>
        <time>2013-08-11T09:31:05Z</time>
      </trkpt>
      <trkpt lat="44.61498" lon="1.01177">
        <ele>275.56</ele>
        <time>2013-08-11T09:31:10Z</time>
      </trkpt>
      <trkpt lat="44.61494" lon="1.01175">
        <ele>275.56</ele>
        <time>2013-08-11T09:31:11Z</time>
      </trkpt>
      <trkpt lat="44.6149" lon="1.01173">
        <ele>275.56</ele>
        <time>2013-08-11T09:31:12Z</time>
      </trkpt>
      <trkpt lat="44.61447" lon="1.01149">
        <ele>277.48</ele>
        <time>2013-08-11T09:31:23Z</time>
      </trkpt>
      <trkpt lat="44.61433" lon="1.01147">
        <ele>277</ele>
        <time>2013-08-11T09:31:26Z</time>
      </trkpt>
      <trkpt lat="44.61429" lon="1.01145">
        <ele>277</ele>
        <time>2013-08-11T09:31:27Z</time>
      </trkpt>
      <trkpt lat="44.61425" lon="1.01143">
        <ele>276.52</ele>
        <time>2013-08-11T09:31:28Z</time>
      </trkpt>
      <trkpt lat="44.61421" lon="1.01142">
        <ele>276.04</ele>
        <time>2013-08-11T09:31:29Z</time>
      </trkpt>
      <trkpt lat="44.61416" lon="1.01143">
        <ele>276.04</ele>
        <time>2013-08-11T09:31:30Z</time>
      </trkpt>
      <trkpt lat="44.61411" lon="1.01142">
        <ele>275.56</ele>
        <time>2013-08-11T09:31:31Z</time>
      </trkpt>
      <trkpt lat="44.61406" lon="1.0114">
        <ele>275.07</ele>
        <time>2013-08-11T09:31:32Z</time>
      </trkpt>
      <trkpt lat="44.61401" lon="1.01137">
        <ele>274.59</ele>
        <time>2013-08-11T09:31:33Z</time>
      </trkpt>
      <trkpt lat="44.61389" lon="1.01129">
        <ele>273.63</ele>
        <time>2013-08-11T09:31:35Z</time>
      </trkpt>
      <trkpt lat="44.61338" lon="1.01109">
        <ele>270.75</ele>
        <time>2013-08-11T09:31:43Z</time>
      </trkpt>
      <trkpt lat="44.6133" lon="1.011">
        <ele>269.79</ele>
        <time>2013-08-11T09:31:45Z</time>
      </trkpt>
      <trkpt lat="44.61317" lon="1.01098">
        <ele>267.86</ele>
        <time>2013-08-11T09:31:49Z</time>
      </trkpt>
      <trkpt lat="44.61309" lon="1.01094">
        <ele>266.9</ele>
        <time>2013-08-11T09:31:51Z</time>
      </trkpt>
      <trkpt lat="44.61282" lon="1.01083">
        <ele>266.9</ele>
        <time>2013-08-11T09:31:56Z</time>
      </trkpt>
      <trkpt lat="44.61247" lon="1.01069">
        <ele>269.31</ele>
        <time>2013-08-11T09:32:03Z</time>
      </trkpt>
      <trkpt lat="44.61233" lon="1.01072">
        <ele>270.75</ele>
        <time>2013-08-11T09:32:06Z</time>
      </trkpt>
      <trkpt lat="44.612" lon="1.01071">
        <ele>273.63</ele>
        <time>2013-08-11T09:32:12Z</time>
      </trkpt>
      <trkpt lat="44.61174" lon="1.01039">
        <ele>274.11</ele>
        <time>2013-08-11T09:32:19Z</time>
      </trkpt>
      <trkpt lat="44.61173" lon="1.01032">
        <ele>273.63</ele>
        <time>2013-08-11T09:32:20Z</time>
      </trkpt>
      <trkpt lat="44.61167" lon="1.00989">
        <ele>271.71</ele>
        <time>2013-08-11T09:32:25Z</time>
      </trkpt>
      <trkpt lat="44.61137" lon="1.00945">
        <ele>268.35</ele>
        <time>2013-08-11T09:32:32Z</time>
      </trkpt>
      <trkpt lat="44.61127" lon="1.00941">
        <ele>267.38</ele>
        <time>2013-08-11T09:32:34Z</time>
      </trkpt>
      <trkpt lat="44.61096" lon="1.00939">
        <ele>264.98</ele>
        <time>2013-08-11T09:32:40Z</time>
      </trkpt>
      <trkpt lat="44.61076" lon="1.0094">
        <ele>264.98</ele>
        <time>2013-08-11T09:32:44Z</time>
      </trkpt>
      <trkpt lat="44.61057" lon="1.00939">
        <ele>264.98</ele>
        <time>2013-08-11T09:32:48Z</time>
      </trkpt>
      <trkpt lat="44.61037" lon="1.00938">
        <ele>264.5</ele>
        <time>2013-08-11T09:32:52Z</time>
      </trkpt>
      <trkpt lat="44.6099" lon="1.00935">
        <ele>262.1</ele>
        <time>2013-08-11T09:32:59Z</time>
      </trkpt>
      <trkpt lat="44.60962" lon="1.00931">
        <ele>259.21</ele>
        <time>2013-08-11T09:33:03Z</time>
      </trkpt>
      <trkpt lat="44.60958" lon="1.00927">
        <ele>258.73</ele>
        <time>2013-08-11T09:33:04Z</time>
      </trkpt>
      <trkpt lat="44.60957" lon="1.00922">
        <ele>258.25</ele>
        <time>2013-08-11T09:33:05Z</time>
      </trkpt>
      <trkpt lat="44.60957" lon="1.00917">
        <ele>257.77</ele>
        <time>2013-08-11T09:33:06Z</time>
      </trkpt>
      <trkpt lat="44.60958" lon="1.00912">
        <ele>256.81</ele>
        <time>2013-08-11T09:33:07Z</time>
      </trkpt>
      <trkpt lat="44.60958" lon="1.00906">
        <ele>256.33</ele>
        <time>2013-08-11T09:33:08Z</time>
      </trkpt>
      <trkpt lat="44.60959" lon="1.00901">
        <ele>255.37</ele>
        <time>2013-08-11T09:33:09Z</time>
      </trkpt>
      <trkpt lat="44.60961" lon="1.00887">
        <ele>254.41</ele>
        <time>2013-08-11T09:33:11Z</time>
      </trkpt>
      <trkpt lat="44.60961" lon="1.0088">
        <ele>253.93</ele>
        <time>2013-08-11T09:33:12Z</time>
      </trkpt>
      <trkpt lat="44.6096" lon="1.00873">
        <ele>253.44</ele>
        <time>2013-08-11T09:33:13Z</time>
      </trkpt>
      <trkpt lat="44.60956" lon="1.00846">
        <ele>253.93</ele>
        <time>2013-08-11T09:33:17Z</time>
      </trkpt>
      <trkpt lat="44.60953" lon="1.00827">
        <ele>253.93</ele>
        <time>2013-08-11T09:33:20Z</time>
      </trkpt>
      <trkpt lat="44.60952" lon="1.00801">
        <ele>252.96</ele>
        <time>2013-08-11T09:33:24Z</time>
      </trkpt>
      <trkpt lat="44.6096" lon="1.00752">
        <ele>253.44</ele>
        <time>2013-08-11T09:33:32Z</time>
      </trkpt>
      <trkpt lat="44.6096" lon="1.00746">
        <ele>253.44</ele>
        <time>2013-08-11T09:33:33Z</time>
      </trkpt>
      <trkpt lat="44.6096" lon="1.00739">
        <ele>253.93</ele>
        <time>2013-08-11T09:33:34Z</time>
      </trkpt>
      <trkpt lat="44.60958" lon="1.00718">
        <ele>254.89</ele>
        <time>2013-08-11T09:33:37Z</time>
      </trkpt>
      <trkpt lat="44.60958" lon="1.0071">
        <ele>255.37</ele>
        <time>2013-08-11T09:33:38Z</time>
      </trkpt>
      <trkpt lat="44.60956" lon="1.00695">
        <ele>255.85</ele>
        <time>2013-08-11T09:33:40Z</time>
      </trkpt>
      <trkpt lat="44.60944" lon="1.00651">
        <ele>256.81</ele>
        <time>2013-08-11T09:33:46Z</time>
      </trkpt>
      <trkpt lat="44.60939" lon="1.00644">
        <ele>256.33</ele>
        <time>2013-08-11T09:33:47Z</time>
      </trkpt>
      <trkpt lat="44.60935" lon="1.00636">
        <ele>256.33</ele>
        <time>2013-08-11T09:33:48Z</time>
      </trkpt>
      <trkpt lat="44.6093" lon="1.00629">
        <ele>256.33</ele>
        <time>2013-08-11T09:33:49Z</time>
      </trkpt>
      <trkpt lat="44.60925" lon="1.00622">
        <ele>256.33</ele>
        <time>2013-08-11T09:33:50Z</time>
      </trkpt>
      <trkpt lat="44.60851" lon="1.00524">
        <ele>256.33</ele>
        <time>2013-08-11T09:34:04Z</time>
      </trkpt>
      <trkpt lat="44.6079" lon="1.00444">
        <ele>253.93</ele>
        <time>2013-08-11T09:34:16Z</time>
      </trkpt>
      <trkpt lat="44.60777" lon="1.00424">
        <ele>252.96</ele>
        <time>2013-08-11T09:34:19Z</time>
      </trkpt>
      <trkpt lat="44.60773" lon="1.00417">
        <ele>252.48</ele>
        <time>2013-08-11T09:34:20Z</time>
      </trkpt>
      <trkpt lat="44.60769" lon="1.0041">
        <ele>252.48</ele>
        <time>2013-08-11T09:34:21Z</time>
      </trkpt>
      <trkpt lat="44.60736" lon="1.00354">
        <ele>256.33</ele>
        <time>2013-08-11T09:34:32Z</time>
      </trkpt>
      <trkpt lat="44.60716" lon="1.00327">
        <ele>259.69</ele>
        <time>2013-08-11T09:34:39Z</time>
      </trkpt>
      <trkpt lat="44.60702" lon="1.00309">
        <ele>261.14</ele>
        <time>2013-08-11T09:34:43Z</time>
      </trkpt>
      <trkpt lat="44.60696" lon="1.003">
        <ele>260.65</ele>
        <time>2013-08-11T09:34:45Z</time>
      </trkpt>
      <trkpt lat="44.60646" lon="1.00229">
        <ele>255.85</ele>
        <time>2013-08-11T09:35:00Z</time>
      </trkpt>
      <trkpt lat="44.60636" lon="1.00215">
        <ele>254.89</ele>
        <time>2013-08-11T09:35:03Z</time>
      </trkpt>
      <trkpt lat="44.60626" lon="1.00201">
        <ele>253.93</ele>
        <time>2013-08-11T09:35:06Z</time>
      </trkpt>
      <trkpt lat="44.60622" lon="1.00195">
        <ele>253.44</ele>
        <time>2013-08-11T09:35:07Z</time>
      </trkpt>
      <trkpt lat="44.60618" lon="1.00189">
        <ele>252.96</ele>
        <time>2013-08-11T09:35:08Z</time>
      </trkpt>
      <trkpt lat="44.60611" lon="1.00179">
        <ele>252.48</ele>
        <time>2013-08-11T09:35:10Z</time>
      </trkpt>
      <trkpt lat="44.60568" lon="1.00138">
        <ele>249.12</ele>
        <time>2013-08-11T09:35:19Z</time>
      </trkpt>
      <trkpt lat="44.60563" lon="1.00132">
        <ele>248.64</ele>
        <time>2013-08-11T09:35:20Z</time>
      </trkpt>
      <trkpt lat="44.60517" lon="1.00033">
        <ele>242.39</ele>
        <time>2013-08-11T09:35:30Z</time>
      </trkpt>
      <trkpt lat="44.60493" lon="0.99917">
        <ele>239.99</ele>
        <time>2013-08-11T09:35:41Z</time>
      </trkpt>
      <trkpt lat="44.60465" lon="0.99804">
        <ele>233.26</ele>
        <time>2013-08-11T09:35:51Z</time>
      </trkpt>
      <trkpt lat="44.60443" lon="0.9974">
        <ele>230.37</ele>
        <time>2013-08-11T09:35:58Z</time>
      </trkpt>
      <trkpt lat="44.60437" lon="0.99726">
        <ele>229.41</ele>
        <time>2013-08-11T09:36:01Z</time>
      </trkpt>
      <trkpt lat="44.60437" lon="0.99721">
        <ele>228.93</ele>
        <time>2013-08-11T09:36:02Z</time>
      </trkpt>
      <trkpt lat="44.60435" lon="0.99716">
        <ele>228.93</ele>
        <time>2013-08-11T09:36:03Z</time>
      </trkpt>
      <trkpt lat="44.60434" lon="0.99711">
        <ele>229.41</ele>
        <time>2013-08-11T09:36:04Z</time>
      </trkpt>
      <trkpt lat="44.60432" lon="0.99707">
        <ele>229.41</ele>
        <time>2013-08-11T09:36:05Z</time>
      </trkpt>
      <trkpt lat="44.60408" lon="0.99654">
        <ele>232.78</ele>
        <time>2013-08-11T09:36:18Z</time>
      </trkpt>
      <trkpt lat="44.60398" lon="0.99636">
        <ele>233.26</ele>
        <time>2013-08-11T09:36:23Z</time>
      </trkpt>
      <trkpt lat="44.60373" lon="0.99575">
        <ele>230.85</ele>
        <time>2013-08-11T09:36:33Z</time>
      </trkpt>
      <trkpt lat="44.60335" lon="0.99473">
        <ele>228.93</ele>
        <time>2013-08-11T09:36:44Z</time>
      </trkpt>
      <trkpt lat="44.60315" lon="0.99429">
        <ele>228.45</ele>
        <time>2013-08-11T09:36:49Z</time>
      </trkpt>
      <trkpt lat="44.603" lon="0.99406">
        <ele>227.97</ele>
        <time>2013-08-11T09:36:52Z</time>
      </trkpt>
      <trkpt lat="44.60296" lon="0.99398">
        <ele>227.49</ele>
        <time>2013-08-11T09:36:53Z</time>
      </trkpt>
      <trkpt lat="44.60292" lon="0.99389">
        <ele>227.49</ele>
        <time>2013-08-11T09:36:54Z</time>
      </trkpt>
      <trkpt lat="44.60287" lon="0.99372">
        <ele>227.49</ele>
        <time>2013-08-11T09:36:56Z</time>
      </trkpt>
      <trkpt lat="44.60273" lon="0.99324">
        <ele>227.49</ele>
        <time>2013-08-11T09:37:02Z</time>
      </trkpt>
      <trkpt lat="44.6027" lon="0.99317">
        <ele>227.49</ele>
        <time>2013-08-11T09:37:03Z</time>
      </trkpt>
      <trkpt lat="44.60264" lon="0.99303">
        <ele>227.49</ele>
        <time>2013-08-11T09:37:05Z</time>
      </trkpt>
      <trkpt lat="44.6025" lon="0.99245">
        <ele>228.45</ele>
        <time>2013-08-11T09:37:14Z</time>
      </trkpt>
      <trkpt lat="44.60247" lon="0.99239">
        <ele>228.93</ele>
        <time>2013-08-11T09:37:15Z</time>
      </trkpt>
      <trkpt lat="44.60244" lon="0.99233">
        <ele>229.41</ele>
        <time>2013-08-11T09:37:16Z</time>
      </trkpt>
      <trkpt lat="44.60241" lon="0.99226">
        <ele>229.41</ele>
        <time>2013-08-11T09:37:17Z</time>
      </trkpt>
      <trkpt lat="44.60239" lon="0.99219">
        <ele>229.41</ele>
        <time>2013-08-11T09:37:18Z</time>
      </trkpt>
      <trkpt lat="44.60236" lon="0.99213">
        <ele>229.41</ele>
        <time>2013-08-11T09:37:19Z</time>
      </trkpt>
      <trkpt lat="44.60234" lon="0.99206">
        <ele>229.41</ele>
        <time>2013-08-11T09:37:20Z</time>
      </trkpt>
      <trkpt lat="44.60232" lon="0.992">
        <ele>229.41</ele>
        <time>2013-08-11T09:37:21Z</time>
      </trkpt>
      <trkpt lat="44.6023" lon="0.99194">
        <ele>229.41</ele>
        <time>2013-08-11T09:37:22Z</time>
      </trkpt>
      <trkpt lat="44.60229" lon="0.99189">
        <ele>228.93</ele>
        <time>2013-08-11T09:37:23Z</time>
      </trkpt>
      <trkpt lat="44.60227" lon="0.99184">
        <ele>228.93</ele>
        <time>2013-08-11T09:37:24Z</time>
      </trkpt>
      <trkpt lat="44.60224" lon="0.99179">
        <ele>228.93</ele>
        <time>2013-08-11T09:37:25Z</time>
      </trkpt>
      <trkpt lat="44.60221" lon="0.99176">
        <ele>228.93</ele>
        <time>2013-08-11T09:37:26Z</time>
      </trkpt>
      <trkpt lat="44.60204" lon="0.99163">
        <ele>228.93</ele>
        <time>2013-08-11T09:37:31Z</time>
      </trkpt>
      <trkpt lat="44.60196" lon="0.99157">
        <ele>228.93</ele>
        <time>2013-08-11T09:37:33Z</time>
      </trkpt>
      <trkpt lat="44.6017" lon="0.99128">
        <ele>227.97</ele>
        <time>2013-08-11T09:37:40Z</time>
      </trkpt>
      <trkpt lat="44.60165" lon="0.99124">
        <ele>227.97</ele>
        <time>2013-08-11T09:37:41Z</time>
      </trkpt>
      <trkpt lat="44.60161" lon="0.99121">
        <ele>227.97</ele>
        <time>2013-08-11T09:37:42Z</time>
      </trkpt>
      <trkpt lat="44.60157" lon="0.99117">
        <ele>227.97</ele>
        <time>2013-08-11T09:37:43Z</time>
      </trkpt>
      <trkpt lat="44.60152" lon="0.99113">
        <ele>228.45</ele>
        <time>2013-08-11T09:37:44Z</time>
      </trkpt>
      <trkpt lat="44.60139" lon="0.99103">
        <ele>229.41</ele>
        <time>2013-08-11T09:37:47Z</time>
      </trkpt>
      <trkpt lat="44.60107" lon="0.99084">
        <ele>231.81</ele>
        <time>2013-08-11T09:37:54Z</time>
      </trkpt>
      <trkpt lat="44.60032" lon="0.99045">
        <ele>233.26</ele>
        <time>2013-08-11T09:38:07Z</time>
      </trkpt>
      <trkpt lat="44.59987" lon="0.99033">
        <ele>233.26</ele>
        <time>2013-08-11T09:38:14Z</time>
      </trkpt>
      <trkpt lat="44.59981" lon="0.99029">
        <ele>232.78</ele>
        <time>2013-08-11T09:38:15Z</time>
      </trkpt>
      <trkpt lat="44.59939" lon="0.98992">
        <ele>233.74</ele>
        <time>2013-08-11T09:38:25Z</time>
      </trkpt>
      <trkpt lat="44.59899" lon="0.98956">
        <ele>234.22</ele>
        <time>2013-08-11T09:38:38Z</time>
      </trkpt>
      <trkpt lat="44.59887" lon="0.98937">
        <ele>234.22</ele>
        <time>2013-08-11T09:38:43Z</time>
      </trkpt>
      <trkpt lat="44.59852" lon="0.98918">
        <ele>236.62</ele>
        <time>2013-08-11T09:38:56Z</time>
      </trkpt>
      <trkpt lat="44.5982" lon="0.98916">
        <ele>238.54</ele>
        <time>2013-08-11T09:39:06Z</time>
      </trkpt>
      <trkpt lat="44.59799" lon="0.98918">
        <ele>239.51</ele>
        <time>2013-08-11T09:39:11Z</time>
      </trkpt>
      <trkpt lat="44.59772" lon="0.9891">
        <ele>239.51</ele>
        <time>2013-08-11T09:39:17Z</time>
      </trkpt>
      <trkpt lat="44.59759" lon="0.98909">
        <ele>239.99</ele>
        <time>2013-08-11T09:39:20Z</time>
      </trkpt>
      <trkpt lat="44.59715" lon="0.98876">
        <ele>239.51</ele>
        <time>2013-08-11T09:39:32Z</time>
      </trkpt>
      <trkpt lat="44.59713" lon="0.98872">
        <ele>239.51</ele>
        <time>2013-08-11T09:39:33Z</time>
      </trkpt>
      <trkpt lat="44.59697" lon="0.98803">
        <ele>240.47</ele>
        <time>2013-08-11T09:39:47Z</time>
      </trkpt>
      <trkpt lat="44.59692" lon="0.98781">
        <ele>242.87</ele>
        <time>2013-08-11T09:39:52Z</time>
      </trkpt>
      <trkpt lat="44.59675" lon="0.98781">
        <ele>245.75</ele>
        <time>2013-08-11T09:40:00Z</time>
      </trkpt>
      <trkpt lat="44.59649" lon="0.98795">
        <ele>250.08</ele>
        <time>2013-08-11T09:40:12Z</time>
      </trkpt>
      <trkpt lat="44.59607" lon="0.98795">
        <ele>253.93</ele>
        <time>2013-08-11T09:40:24Z</time>
      </trkpt>
      <trkpt lat="44.59561" lon="0.98793">
        <ele>255.37</ele>
        <time>2013-08-11T09:40:36Z</time>
      </trkpt>
      <trkpt lat="44.59553" lon="0.98795">
        <ele>255.85</ele>
        <time>2013-08-11T09:40:38Z</time>
      </trkpt>
      <trkpt lat="44.5953" lon="0.98782">
        <ele>255.85</ele>
        <time>2013-08-11T09:40:44Z</time>
      </trkpt>
      <trkpt lat="44.5952" lon="0.98756">
        <ele>254.89</ele>
        <time>2013-08-11T09:40:48Z</time>
      </trkpt>
      <trkpt lat="44.59514" lon="0.98746">
        <ele>254.89</ele>
        <time>2013-08-11T09:40:50Z</time>
      </trkpt>
      <trkpt lat="44.59503" lon="0.98733">
        <ele>253.93</ele>
        <time>2013-08-11T09:40:53Z</time>
      </trkpt>
      <trkpt lat="44.59463" lon="0.98729">
        <ele>251.52</ele>
        <time>2013-08-11T09:41:01Z</time>
      </trkpt>
      <trkpt lat="44.59432" lon="0.98715">
        <ele>249.6</ele>
        <time>2013-08-11T09:41:06Z</time>
      </trkpt>
      <trkpt lat="44.59419" lon="0.98709">
        <ele>248.16</ele>
        <time>2013-08-11T09:41:08Z</time>
      </trkpt>
      <trkpt lat="44.594" lon="0.98688">
        <ele>245.27</ele>
        <time>2013-08-11T09:41:12Z</time>
      </trkpt>
      <trkpt lat="44.5936" lon="0.98625">
        <ele>240.47</ele>
        <time>2013-08-11T09:41:24Z</time>
      </trkpt>
      <trkpt lat="44.59356" lon="0.98615">
        <ele>240.47</ele>
        <time>2013-08-11T09:41:26Z</time>
      </trkpt>
      <trkpt lat="44.59331" lon="0.98547">
        <ele>237.1</ele>
        <time>2013-08-11T09:41:39Z</time>
      </trkpt>
      <trkpt lat="44.59331" lon="0.98544">
        <ele>236.62</ele>
        <time>2013-08-11T09:41:40Z</time>
      </trkpt>
      <trkpt lat="44.59331" lon="0.98541">
        <ele>236.62</ele>
        <time>2013-08-11T09:41:41Z</time>
      </trkpt>
      <trkpt lat="44.59332" lon="0.98538">
        <ele>236.62</ele>
        <time>2013-08-11T09:41:42Z</time>
      </trkpt>
      <trkpt lat="44.59332" lon="0.98535">
        <ele>236.62</ele>
        <time>2013-08-11T09:41:43Z</time>
      </trkpt>
      <trkpt lat="44.59332" lon="0.98532">
        <ele>236.62</ele>
        <time>2013-08-11T09:41:44Z</time>
      </trkpt>
      <trkpt lat="44.59331" lon="0.98529">
        <ele>236.62</ele>
        <time>2013-08-11T09:41:45Z</time>
      </trkpt>
      <trkpt lat="44.59331" lon="0.98526">
        <ele>236.14</ele>
        <time>2013-08-11T09:41:46Z</time>
      </trkpt>
      <trkpt lat="44.59331" lon="0.98523">
        <ele>236.14</ele>
        <time>2013-08-11T09:41:47Z</time>
      </trkpt>
      <trkpt lat="44.59331" lon="0.98521">
        <ele>236.14</ele>
        <time>2013-08-11T09:41:48Z</time>
      </trkpt>
      <trkpt lat="44.59331" lon="0.98518">
        <ele>236.14</ele>
        <time>2013-08-11T09:41:49Z</time>
      </trkpt>
      <trkpt lat="44.59332" lon="0.98503">
        <ele>235.18</ele>
        <time>2013-08-11T09:41:56Z</time>
      </trkpt>
      <trkpt lat="44.59331" lon="0.985">
        <ele>235.18</ele>
        <time>2013-08-11T09:41:57Z</time>
      </trkpt>
      <trkpt lat="44.59331" lon="0.98498">
        <ele>235.18</ele>
        <time>2013-08-11T09:41:58Z</time>
      </trkpt>
      <trkpt lat="44.5933" lon="0.98496">
        <ele>235.18</ele>
        <time>2013-08-11T09:41:59Z</time>
      </trkpt>
      <trkpt lat="44.59329" lon="0.98493">
        <ele>235.18</ele>
        <time>2013-08-11T09:42:00Z</time>
      </trkpt>
      <trkpt lat="44.59327" lon="0.9849">
        <ele>235.66</ele>
        <time>2013-08-11T09:42:01Z</time>
      </trkpt>
      <trkpt lat="44.59325" lon="0.98487">
        <ele>235.66</ele>
        <time>2013-08-11T09:42:02Z</time>
      </trkpt>
      <trkpt lat="44.59324" lon="0.98484">
        <ele>235.66</ele>
        <time>2013-08-11T09:42:03Z</time>
      </trkpt>
      <trkpt lat="44.59322" lon="0.9848">
        <ele>235.66</ele>
        <time>2013-08-11T09:42:04Z</time>
      </trkpt>
      <trkpt lat="44.59293" lon="0.98421">
        <ele>236.14</ele>
        <time>2013-08-11T09:42:20Z</time>
      </trkpt>
      <trkpt lat="44.59275" lon="0.98381">
        <ele>235.18</ele>
        <time>2013-08-11T09:42:30Z</time>
      </trkpt>
      <trkpt lat="44.59264" lon="0.98351">
        <ele>234.7</ele>
        <time>2013-08-11T09:42:36Z</time>
      </trkpt>
      <trkpt lat="44.59265" lon="0.98346">
        <ele>234.7</ele>
        <time>2013-08-11T09:42:37Z</time>
      </trkpt>
      <trkpt lat="44.59267" lon="0.98342">
        <ele>234.7</ele>
        <time>2013-08-11T09:42:38Z</time>
      </trkpt>
      <trkpt lat="44.59276" lon="0.98333">
        <ele>236.14</ele>
        <time>2013-08-11T09:42:42Z</time>
      </trkpt>
      <trkpt lat="44.59304" lon="0.98297">
        <ele>241.91</ele>
        <time>2013-08-11T09:42:55Z</time>
      </trkpt>
      <trkpt lat="44.59321" lon="0.9826">
        <ele>242.87</ele>
        <time>2013-08-11T09:43:02Z</time>
      </trkpt>
      <trkpt lat="44.59343" lon="0.98196">
        <ele>244.31</ele>
        <time>2013-08-11T09:43:10Z</time>
      </trkpt>
      <trkpt lat="44.5936" lon="0.98161">
        <ele>245.27</ele>
        <time>2013-08-11T09:43:16Z</time>
      </trkpt>
      <trkpt lat="44.59353" lon="0.98136">
        <ele>244.79</ele>
        <time>2013-08-11T09:43:21Z</time>
      </trkpt>
      <trkpt lat="44.59349" lon="0.98124">
        <ele>244.31</ele>
        <time>2013-08-11T09:43:23Z</time>
      </trkpt>
      <trkpt lat="44.59343" lon="0.98101">
        <ele>243.83</ele>
        <time>2013-08-11T09:43:26Z</time>
      </trkpt>
      <trkpt lat="44.5933" lon="0.98048">
        <ele>241.43</ele>
        <time>2013-08-11T09:43:32Z</time>
      </trkpt>
      <trkpt lat="44.59316" lon="0.98024">
        <ele>241.91</ele>
        <time>2013-08-11T09:43:36Z</time>
      </trkpt>
      <trkpt lat="44.59284" lon="0.97986">
        <ele>244.31</ele>
        <time>2013-08-11T09:43:47Z</time>
      </trkpt>
      <trkpt lat="44.5928" lon="0.97976">
        <ele>243.83</ele>
        <time>2013-08-11T09:43:49Z</time>
      </trkpt>
      <trkpt lat="44.59278" lon="0.97957">
        <ele>242.87</ele>
        <time>2013-08-11T09:43:52Z</time>
      </trkpt>
      <trkpt lat="44.59281" lon="0.97909">
        <ele>239.99</ele>
        <time>2013-08-11T09:43:59Z</time>
      </trkpt>
      <trkpt lat="44.59265" lon="0.97866">
        <ele>238.06</ele>
        <time>2013-08-11T09:44:06Z</time>
      </trkpt>
      <trkpt lat="44.59255" lon="0.97831">
        <ele>236.14</ele>
        <time>2013-08-11T09:44:11Z</time>
      </trkpt>
      <trkpt lat="44.59242" lon="0.97782">
        <ele>233.26</ele>
        <time>2013-08-11T09:44:18Z</time>
      </trkpt>
      <trkpt lat="44.59237" lon="0.97751">
        <ele>231.33</ele>
        <time>2013-08-11T09:44:27Z</time>
      </trkpt>
      <trkpt lat="44.59231" lon="0.97754">
        <ele>230.37</ele>
        <time>2013-08-11T09:44:31Z</time>
      </trkpt>
      <trkpt lat="44.59201" lon="0.97757">
        <ele>229.41</ele>
        <time>2013-08-11T09:44:40Z</time>
      </trkpt>
      <trkpt lat="44.59167" lon="0.97773">
        <ele>228.93</ele>
        <time>2013-08-11T09:44:46Z</time>
      </trkpt>
      <trkpt lat="44.59147" lon="0.97796">
        <ele>228.45</ele>
        <time>2013-08-11T09:44:50Z</time>
      </trkpt>
      <trkpt lat="44.59131" lon="0.97829">
        <ele>225.09</ele>
        <time>2013-08-11T09:44:54Z</time>
      </trkpt>
      <trkpt lat="44.59101" lon="0.97869">
        <ele>217.88</ele>
        <time>2013-08-11T09:44:59Z</time>
      </trkpt>
      <trkpt lat="44.59062" lon="0.97886">
        <ele>205.86</ele>
        <time>2013-08-11T09:45:04Z</time>
      </trkpt>
      <trkpt lat="44.59045" lon="0.97884">
        <ele>202.49</ele>
        <time>2013-08-11T09:45:06Z</time>
      </trkpt>
      <trkpt lat="44.59012" lon="0.97889">
        <ele>197.69</ele>
        <time>2013-08-11T09:45:10Z</time>
      </trkpt>
      <trkpt lat="44.58991" lon="0.97896">
        <ele>195.28</ele>
        <time>2013-08-11T09:45:13Z</time>
      </trkpt>
      <trkpt lat="44.5898" lon="0.97887">
        <ele>193.36</ele>
        <time>2013-08-11T09:45:18Z</time>
      </trkpt>
      <trkpt lat="44.5897" lon="0.97848">
        <ele>195.77</ele>
        <time>2013-08-11T09:45:32Z</time>
      </trkpt>
      <trkpt lat="44.58961" lon="0.97819">
        <ele>200.09</ele>
        <time>2013-08-11T09:45:46Z</time>
      </trkpt>
      <trkpt lat="44.5895" lon="0.97799">
        <ele>202.49</ele>
        <time>2013-08-11T09:45:54Z</time>
      </trkpt>
      <trkpt lat="44.58936" lon="0.97777">
        <ele>204.42</ele>
        <time>2013-08-11T09:46:03Z</time>
      </trkpt>
      <trkpt lat="44.58926" lon="0.97773">
        <ele>206.82</ele>
        <time>2013-08-11T09:46:08Z</time>
      </trkpt>
      <trkpt lat="44.58884" lon="0.97746">
        <ele>205.86</ele>
        <time>2013-08-11T09:46:22Z</time>
      </trkpt>
      <trkpt lat="44.58867" lon="0.97686">
        <ele>206.34</ele>
        <time>2013-08-11T09:46:35Z</time>
      </trkpt>
      <trkpt lat="44.58875" lon="0.97625">
        <ele>205.86</ele>
        <time>2013-08-11T09:46:48Z</time>
      </trkpt>
      <trkpt lat="44.58892" lon="0.97599">
        <ele>212.11</ele>
        <time>2013-08-11T09:47:03Z</time>
      </trkpt>
      <trkpt lat="44.58909" lon="0.97577">
        <ele>214.51</ele>
        <time>2013-08-11T09:47:17Z</time>
      </trkpt>
      <trkpt lat="44.58927" lon="0.97553">
        <ele>214.03</ele>
        <time>2013-08-11T09:47:25Z</time>
      </trkpt>
      <trkpt lat="44.58947" lon="0.9753">
        <ele>213.07</ele>
        <time>2013-08-11T09:47:30Z</time>
      </trkpt>
      <trkpt lat="44.58963" lon="0.97503">
        <ele>212.59</ele>
        <time>2013-08-11T09:47:35Z</time>
      </trkpt>
      <trkpt lat="44.58972" lon="0.97475">
        <ele>211.63</ele>
        <time>2013-08-11T09:47:39Z</time>
      </trkpt>
      <trkpt lat="44.58984" lon="0.97424">
        <ele>208.74</ele>
        <time>2013-08-11T09:47:46Z</time>
      </trkpt>
      <trkpt lat="44.59009" lon="0.97399">
        <ele>209.7</ele>
        <time>2013-08-11T09:47:55Z</time>
      </trkpt>
      <trkpt lat="44.59014" lon="0.974">
        <ele>210.67</ele>
        <time>2013-08-11T09:47:58Z</time>
      </trkpt>
      <trkpt lat="44.59017" lon="0.97396">
        <ele>212.59</ele>
        <time>2013-08-11T09:48:14Z</time>
      </trkpt>
      <trkpt lat="44.59016" lon="0.97396">
        <ele>213.07</ele>
        <time>2013-08-11T09:48:26Z</time>
      </trkpt>
      <trkpt lat="44.59017" lon="0.97392">
        <ele>213.07</ele>
        <time>2013-08-11T09:48:29Z</time>
      </trkpt>
      <trkpt lat="44.59017" lon="0.97381">
        <ele>212.59</ele>
        <time>2013-08-11T09:48:35Z</time>
      </trkpt>
      <trkpt lat="44.59014" lon="0.97374">
        <ele>211.15</ele>
        <time>2013-08-11T09:48:46Z</time>
      </trkpt>
      <trkpt lat="44.59014" lon="0.9737">
        <ele>210.67</ele>
        <time>2013-08-11T09:48:49Z</time>
      </trkpt>
      <trkpt lat="44.59016" lon="0.97364">
        <ele>209.7</ele>
        <time>2013-08-11T09:48:59Z</time>
      </trkpt>
      <trkpt lat="44.59018" lon="0.97352">
        <ele>208.74</ele>
        <time>2013-08-11T09:49:04Z</time>
      </trkpt>
      <trkpt lat="44.59011" lon="0.97327">
        <ele>206.34</ele>
        <time>2013-08-11T09:49:14Z</time>
      </trkpt>
      <trkpt lat="44.59002" lon="0.97298">
        <ele>202.49</ele>
        <time>2013-08-11T09:49:22Z</time>
      </trkpt>
      <trkpt lat="44.59" lon="0.97296">
        <ele>202.49</ele>
        <time>2013-08-11T09:49:23Z</time>
      </trkpt>
      <trkpt lat="44.58985" lon="0.97266">
        <ele>202.01</ele>
        <time>2013-08-11T09:49:34Z</time>
      </trkpt>
      <trkpt lat="44.5898" lon="0.97253">
        <ele>202.01</ele>
        <time>2013-08-11T09:49:38Z</time>
      </trkpt>
      <trkpt lat="44.58971" lon="0.9723">
        <ele>202.01</ele>
        <time>2013-08-11T09:49:44Z</time>
      </trkpt>
      <trkpt lat="44.58969" lon="0.97213">
        <ele>201.53</ele>
        <time>2013-08-11T09:49:49Z</time>
      </trkpt>
      <trkpt lat="44.58977" lon="0.97169">
        <ele>197.69</ele>
        <time>2013-08-11T09:50:00Z</time>
      </trkpt>
      <trkpt lat="44.59009" lon="0.97154">
        <ele>197.21</ele>
        <time>2013-08-11T09:50:10Z</time>
      </trkpt>
      <trkpt lat="44.5902" lon="0.9715">
        <ele>197.21</ele>
        <time>2013-08-11T09:50:13Z</time>
      </trkpt>
      <trkpt lat="44.59028" lon="0.97142">
        <ele>197.21</ele>
        <time>2013-08-11T09:50:15Z</time>
      </trkpt>
      <trkpt lat="44.59042" lon="0.97128">
        <ele>198.65</ele>
        <time>2013-08-11T09:50:19Z</time>
      </trkpt>
      <trkpt lat="44.59056" lon="0.97085">
        <ele>199.13</ele>
        <time>2013-08-11T09:50:29Z</time>
      </trkpt>
      <trkpt lat="44.59089" lon="0.97046">
        <ele>198.65</ele>
        <time>2013-08-11T09:50:40Z</time>
      </trkpt>
      <trkpt lat="44.59132" lon="0.97018">
        <ele>198.65</ele>
        <time>2013-08-11T09:50:52Z</time>
      </trkpt>
      <trkpt lat="44.59171" lon="0.96994">
        <ele>198.17</ele>
        <time>2013-08-11T09:51:03Z</time>
      </trkpt>
      <trkpt lat="44.59184" lon="0.96989">
        <ele>198.17</ele>
        <time>2013-08-11T09:51:06Z</time>
      </trkpt>
      <trkpt lat="44.59249" lon="0.96966">
        <ele>197.21</ele>
        <time>2013-08-11T09:51:18Z</time>
      </trkpt>
      <trkpt lat="44.59272" lon="0.9695">
        <ele>197.21</ele>
        <time>2013-08-11T09:51:22Z</time>
      </trkpt>
      <trkpt lat="44.59292" lon="0.96936">
        <ele>196.73</ele>
        <time>2013-08-11T09:51:26Z</time>
      </trkpt>
      <trkpt lat="44.59326" lon="0.96919">
        <ele>196.73</ele>
        <time>2013-08-11T09:51:35Z</time>
      </trkpt>
      <trkpt lat="44.59329" lon="0.96917">
        <ele>194.8</ele>
        <time>2013-08-11T09:51:49Z</time>
      </trkpt>
      <trkpt lat="44.59345" lon="0.96897">
        <ele>196.25</ele>
        <time>2013-08-11T09:51:57Z</time>
      </trkpt>
      <trkpt lat="44.59353" lon="0.9688">
        <ele>197.69</ele>
        <time>2013-08-11T09:52:01Z</time>
      </trkpt>
      <trkpt lat="44.59385" lon="0.96856">
        <ele>197.21</ele>
        <time>2013-08-11T09:52:12Z</time>
      </trkpt>
      <trkpt lat="44.59393" lon="0.96851">
        <ele>196.73</ele>
        <time>2013-08-11T09:52:15Z</time>
      </trkpt>
      <trkpt lat="44.5941" lon="0.96843">
        <ele>196.25</ele>
        <time>2013-08-11T09:52:24Z</time>
      </trkpt>
      <trkpt lat="44.59415" lon="0.9684">
        <ele>196.73</ele>
        <time>2013-08-11T09:52:27Z</time>
      </trkpt>
      <trkpt lat="44.59438" lon="0.96833">
        <ele>199.13</ele>
        <time>2013-08-11T09:52:41Z</time>
      </trkpt>
      <trkpt lat="44.59461" lon="0.96832">
        <ele>200.09</ele>
        <time>2013-08-11T09:52:53Z</time>
      </trkpt>
      <trkpt lat="44.59481" lon="0.96841">
        <ele>199.13</ele>
        <time>2013-08-11T09:53:04Z</time>
      </trkpt>
      <trkpt lat="44.59505" lon="0.96868">
        <ele>198.65</ele>
        <time>2013-08-11T09:53:16Z</time>
      </trkpt>
      <trkpt lat="44.59507" lon="0.96866">
        <ele>198.65</ele>
        <time>2013-08-11T09:53:18Z</time>
      </trkpt>
      <trkpt lat="44.59509" lon="0.96863">
        <ele>198.65</ele>
        <time>2013-08-11T09:53:19Z</time>
      </trkpt>
      <trkpt lat="44.59536" lon="0.96837">
        <ele>196.25</ele>
        <time>2013-08-11T09:53:30Z</time>
      </trkpt>
      <trkpt lat="44.59544" lon="0.96822">
        <ele>194.8</ele>
        <time>2013-08-11T09:53:35Z</time>
      </trkpt>
      <trkpt lat="44.59548" lon="0.96821">
        <ele>194.32</ele>
        <time>2013-08-11T09:53:36Z</time>
      </trkpt>
      <trkpt lat="44.59552" lon="0.9682">
        <ele>193.84</ele>
        <time>2013-08-11T09:53:37Z</time>
      </trkpt>
      <trkpt lat="44.59557" lon="0.9682">
        <ele>193.36</ele>
        <time>2013-08-11T09:53:38Z</time>
      </trkpt>
      <trkpt lat="44.59561" lon="0.9682">
        <ele>193.36</ele>
        <time>2013-08-11T09:53:39Z</time>
      </trkpt>
      <trkpt lat="44.59582" lon="0.96815">
        <ele>191.92</ele>
        <time>2013-08-11T09:53:44Z</time>
      </trkpt>
      <trkpt lat="44.59587" lon="0.96807">
        <ele>191.92</ele>
        <time>2013-08-11T09:53:45Z</time>
      </trkpt>
      <trkpt lat="44.59614" lon="0.96755">
        <ele>188.08</ele>
        <time>2013-08-11T09:53:53Z</time>
      </trkpt>
      <trkpt lat="44.59617" lon="0.96755">
        <ele>187.59</ele>
        <time>2013-08-11T09:53:54Z</time>
      </trkpt>
      <trkpt lat="44.5962" lon="0.96755">
        <ele>187.59</ele>
        <time>2013-08-11T09:53:55Z</time>
      </trkpt>
      <trkpt lat="44.59648" lon="0.96764">
        <ele>185.67</ele>
        <time>2013-08-11T09:54:06Z</time>
      </trkpt>
      <trkpt lat="44.59678" lon="0.96803">
        <ele>185.67</ele>
        <time>2013-08-11T09:54:19Z</time>
      </trkpt>
      <trkpt lat="44.59705" lon="0.96841">
        <ele>184.23</ele>
        <time>2013-08-11T09:54:31Z</time>
      </trkpt>
      <trkpt lat="44.59732" lon="0.96841">
        <ele>184.23</ele>
        <time>2013-08-11T09:54:41Z</time>
      </trkpt>
      <trkpt lat="44.59735" lon="0.96842">
        <ele>184.23</ele>
        <time>2013-08-11T09:54:42Z</time>
      </trkpt>
      <trkpt lat="44.59739" lon="0.96843">
        <ele>184.23</ele>
        <time>2013-08-11T09:54:44Z</time>
      </trkpt>
      <trkpt lat="44.59748" lon="0.96842">
        <ele>184.23</ele>
        <time>2013-08-11T09:54:47Z</time>
      </trkpt>
      <trkpt lat="44.59751" lon="0.96843">
        <ele>184.23</ele>
        <time>2013-08-11T09:54:48Z</time>
      </trkpt>
      <trkpt lat="44.59754" lon="0.96844">
        <ele>184.23</ele>
        <time>2013-08-11T09:54:49Z</time>
      </trkpt>
      <trkpt lat="44.59757" lon="0.96846">
        <ele>184.23</ele>
        <time>2013-08-11T09:54:50Z</time>
      </trkpt>
      <trkpt lat="44.5976" lon="0.96849">
        <ele>184.23</ele>
        <time>2013-08-11T09:54:51Z</time>
      </trkpt>
      <trkpt lat="44.59798" lon="0.96891">
        <ele>182.79</ele>
        <time>2013-08-11T09:55:04Z</time>
      </trkpt>
      <trkpt lat="44.59831" lon="0.96934">
        <ele>181.83</ele>
        <time>2013-08-11T09:55:17Z</time>
      </trkpt>
      <trkpt lat="44.59855" lon="0.96967">
        <ele>180.87</ele>
        <time>2013-08-11T09:55:29Z</time>
      </trkpt>
      <trkpt lat="44.59858" lon="0.96974">
        <ele>179.42</ele>
        <time>2013-08-11T09:55:33Z</time>
      </trkpt>
      <trkpt lat="44.59854" lon="0.96986">
        <ele>177.98</ele>
        <time>2013-08-11T09:55:38Z</time>
      </trkpt>
      <trkpt lat="44.59853" lon="0.96988">
        <ele>177.5</ele>
        <time>2013-08-11T09:55:39Z</time>
      </trkpt>
      <trkpt lat="44.59851" lon="0.9699">
        <ele>177.02</ele>
        <time>2013-08-11T09:55:40Z</time>
      </trkpt>
      <trkpt lat="44.5985" lon="0.96991">
        <ele>176.54</ele>
        <time>2013-08-11T09:55:41Z</time>
      </trkpt>
      <trkpt lat="44.59849" lon="0.96993">
        <ele>176.54</ele>
        <time>2013-08-11T09:55:42Z</time>
      </trkpt>
      <trkpt lat="44.59832" lon="0.97014">
        <ele>177.5</ele>
        <time>2013-08-11T09:55:54Z</time>
      </trkpt>
      <trkpt lat="44.59831" lon="0.97015">
        <ele>177.98</ele>
        <time>2013-08-11T09:55:55Z</time>
      </trkpt>
      <trkpt lat="44.5983" lon="0.97017">
        <ele>178.46</ele>
        <time>2013-08-11T09:55:56Z</time>
      </trkpt>
      <trkpt lat="44.5981" lon="0.9704">
        <ele>185.19</ele>
        <time>2013-08-11T09:56:12Z</time>
      </trkpt>
      <trkpt lat="44.59779" lon="0.9706">
        <ele>186.15</ele>
        <time>2013-08-11T09:56:28Z</time>
      </trkpt>
      <trkpt lat="44.59777" lon="0.9706">
        <ele>186.15</ele>
        <time>2013-08-11T09:56:29Z</time>
      </trkpt>
      <trkpt lat="44.59776" lon="0.97059">
        <ele>186.63</ele>
        <time>2013-08-11T09:56:30Z</time>
      </trkpt>
      <trkpt lat="44.59775" lon="0.97058">
        <ele>187.11</ele>
        <time>2013-08-11T09:56:31Z</time>
      </trkpt>
      <trkpt lat="44.59773" lon="0.97057">
        <ele>187.11</ele>
        <time>2013-08-11T09:56:32Z</time>
      </trkpt>
      <trkpt lat="44.59772" lon="0.97056">
        <ele>187.11</ele>
        <time>2013-08-11T09:56:33Z</time>
      </trkpt>
      <trkpt lat="44.59771" lon="0.97055">
        <ele>187.11</ele>
        <time>2013-08-11T09:56:34Z</time>
      </trkpt>
      <trkpt lat="44.59772" lon="0.97042">
        <ele>187.11</ele>
        <time>2013-08-11T09:56:43Z</time>
      </trkpt>
      <trkpt lat="44.59769" lon="0.97034">
        <ele>185.67</ele>
        <time>2013-08-11T09:56:54Z</time>
      </trkpt>
      <trkpt lat="44.59766" lon="0.97033">
        <ele>185.19</ele>
        <time>2013-08-11T09:57:08Z</time>
      </trkpt>
      <trkpt lat="44.59761" lon="0.97034">
        <ele>185.19</ele>
        <time>2013-08-11T09:57:20Z</time>
      </trkpt>
    </trkseg>
  </trk>
</gpx>